[[{"header":{"parameterUnit":"m.s-1","parameterCategory":1,"la1":30.6,"la2":28.766,"lo1":-90.7593,"lo2":-88.6598,"dy":0.0162,"dx":0.0183,"nx":116,"ny":114,"refTime":"2023-05-29T12:00:00:Z","depth":0,"parameterNumber":2,"parameterNumberName":"U-component_of_WINDS"},"data":[0.0,0.0,0.0,0.0,0.0,0.0,0.0,0.0,0.0,0.0,0.0,0.0,0.0,0.0,0.0,0.0,0.0,0.0,0.0,0.0,0.0,0.0,0.0,0.0,0.0,0.0,0.0,0.0,0.0,0.0,0.0,0.0,0.0,0.0,0.0,0.0,0.0,0.0,0.0,0.0,0.0,0.0,0.0,0.0,0.0,0.0,0.0,0.0,0.0,0.0,0.0,0.0,0.0,0.0,0.0,0.0,0.0,0.0,0.0,0.0,0.0,0.0,0.0,0.0,0.0,0.0,0.0,0.0,0.0,0.0,0.0,0.0,0.0,0.0,0.0,0.0,0.0,0.0,0.0,0.0,0.0,0.0,0.0,0.0,0.0,0.0,0.0,0.0,0.0,0.0,0.0,0.0,0.0,0.0,0.0,0.0,0.0,0.0,0.0,0.0,0.0,0.0,0.0,0.0,0.0,0.0,0.0,0.0,0.0,0.0,0.0,0.0,0.0,0.0,0.0,0.0,0.0,0.0,0.0,0.0,0.0,0.0,0.0,0.0,0.0,0.0,0.0,0.0,0.0,0.0,0.0,0.0,0.0,0.0,0.0,0.0,0.0,0.0,0.0,0.0,0.0,0.0,0.0,0.0,0.0,0.0,0.0,0.0,0.0,0.0,0.0,0.0,0.0,0.0,0.0,0.0,0.0,0.0,0.0,0.0,0.0,0.0,0.0,0.0,0.0,0.0,0.0,0.0,0.0,0.0,0.0,0.0,0.0,0.0,0.0,0.0,0.0,0.0,0.0,0.0,0.0,0.0,0.0,0.0,0.0,0.0,0.0,0.0,0.0,0.0,0.0,0.0,0.0,0.0,0.0,0.0,0.0,0.0,0.0,0.0,0.0,0.0,0.0,0.0,0.0,0.0,0.0,0.0,0.0,0.0,0.0,0.0,0.0,0.0,0.0,0.0,0.0,0.0,0.0,0.0,0.0,0.0,0.0,0.0,0.0,0.0,0.0,0.0,0.0,0.0,0.0,0.0,0.0,0.0,0.0,0.0,0.0,0.0,0.0,0.0,0.0,0.0,0.0,0.0,0.0,0.0,0.0,0.0,0.0,0.0,0.0,0.0,0.0,0.0,0.0,0.0,0.0,0.0,0.0,0.0,0.0,0.0,0.0,0.0,0.0,0.0,0.0,0.0,0.0,0.0,0.0,0.0,0.0,0.0,0.0,0.0,0.0,0.0,0.0,0.0,0.0,0.0,0.0,0.0,0.0,0.0,0.0,0.0,0.0,0.0,0.0,0.0,0.0,0.0,0.0,0.0,0.0,0.0,0.0,0.0,0.0,0.0,0.0,0.0,0.0,0.0,0.0,0.0,0.0,0.0,0.0,0.0,0.0,0.0,0.0,0.0,0.0,0.0,0.0,0.0,0.0,0.0,0.0,0.0,0.0,0.0,0.0,0.0,0.0,0.0,0.0,0.0,0.0,0.0,0.0,0.0,0.0,0.0,0.0,0.0,0.0,0.0,0.0,0.0,0.0,0.0,0.0,0.0,0.0,0.0,0.0,0.0,0.0,0.0,0.0,0.0,0.0,0.0,0.0,0.0,0.0,0.0,0.0,0.0,0.0,0.0,0.0,0.0,0.0,0.0,0.0,0.0,0.0,0.0,0.0,0.0,0.0,0.0,0.0,0.0,0.0,0.0,0.0,0.0,0.0,0.0,0.0,0.0,0.0,0.0,0.0,0.0,0.0,0.0,0.0,0.0,0.0,0.0,0.0,0.0,0.0,0.0,0.0,0.0,0.0,0.0,0.0,0.0,0.0,0.0,0.0,0.0,0.0,0.0,0.0,0.0,0.0,0.0,0.0,0.0,0.0,0.0,0.0,0.0,0.0,0.0,0.0,0.0,0.0,0.0,0.0,0.0,0.0,0.0,0.0,0.0,0.0,0.0,0.0,0.0,0.0,0.0,0.0,0.0,0.0,0.0,0.0,0.0,0.0,0.0,0.0,0.0,0.0,0.0,0.0,0.0,0.0,0.0,0.0,0.0,0.0,0.0,0.0,0.0,0.0,0.0,0.0,0.0,0.0,0.0,0.0,0.0,0.0,0.0,0.0,0.0,0.0,0.0,0.0,0.0,0.0,0.0,0.0,0.0,0.0,0.0,0.0,0.0,0.0,0.0,0.0,0.0,0.0,0.0,0.0,0.0,0.0,0.0,0.0,0.0,0.0,0.0,0.0,0.0,0.0,0.0,0.0,0.0,0.0,0.0,0.0,0.0,0.0,0.0,0.0,0.0,0.0,0.0,0.0,0.0,0.0,0.0,0.0,0.0,0.0,0.0,0.0,0.0,0.0,0.0,0.0,0.0,0.0,0.0,0.0,0.0,0.0,0.0,0.0,0.0,0.0,0.0,0.0,0.0,0.0,0.0,0.0,0.0,0.0,0.0,0.0,0.0,0.0,0.0,0.0,0.0,0.0,0.0,0.0,0.0,0.0,0.0,0.0,0.0,0.0,0.0,0.0,0.0,0.0,0.0,0.0,0.0,0.0,0.0,0.0,0.0,0.0,0.0,0.0,0.0,0.0,0.0,0.0,0.0,0.0,0.0,0.0,0.0,0.0,0.0,0.0,0.0,0.0,0.0,0.0,0.0,0.0,0.0,0.0,0.0,0.0,0.0,0.0,0.0,0.0,0.0,0.0,0.0,0.0,0.0,0.0,0.0,0.0,0.0,0.0,0.0,0.0,0.0,0.0,0.0,0.0,0.0,0.0,0.0,0.0,0.0,0.0,0.0,0.0,0.0,0.0,0.0,0.0,0.0,0.0,0.0,0.0,0.0,0.0,0.0,0.0,0.0,0.0,0.0,0.0,0.0,0.0,0.0,0.0,0.0,0.0,0.0,0.0,0.0,0.0,0.0,0.0,0.0,0.0,0.0,0.0,0.0,0.0,0.0,0.0,0.0,0.0,0.0,0.0,0.0,0.0,0.0,0.0,0.0,0.0,0.0,0.0,0.0,0.0,0.0,0.0,0.0,0.0,0.0,0.0,0.0,0.0,0.0,0.0,0.0,0.0,0.0,0.0,0.0,0.0,0.0,0.0,0.0,0.0,0.0,0.0,0.0,0.0,0.0,0.0,0.0,0.0,0.0,0.0,0.0,0.0,0.0,0.0,0.0,0.0,0.0,0.0,0.0,0.0,0.0,0.0,0.0,0.0,0.0,0.0,0.0,0.0,0.0,0.0,0.0,0.0,0.0,0.0,0.0,0.0,0.0,0.0,0.0,0.0,0.0,0.0,0.0,0.0,0.0,0.0,0.0,0.0,0.0,0.0,0.0,0.0,0.0,0.0,0.0,0.0,0.0,0.0,0.0,0.0,0.0,0.0,0.0,0.0,0.0,0.0,0.0,0.0,0.0,0.0,0.0,0.0,0.0,0.0,0.0,0.0,0.0,0.0,0.0,0.0,0.0,0.0,0.0,0.0,0.0,0.0,0.0,0.0,0.0,0.0,0.0,0.0,0.0,0.0,0.0,0.0,0.0,0.0,0.0,0.0,0.0,0.0,0.0,0.0,0.0,0.0,0.0,0.0,0.0,0.0,0.0,0.0,0.0,0.0,0.0,0.0,0.0,0.0,0.0,0.0,0.0,0.0,0.0,0.0,0.0,0.0,0.0,0.0,0.0,0.0,0.0,0.0,0.0,0.0,0.0,0.0,0.0,0.0,0.0,0.0,0.0,0.0,0.0,0.0,0.0,0.0,0.0,0.0,0.0,0.0,0.0,0.0,0.0,0.0,0.0,0.0,0.0,0.0,0.0,0.0,0.0,0.0,0.0,0.0,0.0,0.0,0.0,0.0,0.0,0.0,0.0,0.0,0.0,0.0,0.0,0.0,0.0,0.0,0.0,0.0,0.0,0.0,0.0,0.0,0.0,0.0,0.0,0.0,0.0,0.0,0.0,0.0,0.0,0.0,0.0,0.0,0.0,0.0,0.0,0.0,0.0,0.0,0.0,0.0,0.0,0.0,0.0,0.0,0.0,0.0,0.0,0.0,0.0,0.0,0.0,0.0,0.0,0.0,0.0,0.0,0.0,0.0,0.0,0.0,0.0,0.0,0.0,0.0,0.0,0.0,0.0,0.0,0.0,0.0,0.0,0.0,0.0,0.0,0.0,0.0,0.0,0.0,0.0,0.0,0.0,0.0,0.0,0.0,0.0,0.0,0.0,0.0,0.0,0.0,0.0,0.0,0.0,0.0,0.0,0.0,0.0,0.0,0.0,0.0,0.0,0.0,0.0,0.0,0.0,0.0,0.0,0.0,0.0,0.0,0.0,0.0,0.0,0.0,0.0,0.0,0.0,0.0,0.0,0.0,0.0,0.0,0.0,0.0,0.0,0.0,0.0,0.0,0.0,0.0,0.0,0.0,0.0,0.0,0.0,0.0,0.0,0.0,0.0,0.0,0.0,0.0,0.0,0.0,0.0,0.0,0.0,0.0,0.0,0.0,0.0,0.0,0.0,0.0,0.0,0.0,0.0,0.0,0.0,0.0,0.0,0.0,0.0,0.0,0.0,0.0,0.0,0.0,0.0,0.0,0.0,0.0,0.0,0.0,0.0,0.0,0.0,0.0,0.0,0.0,0.0,0.0,0.0,0.0,0.0,0.0,0.0,0.0,0.0,0.0,0.0,0.0,0.0,0.0,0.0,0.0,0.0,0.0,0.0,0.0,0.0,0.0,0.0,0.0,0.0,0.0,0.0,0.0,0.0,0.0,0.0,0.0,0.0,0.0,0.0,0.0,0.0,0.0,0.0,0.0,0.0,0.0,0.0,0.0,0.0,0.0,0.0,0.0,0.0,0.0,0.0,0.0,0.0,0.0,0.0,0.0,0.0,0.0,0.0,0.0,0.0,0.0,0.0,0.0,0.0,0.0,0.0,0.0,0.0,0.0,0.0,0.0,0.0,0.0,0.0,0.0,0.0,0.0,0.0,0.0,0.0,0.0,0.0,0.0,0.0,0.0,0.0,0.0,0.0,0.0,0.0,0.0,0.0,0.0,0.0,0.0,0.0,0.0,0.0,0.0,0.0,0.0,0.0,0.0,0.0,0.0,0.0,0.0,0.0,0.0,0.0,0.0,0.0,0.0,0.0,0.0,0.0,0.0,0.0,0.0,0.0,0.0,0.0,0.0,0.0,0.0,0.0,0.0,0.0,0.0,0.0,0.0,0.0,0.0,0.0,0.0,0.0,0.0,0.0,0.0,0.0,0.0,0.0,0.0,0.0,0.0,0.0,0.0,0.0,0.0,0.0,0.0,0.0,0.0,0.0,0.0,0.0,0.0,0.0,0.0,0.0,0.0,0.0,0.0,0.0,0.0,0.0,0.0,0.0,0.0,0.0,0.0,0.0,0.0,0.0,0.0,0.0,0.0,0.0,0.0,0.0,0.0,0.0,0.0,0.0,0.0,0.0,0.0,0.0,0.0,0.0,0.0,0.0,0.0,0.0,0.0,0.0,0.0,0.0,0.0,0.0,0.0,0.0,0.0,0.0,0.0,0.0,0.0,0.0,0.0,0.0,0.0,0.0,0.0,0.0,0.0,0.0,0.0,0.0,0.0,0.0,0.0,0.0,0.0,0.0,0.0,0.0,0.0,0.0,0.0,0.0,0.0,0.0,0.0,0.0,0.0,0.0,0.0,0.0,0.0,0.0,0.0,0.0,0.0,0.0,0.0,0.0,0.0,0.0,0.0,0.0,0.0,0.0,0.0,0.0,0.0,0.0,0.0,0.0,0.0,0.0,0.0,0.0,0.0,0.0,0.0,0.0,0.0,0.0,0.0,0.0,0.0,0.0,0.0,0.0,0.0,0.0,0.0,0.0,0.0,0.0,0.0,0.0,0.0,0.0,0.0,0.0,0.0,0.0,0.0,0.0,0.0,0.0,0.0,0.0,0.0,0.0,0.0,0.0,0.0,0.0,0.0,0.0,0.0,0.0,0.0,0.0,0.0,0.0,0.0,0.0,0.0,0.0,0.0,0.0,0.0,0.0,0.0,0.0,0.0,0.0,0.0,0.0,0.0,0.0,0.0,0.0,0.0,0.0,0.0,0.0,0.0,0.0,0.0,0.0,0.0,0.0,-3.3887,0.0,0.0,0.0,0.0,0.0,0.0,0.0,0.0,0.0,0.0,0.0,0.0,0.0,0.0,0.0,0.0,0.0,0.0,0.0,0.0,0.0,0.0,0.0,0.0,0.0,0.0,0.0,0.0,0.0,0.0,0.0,0.0,0.0,0.0,0.0,0.0,0.0,0.0,0.0,-2.1443,-2.1855,-2.2417,-2.2172,-2.2509,-2.3422,0.0,0.0,0.0,0.0,0.0,0.0,0.0,0.0,0.0,0.0,0.0,0.0,0.0,0.0,0.0,0.0,0.0,0.0,0.0,0.0,0.0,0.0,0.0,0.0,0.0,0.0,0.0,0.0,0.0,0.0,0.0,0.0,0.0,0.0,0.0,0.0,0.0,0.0,0.0,0.0,0.0,0.0,0.0,0.0,0.0,0.0,0.0,0.0,0.0,0.0,0.0,0.0,0.0,0.0,0.0,0.0,0.0,0.0,0.0,0.0,0.0,0.0,0.0,0.0,0.0,0.0,0.0,0.0,0.0,0.0,0.0,-3.4178,0.0,0.0,0.0,0.0,0.0,0.0,0.0,0.0,0.0,0.0,0.0,0.0,0.0,0.0,0.0,0.0,0.0,0.0,0.0,0.0,0.0,0.0,0.0,0.0,-1.6579,-1.6482,-1.6377,0.0,0.0,0.0,0.0,0.0,0.0,0.0,0.0,-1.9764,-2.0413,-2.1023,-2.1663,-2.2184,-2.2628,-2.2869,-2.3303,-2.3989,-2.4549,0.0,0.0,0.0,0.0,0.0,0.0,0.0,0.0,0.0,0.0,0.0,0.0,0.0,0.0,0.0,0.0,0.0,0.0,0.0,0.0,0.0,0.0,0.0,0.0,0.0,0.0,0.0,0.0,0.0,0.0,0.0,0.0,0.0,0.0,0.0,0.0,0.0,0.0,0.0,0.0,0.0,0.0,0.0,0.0,0.0,0.0,0.0,0.0,0.0,0.0,0.0,0.0,0.0,0.0,0.0,0.0,0.0,0.0,0.0,0.0,0.0,0.0,0.0,-3.5075,-3.5095,-3.4907,-3.5579,-3.5883,-3.5856,-3.5507,-3.5469,-3.5572,0.0,0.0,0.0,0.0,0.0,0.0,0.0,0.0,0.0,0.0,0.0,0.0,0.0,0.0,0.0,0.0,0.0,0.0,0.0,0.0,0.0,0.0,-1.615,-1.64,-1.5964,-1.614,-1.6508,0.0,0.0,0.0,0.0,0.0,0.0,-1.9328,-1.9891,-2.0228,-2.0334,-2.1563,-2.2202,-2.2303,-2.3453,-2.4066,-2.4163,-2.4088,-2.4161,-2.4466,0.0,0.0,0.0,0.0,0.0,0.0,0.0,0.0,0.0,0.0,0.0,0.0,0.0,0.0,0.0,0.0,0.0,0.0,0.0,0.0,0.0,0.0,0.0,0.0,0.0,0.0,0.0,0.0,0.0,0.0,0.0,0.0,0.0,0.0,0.0,0.0,0.0,0.0,0.0,0.0,0.0,-3.2975,-3.3435,0.0,0.0,0.0,0.0,0.0,0.0,0.0,0.0,0.0,0.0,0.0,0.0,0.0,0.0,-3.6669,-3.6671,-3.6591,-3.6406,-3.6449,-3.6331,-3.6091,-3.6414,-3.6581,-3.6568,-3.6504,0.0,-3.5701,-3.5954,0.0,0.0,0.0,0.0,0.0,0.0,0.0,0.0,0.0,0.0,0.0,0.0,0.0,0.0,0.0,0.0,0.0,0.0,0.0,0.0,0.0,-1.5288,-1.5535,-1.5309,-1.6095,-1.6632,-1.6742,0.0,0.0,0.0,0.0,-1.8406,-1.8864,-1.9121,-1.9664,-2.0497,-2.1188,-2.1686,-2.1988,-2.2573,-2.3091,-2.3508,-2.3445,-2.3828,-2.4671,-2.582,0.0,0.0,0.0,0.0,0.0,0.0,0.0,0.0,0.0,0.0,0.0,0.0,0.0,0.0,0.0,0.0,0.0,0.0,0.0,0.0,0.0,0.0,0.0,0.0,0.0,0.0,0.0,0.0,0.0,0.0,0.0,0.0,0.0,0.0,0.0,0.0,0.0,0.0,0.0,-3.2935,-3.3176,-3.3282,-3.3694,-3.4152,0.0,0.0,0.0,0.0,0.0,0.0,0.0,0.0,0.0,-3.6591,-3.6788,-3.6908,-3.7007,-3.7222,-3.7182,-3.6866,-3.6866,-3.6748,-3.6544,-3.6834,-3.695,-3.6888,-3.7318,-3.7029,-3.6247,-3.6064,-3.5668,-3.5206,0.0,0.0,0.0,0.0,0.0,-3.6065,0.0,0.0,0.0,0.0,0.0,0.0,0.0,0.0,0.0,0.0,0.0,0.0,-1.4207,-1.4746,-1.5053,-1.4925,-1.5731,-1.6299,-1.6357,-1.677,0.0,0.0,-1.7345,-1.7645,-1.8294,-1.8471,-1.909,-2.019,-2.0539,-2.0997,-2.147,-2.173,-2.2161,-2.2751,-2.2837,-2.3572,-2.4838,-2.5287,-2.5985,-2.6833,0.0,0.0,0.0,0.0,0.0,0.0,0.0,0.0,0.0,0.0,0.0,0.0,0.0,0.0,0.0,0.0,0.0,0.0,0.0,0.0,0.0,0.0,0.0,0.0,0.0,0.0,0.0,0.0,0.0,0.0,0.0,0.0,0.0,0.0,0.0,0.0,0.0,-3.3069,-3.3256,-3.3372,-3.3848,-3.4333,0.0,0.0,0.0,0.0,0.0,0.0,-3.6381,-3.6343,-3.6364,-3.6468,-3.6771,-3.6968,-3.7085,-3.7317,-3.7298,-3.7007,-3.6948,-3.6809,-3.6623,-3.6933,-3.7011,-3.6968,-3.7559,-3.7375,-3.667,-3.6243,-3.5952,-3.5706,-3.5545,-3.5584,-3.576,-3.6059,-3.6292,-3.6556,0.0,0.0,0.0,0.0,0.0,0.0,0.0,0.0,0.0,0.0,0.0,-1.4008,-1.3937,-1.4915,-1.5397,-1.5047,-1.4801,-1.5072,-1.5976,-1.5825,-1.6073,-1.688,-1.7462,-1.7808,-1.7847,-1.8404,-1.8727,-1.8785,-1.9571,-2.0163,-2.06,-2.1551,-2.2014,-2.2063,-2.234,-2.3112,-2.4298,-2.5158,-2.5521,-2.5695,-2.6794,0.0,0.0,0.0,0.0,0.0,0.0,0.0,0.0,0.0,0.0,0.0,0.0,0.0,0.0,0.0,0.0,0.0,0.0,0.0,0.0,0.0,0.0,0.0,0.0,0.0,0.0,0.0,0.0,0.0,0.0,0.0,0.0,0.0,0.0,0.0,0.0,0.0,0.0,-3.3633,-3.405,0.0,0.0,0.0,0.0,-3.5788,-3.5827,-3.6062,-3.6643,-3.6444,-3.6509,-3.695,-3.6806,-3.6906,-3.7278,-3.7124,-3.7027,-3.7007,-3.6806,-3.6582,-3.6322,-3.6585,-3.6722,-3.6722,-3.6968,-3.6908,-3.6725,-3.7017,-3.66,-3.5798,-3.5723,-3.5616,-3.5607,-3.6381,-3.6424,-3.6267,0.0,0.0,0.0,0.0,0.0,0.0,0.0,0.0,0.0,-1.2403,-1.3059,-1.3405,-1.3411,-1.3913,-1.4211,-1.4058,-1.4522,-1.5148,-1.5826,-1.6376,-1.6984,-1.7567,-1.7806,-1.7923,-1.7923,-1.8292,-1.8523,-1.8523,-1.8913,-1.9312,-1.9652,-2.0042,-2.0692,-2.1603,-2.1704,-2.2229,-2.3085,-2.3657,-2.4373,-2.5228,-2.5869,-2.6433,0.0,0.0,0.0,0.0,0.0,0.0,0.0,0.0,0.0,0.0,0.0,0.0,0.0,0.0,0.0,0.0,0.0,0.0,0.0,0.0,0.0,0.0,0.0,0.0,0.0,0.0,0.0,0.0,0.0,0.0,0.0,0.0,0.0,0.0,0.0,0.0,0.0,-3.315,-3.3633,0.0,-3.4399,-3.4626,-3.5038,-3.5761,-3.5566,-3.5722,-3.6402,-3.6343,-3.6385,-3.653,-3.6643,-3.6783,-3.6906,-3.6968,-3.6928,-3.6806,-3.6725,-3.6643,-3.6544,-3.6661,-3.6766,-3.6888,-3.6968,-3.6886,-3.6702,-3.6829,-3.6576,-3.6137,-3.6289,-3.6507,-3.672,-3.6558,-3.6543,-3.6576,0.0,0.0,0.0,0.0,0.0,0.0,0.0,0.0,-1.1001,-1.2192,-1.2859,-1.329,-1.3381,-1.3544,-1.3646,-1.3646,-1.4058,-1.4615,-1.5275,-1.5887,-1.6453,-1.7098,-1.7131,-1.7131,-1.7131,-1.7578,-1.7821,-1.7821,-1.8241,-1.8644,-1.9003,-1.9094,-1.9632,-2.0573,-2.0656,-2.1043,-2.1695,-2.1928,-2.2761,-2.3975,-2.4529,-2.5063,-2.5566,0.0,0.0,0.0,0.0,0.0,0.0,0.0,0.0,0.0,0.0,0.0,0.0,0.0,0.0,0.0,0.0,0.0,0.0,0.0,0.0,0.0,0.0,0.0,0.0,0.0,0.0,0.0,0.0,0.0,0.0,0.0,0.0,0.0,0.0,0.0,-3.2523,-3.287,-3.3203,-3.3581,-3.3924,-3.4126,-3.4529,-3.5247,-3.5131,-3.5362,-3.6092,-3.6131,-3.6195,-3.6301,-3.6464,-3.6602,-3.6702,-3.6748,-3.6748,-3.6702,-3.6602,-3.6582,-3.6582,-3.6582,-3.6647,-3.6771,-3.6869,-3.6768,-3.6564,-3.6643,-3.6544,-3.6305,-3.6225,-3.6427,-3.6673,-3.5986,-3.5793,-3.5755,0.0,0.0,0.0,0.0,0.0,0.0,0.0,-0.9836,-1.0304,-1.1506,-1.2704,-1.3564,-1.3817,-1.3847,-1.3888,-1.3882,-1.3411,-1.3448,-1.4332,-1.4153,-1.442,-1.5352,-1.5394,-1.5394,-1.5394,-1.6206,-1.6657,-1.6657,-1.7497,-1.8147,-1.8546,-1.8813,-1.8913,-1.8913,-1.9162,-1.9606,-2.0187,-2.0187,-2.076,-2.1794,-2.2846,-2.3254,-2.3401,0.0,0.0,0.0,0.0,0.0,0.0,0.0,0.0,0.0,0.0,0.0,0.0,0.0,0.0,0.0,0.0,0.0,0.0,0.0,0.0,0.0,0.0,0.0,0.0,0.0,0.0,0.0,0.0,0.0,0.0,0.0,0.0,0.0,-3.1951,-3.2287,-3.2523,-3.287,-3.2897,-3.3005,-3.3282,-3.3529,-3.3864,-3.4308,-3.4578,-3.5058,-3.5829,-3.5873,-3.6027,-3.6349,-3.6353,-3.6457,-3.6716,-3.644,-3.6423,-3.6664,-3.6423,-3.6301,-3.6301,-3.6301,-3.6301,-3.6322,-3.6564,-3.6544,-3.6322,-3.6582,-3.6523,-3.6232,-3.549,-3.5322,-3.5414,-3.4631,-3.4107,-3.3649,0.0,0.0,0.0,0.0,0.0,0.0,0.0,-0.8886,-0.9306,-1.0439,-1.1695,-1.2466,-1.2446,-1.3158,-1.355,-1.3357,-1.2887,-1.3028,-1.4034,-1.3919,-1.4252,-1.5352,-1.5394,-1.5394,-1.5394,-1.5636,-1.576,-1.576,-1.6008,-1.664,-1.766,-1.7054,-1.7697,-1.9296,-1.8735,-1.8902,-1.9539,-1.9539,-1.9648,-1.9923,-2.1555,-2.2274,-2.2376,0.0,0.0,0.0,0.0,0.0,0.0,0.0,0.0,0.0,0.0,0.0,0.0,0.0,0.0,0.0,0.0,0.0,0.0,0.0,0.0,0.0,0.0,0.0,0.0,0.0,0.0,0.0,0.0,0.0,0.0,0.0,0.0,-2.9673,-3.1246,-3.2005,-3.2523,-3.287,-3.2897,-3.3005,-3.3282,-3.3388,-3.385,-3.495,-3.5083,-3.5786,-3.7312,-3.7409,-3.7576,-3.7956,-3.7439,-3.7206,-3.7288,-3.6636,-3.6343,-3.6402,-3.6339,-3.6301,-3.6301,-3.6301,-3.6301,-3.6301,-3.6381,-3.6381,-3.6301,-3.6381,-3.6381,-3.6232,-3.549,-3.5322,-3.5344,-3.4022,-3.3121,-3.2564,0.0,0.0,0.0,0.0,0.0,0.0,0.0,-0.8237,-0.881,-0.9659,-1.075,-1.16,-1.2028,-1.251,-1.2903,-1.3101,-1.2651,-1.2656,-1.3288,-1.3203,-1.3499,-1.4258,-1.4258,-1.4258,-1.4258,-1.4636,-1.4803,-1.4803,-1.5228,-1.5781,-1.6473,-1.596,-1.6438,-1.7784,-1.7233,-1.7325,-1.7838,-1.8175,-1.8383,-1.8567,-2.0021,-2.0952,-2.1441,-2.1849,-2.2065,-2.2253,-2.2813,-2.2999,-2.3073,-2.372,0.0,0.0,0.0,0.0,0.0,0.0,0.0,0.0,0.0,0.0,0.0,0.0,0.0,0.0,0.0,0.0,0.0,0.0,0.0,0.0,0.0,0.0,0.0,0.0,-2.8481,-2.9125,-3.0043,-3.1188,-3.2196,-3.3008,-3.311,-3.3301,-3.3763,-3.4042,-3.4482,-3.5268,-3.558,-3.6252,-3.7442,-3.7483,-3.7677,-3.808,-3.7849,-3.754,-3.7215,-3.6943,-3.6628,-3.6301,-3.6301,-3.6301,-3.6301,-3.6301,-3.6301,0.0,-3.6301,-3.6301,-3.6301,-3.6301,-3.6301,0.0,0.0,0.0,0.0,0.0,-3.2347,-3.1983,0.0,0.0,0.0,0.0,0.0,0.0,0.0,-0.7797,-0.8496,-0.8942,-0.9844,-1.0779,-1.1749,-1.176,-1.1988,-1.2739,-1.2412,-1.2192,-1.2326,-1.2326,-1.2412,-1.2619,-1.2619,-1.2619,-1.2662,-1.3415,-1.3831,-1.3837,-1.4713,-1.5195,-1.5278,-1.5231,-1.5294,-1.5504,-1.5371,-1.5489,-1.5808,-1.6572,-1.7123,-1.7595,-1.8345,-1.9332,-2.0459,-2.1354,-2.1687,-2.1725,-2.1989,-2.2103,-2.2103,-2.2215,0.0,0.0,0.0,0.0,0.0,0.0,0.0,0.0,0.0,0.0,0.0,0.0,0.0,0.0,0.0,0.0,0.0,0.0,0.0,0.0,0.0,0.0,0.0,0.0,-2.8124,-2.8688,-2.8885,-3.0174,-3.1691,-3.3093,-3.3418,-3.3767,-3.4443,-3.4982,-3.5326,-3.5449,-3.5993,-3.6523,-3.696,0.0,0.0,0.0,0.0,-3.7746,-3.7074,-3.73,-3.7085,-3.6422,-3.6335,-3.6301,-3.6301,-3.6301,-3.6301,-3.6301,-3.6301,-3.6301,-3.6301,-3.6301,-3.6301,-3.6232,-3.549,-3.4752,-3.3941,-3.2493,-3.1939,0.0,0.0,0.0,0.0,0.0,0.0,0.0,0.0,-0.7272,-0.7517,-0.7883,-0.8678,-0.9242,-0.9291,-0.9967,-1.0568,-1.105,-1.0873,-1.1035,-1.178,-1.1995,-1.208,-1.2123,-1.2123,-1.2246,-1.2448,-1.2619,-1.2784,-1.2954,-1.3361,-1.3896,-1.4568,-1.4084,-1.463,-1.6024,-1.5228,-1.536,-1.6089,-1.6056,-1.6184,-1.64,-1.634,-1.7617,-1.9529,-1.9756,-1.9835,-1.9913,-2.0605,-2.0837,-2.0991,-2.1762,-2.2065,-2.2103,-2.2253,-2.2328,0.0,0.0,0.0,0.0,0.0,0.0,0.0,0.0,0.0,0.0,0.0,0.0,0.0,0.0,0.0,0.0,0.0,0.0,0.0,-2.7302,-2.7556,-2.8153,-2.9288,-3.0235,-3.1186,-3.2288,-3.3526,-3.4351,-3.4489,-3.4622,-3.4984,-3.5748,-3.6156,-3.689,-3.8106,-3.8417,0.0,-3.9166,-3.8673,-3.8478,-3.8642,-3.7523,-3.7062,-3.7271,0.0,0.0,-3.6301,-3.6301,-3.6301,-3.6301,-3.6301,-3.6301,-3.6301,-3.6301,-3.6301,-3.6232,-3.549,-3.4752,-3.4012,-3.3214,-3.283,-3.2629,0.0,0.0,0.0,0.0,0.0,0.0,0.0,-0.7095,-0.7179,-0.7455,-0.7869,-0.8299,-0.8654,-0.9125,-0.9571,-1.0072,-0.9802,-1.0028,-1.1079,-1.1165,-1.1386,-1.2,-1.2,-1.2037,-1.2203,-1.2203,-1.2246,-1.2332,-1.2726,-1.3159,-1.3586,-1.3521,-1.3999,-1.484,-1.4347,-1.4392,-1.4865,-1.5046,-1.5211,-1.5483,-1.5622,-1.647,-1.769,-1.8158,-1.8727,-1.9341,-1.9657,-1.9805,-2.0001,-2.0479,-2.0672,-2.0672,-2.0778,-2.0865,-2.0952,0.0,0.0,0.0,0.0,0.0,0.0,0.0,0.0,0.0,0.0,0.0,0.0,0.0,0.0,-2.606,-2.6611,0.0,-2.7079,-2.7268,-2.767,-2.8215,-2.8906,-3.0219,-3.1608,-3.2979,-3.4167,-3.5001,-3.5445,-3.5642,-3.5931,-3.6423,-3.6735,-3.7213,-3.7908,-3.827,-3.8551,-3.8739,-3.8751,-3.8676,-3.8514,-3.7564,-3.7106,-3.7153,-3.619,-3.5854,-3.6067,-3.6067,-3.6067,-3.6067,-3.6237,-3.6301,-3.6301,-3.6301,-3.6301,-3.6266,-3.5862,-3.526,-3.4562,-3.3883,-3.3327,-3.2871,0.0,0.0,0.0,0.0,0.0,0.0,0.0,0.0,-0.7149,-0.7353,-0.7346,-0.7605,-0.8351,-0.8415,-0.8605,-0.9157,-0.9017,-0.9283,-1.0154,-1.0028,-1.0381,-1.1295,-1.13,-1.1343,-1.1386,-1.1386,-1.1424,-1.1467,-1.1926,-1.2204,-1.221,-1.2728,-1.2963,-1.3015,-1.3245,-1.3313,-1.3294,-1.3945,-1.4324,-1.4512,-1.4958,-1.5357,-1.5764,-1.6478,-1.7545,-1.8647,-1.8665,-1.8785,-1.8975,-1.9143,-1.9192,-1.9183,-1.9231,-1.935,-1.9478,-1.9518,-1.9666,0.0,0.0,0.0,0.0,0.0,0.0,0.0,0.0,-2.189,-2.2761,-2.4011,-2.4826,-2.5594,-2.6474,-2.6896,-2.7178,-2.7348,-2.8018,-2.856,-2.8665,-3.0282,-3.202,-3.358,-3.4592,-3.5507,-3.6368,-3.6708,-3.6908,-3.6908,-3.718,-3.7314,-3.7314,-3.7623,-3.7799,-3.7799,-3.8455,-3.8537,-3.8027,-3.7676,-3.7274,-3.6821,-3.5823,-3.5427,-3.5611,-3.5611,-3.5611,-3.5616,-3.5837,-3.5929,-3.5946,-3.6071,-3.6135,-3.6135,-3.6187,-3.5868,-3.5297,-3.4556,-3.3867,-3.3335,0.0,0.0,0.0,0.0,0.0,0.0,0.0,0.0,0.0,-0.7353,-0.7251,-0.7128,-0.7177,-0.7117,-0.7204,-0.7709,-0.8452,-0.8846,-0.8759,-0.8719,-0.8763,-0.889,-0.889,-0.9021,-0.924,-0.924,-0.9318,-0.9518,-0.982,-1.0008,-1.0131,-1.0669,-1.0972,-1.1152,-1.2266,-1.2681,-1.2469,-1.3249,-1.3467,-1.3273,-1.3108,-1.3662,-1.4566,-1.4413,-1.5191,-1.6462,-1.7302,-1.7602,-1.7723,-1.8523,-1.878,-1.8812,-1.8962,-1.9042,-1.9112,-1.9262,-1.9478,-1.9636,-1.9685,-1.999,-2.0303,-2.0342,-2.0459,-2.0828,0.0,-2.2161,-2.2872,-2.4564,-2.5123,-2.5558,-2.6383,-2.7075,-2.7535,-2.757,-2.8325,-2.9116,-2.9595,-3.0557,-3.1558,-3.2469,-3.4081,-3.5407,-3.6164,-3.6414,-3.6554,-3.6554,-3.6877,-3.703,-3.703,-3.7314,-3.7476,-3.7476,-3.7812,-3.8137,-3.8416,-3.8044,-3.7538,-3.6954,-3.6191,-3.5494,-3.4901,-3.4901,-3.4901,-3.4901,-3.4695,-3.4624,-3.4648,-3.5266,-3.5487,-3.5549,-3.6019,-3.6135,-3.6002,-3.5191,-3.4926,-3.4835,0.0,0.0,0.0,0.0,0.0,0.0,0.0,0.0,0.0,0.0,-0.7136,-0.7078,-0.7052,-0.6917,-0.6881,-0.7054,-0.7183,-0.7445,-0.7885,-0.7753,-0.7929,-0.8456,-0.85,-0.8544,-0.8675,-0.8675,-0.8711,-0.879,-0.9201,-0.947,-0.9503,-1.0019,-1.0345,-1.0612,-1.1132,-1.1646,-1.2202,-1.2383,-1.2717,-1.3097,-1.2819,-1.2997,-1.3408,-1.3288,-1.3578,-1.428,-1.5861,-1.6854,0.0,-1.7821,-1.8282,-1.87,-1.8812,-1.873,-1.8704,-1.9049,-1.9106,-1.9173,-1.965,-2.0029,-2.0342,-2.045,-2.0527,-2.0722,-2.1252,-2.1443,-2.2031,-2.3938,-2.4373,-2.485,-2.6233,-2.7104,-2.7589,-2.7589,-2.8649,-2.9546,-2.9779,-3.0532,-3.1359,-3.2119,-3.301,-3.4047,-3.5417,-3.6038,-3.6383,-3.6492,-3.6616,-3.6724,-3.6724,-3.7014,-3.7165,-3.7165,-3.7447,-3.7695,-3.7854,-3.7295,-3.6793,-3.6342,-3.5408,-3.4723,-3.4219,-3.4219,-3.435,-3.4552,-3.4455,-3.4406,-3.4431,-3.4712,-3.483,-3.4854,-3.5322,-3.5543,-3.5627,-3.5681,-3.5435,-3.5046,0.0,0.0,0.0,0.0,0.0,0.0,0.0,0.0,0.0,0.0,-0.7095,-0.7095,-0.7095,-0.6966,-0.6881,-0.6795,-0.6438,-0.6435,-0.7092,-0.6877,-0.701,-0.7709,-0.7709,-0.7709,-0.7709,-0.7709,-0.7709,-0.7709,-0.8135,-0.8305,-0.8351,-0.8792,-0.9103,-0.9334,-0.9751,-1.037,-1.1091,-1.1249,-1.1822,-1.2595,-1.2396,-1.2491,-1.2705,-1.2705,-1.2705,-1.2912,-1.4622,-1.5726,-1.6434,-1.6677,-1.7104,-1.7635,-1.7952,-1.7917,-1.7961,-1.8713,-1.89,-1.9012,-1.9621,-1.999,-2.0225,-2.045,-2.0566,-2.0644,-2.078,-2.0867,-2.1339,-2.2973,-2.3514,-2.4181,-2.5804,-2.6959,-2.7662,-2.7746,-2.895,-2.9902,-2.9977,-3.0525,-3.1123,-3.175,-3.2087,-3.2847,-3.4216,-3.5255,-3.6006,-3.6383,-3.6414,-3.6445,-3.6492,-3.6724,-3.6847,-3.6847,-3.715,-3.7284,-3.7284,-3.6884,-3.6318,-3.5605,-3.4841,-3.413,-3.3543,-3.3543,-3.3707,-3.3995,-3.3903,-3.3836,-3.3862,-3.4062,-3.4137,-3.4161,-3.4609,-3.4847,-3.4971,-3.5481,-3.5492,-3.5282,0.0,0.0,0.0,0.0,0.0,0.0,0.0,0.0,0.0,0.0,0.0,0.0,0.0,-0.7095,-0.701,-0.6836,-0.6567,-0.6299,-0.6171,-0.5908,-0.5733,-0.5777,-0.5777,-0.5777,-0.5777,-0.5777,-0.5777,-0.5777,-0.578,-0.5882,-0.5993,-0.6276,-0.6484,-0.6691,-0.8182,-0.874,-0.8582,-0.98,-1.075,-1.1338,-1.137,-1.1886,-1.2705,-1.2705,-1.2705,-1.2826,-1.3747,-1.3951,-1.3954,-1.4783,-1.4937,-1.4902,-1.601,-1.6383,-1.6678,-1.8251,-1.899,-1.9332,-1.9557,-1.9754,-1.9981,-2.0225,-2.0459,-2.0605,-2.0605,-2.078,-2.1118,-2.1886,-2.2813,-2.3818,-2.4862,-2.6553,-2.784,-2.8035,-2.9201,-3.0165,-3.0343,-3.0558,-3.0811,-3.1024,-3.1676,-3.2218,0.0,-3.3973,-3.5285,-3.6133,-3.6211,-3.6274,-3.6492,-3.6523,-3.6523,-3.6523,-3.6847,-3.6999,-3.6999,-3.7238,-3.656,-3.4922,-3.4906,-3.4204,-3.2924,-3.2924,-3.2924,-3.2924,-3.2605,-3.2465,-3.252,-3.3172,-3.3443,-3.3495,-3.4012,-3.4235,-3.4235,-3.426,-3.4995,-3.5963,0.0,0.0,0.0,0.0,0.0,0.0,0.0,0.0,0.0,0.0,0.0,0.0,0.0,0.0,0.0,0.0,-0.6346,-0.6257,-0.523,-0.5099,-0.4699,-0.3896,-0.3851,-0.3851,-0.3851,-0.3851,-0.3851,-0.3851,-0.3851,-0.3864,-0.389,-0.3982,-0.4492,-0.5337,-0.5831,-0.6886,-0.8311,-0.8709,-0.9463,-1.0361,-1.0361,-1.0928,-1.1757,-1.1757,-1.2143,-1.2747,0.0,-1.3368,-1.3743,-1.4062,-1.4327,-1.4686,-1.5227,-1.5787,-1.6623,-1.8233,-1.899,-1.9341,-1.9557,-1.9645,-1.9794,-2.0186,-2.0342,-2.0459,-2.0566,-2.0644,-2.0944,-2.1811,-2.2253,-2.2962,-2.4528,-2.5708,-2.6773,-2.7729,-2.8787,-2.9669,-3.0139,-3.0508,-3.0736,-3.0811,-3.1161,0.0,0.0,0.0,0.0,-3.5317,-3.5864,-3.607,-3.5784,-3.6211,-3.6352,-3.599,-3.6414,-3.6662,-3.6662,-3.6754,-3.6289,-3.5301,-3.4344,-3.3444,-3.2578,-3.2578,-3.2578,-3.2551,-3.2453,-3.2398,-3.2425,-3.2641,-3.2749,-3.2788,-3.3339,-3.3547,-3.3598,-3.3944,-3.4317,-3.4681,0.0,0.0,0.0,0.0,0.0,0.0,0.0,0.0,0.0,0.0,0.0,0.0,0.0,0.0,0.0,0.0,0.0,-0.5272,-0.438,-0.416,-0.3714,-0.2913,-0.2911,-0.2911,-0.2911,-0.2911,-0.2911,-0.2911,-0.2911,-0.2911,-0.2911,-0.2911,-0.3312,-0.4071,-0.4516,-0.5575,-0.7075,-0.7522,-0.836,-0.9405,-0.9405,-0.9971,-1.0842,-1.1149,-1.1666,0.0,-1.2571,-1.2908,-1.3199,-1.3101,-1.3306,-1.3666,-1.4168,-1.5204,-1.65,-1.7846,-1.8512,-1.8971,-1.9654,-1.9811,-1.9968,-2.0568,-2.0611,-2.0574,-2.0771,-2.0684,-2.0789,-2.1375,-2.1745,-2.2301,-2.3526,-2.4815,-2.6019,-2.6932,-2.8051,-2.9037,-2.9694,-2.9998,-3.0314,-3.0672,-3.0811,-3.1123,0.0,0.0,0.0,-3.4361,-3.4927,-3.5124,-3.4813,-3.54,-3.5576,-3.5204,-3.5672,-3.5926,-3.5926,-3.6116,-3.586,-3.5136,-3.3952,-3.3044,-3.2398,-3.2398,-3.2398,-3.2398,-3.2398,-3.2398,-3.2398,-3.2398,-3.2398,-3.2437,-3.2761,-3.2895,-3.2895,-3.3277,-3.3527,-3.3691,0.0,0.0,0.0,0.0,0.0,0.0,0.0,0.0,0.0,0.0,0.0,0.0,0.0,0.0,0.0,0.0,0.0,0.0,-0.3534,-0.3089,-0.2822,-0.2732,-0.2732,-0.2732,-0.2732,-0.2732,-0.2732,-0.2732,-0.2732,-0.2732,-0.2732,-0.2732,-0.2778,-0.2911,-0.4026,-0.4734,-0.5087,-0.6254,-0.7404,-0.8412,-0.8412,-0.8973,-0.9923,-1.0885,-1.1278,-1.1408,-1.2357,-1.2548,-1.2294,-1.2029,-1.1888,-1.201,-1.3064,-1.4593,-1.623,-1.7162,-1.7684,-1.8325,-1.9797,-2.0201,-2.0385,-2.1263,-2.1144,-2.0918,-2.116,-2.0889,-2.0605,-2.0605,-2.1203,-2.1794,-2.1962,-2.3821,-2.5436,-2.5742,-2.7042,-2.8322,-2.9099,-2.9238,-2.9604,-3.0558,-3.0698,-3.0773,-3.0986,0.0,0.0,-3.3297,0.0,-3.3526,-3.3636,-3.4027,-3.4279,-3.4245,-3.4629,-3.4843,-3.4876,-3.5382,-3.5244,-3.4401,-3.371,-3.3018,-3.237,-3.237,-3.237,-3.2398,-3.2398,-3.2398,-3.2398,-3.2398,-3.2398,-3.2398,-3.237,-3.2287,-3.2219,-3.2342,-3.2614,-3.3039,0.0,0.0,0.0,0.0,0.0,0.0,0.0,0.0,0.0,0.0,0.0,0.0,0.0,0.0,0.0,0.0,0.0,0.0,-0.2551,-0.2372,-0.1836,-0.0763,-0.0718,-0.0718,-0.0718,-0.0718,-0.0718,-0.0718,-0.0718,-0.0718,-0.0718,-0.0718,-0.1211,-0.2104,-0.2416,-0.3575,-0.5314,-0.5628,-0.6425,-0.7445,-0.7445,-0.8013,-0.8973,-0.9884,-1.0712,-1.1408,-1.2357,-1.279,-1.2819,-1.2348,-1.2283,-1.2614,-1.3917,-1.4732,-1.5551,-1.7336,-1.792,-1.8285,-1.9602,-1.9966,-2.014,-2.0787,-2.0673,-2.0495,-2.0878,-2.0661,-2.042,-2.0566,-2.075,-2.1088,-2.1718,-2.2596,-2.3728,-2.5327,-2.6502,-2.7618,-2.88,-2.9467,-3.0025,-3.0432,-3.0609,-3.0773,-3.0986,-3.1161,0.0,0.0,-3.2804,-3.3332,-3.296,-3.3526,-3.3671,-3.3269,-3.3754,-3.4163,-3.4447,-3.4876,-3.4532,-3.3393,-3.3183,-3.2691,-3.1866,-3.1781,-3.1964,-3.2398,-3.2287,-3.233,-3.2398,-3.2287,-3.2247,-3.2247,-3.215,-3.2066,-3.2053,-3.2094,-3.2178,-3.2274,0.0,0.0,0.0,0.0,0.0,0.0,0.0,0.0,0.0,0.0,0.0,0.0,0.0,0.0,0.0,0.0,0.0,0.0,0.0,-0.1478,-0.0986,-0.0224,-0.0045,0.0,0.0,0.0,0.0,0.0,0.0,0.0,0.0,-0.0135,-0.0538,-0.1209,-0.1746,-0.2995,-0.4776,-0.5223,-0.6071,0.0,0.0,-0.7404,-0.8013,-0.9405,-1.0231,-1.0885,-1.2357,-1.3052,-1.3203,-1.2998,-1.2896,-1.3058,-1.3946,-1.437,-1.4914,-1.6838,-1.7423,-1.7833,-1.9687,-2.0149,-2.0324,-2.0964,-2.0862,-2.068,-2.0866,-2.0651,-2.045,-2.0566,-2.0605,-2.076,-2.1203,-2.1869,-2.2885,-2.4377,-2.5713,-2.7004,-2.8375,-2.9126,-2.9796,-3.033,-3.0482,-3.0685,-3.0986,-3.0986,-3.0986,0.0,-3.1859,-3.2245,-3.1982,-3.2484,-3.2648,-3.2354,-3.2755,-3.3199,-3.3685,-3.3666,-3.3266,-3.2506,-3.2261,-3.1698,-3.097,-3.0881,-3.1043,-3.1348,0.0,-3.145,-3.1779,-3.1694,-3.1838,-3.2094,-3.2025,-3.1968,-3.1912,-3.1968,-3.1968,-3.1912,0.0,0.0,0.0,0.0,0.0,0.0,0.0,0.0,0.0,0.0,0.0,0.0,0.0,0.0,0.0,0.0,0.0,0.0,0.0,0.0,-0.0493,-0.0448,-0.018,-0.0045,-0.0045,0.0,0.0,-0.0045,-0.0045,-0.0045,-0.009,-0.0314,-0.0448,-0.0538,-0.1568,-0.2772,-0.4018,-0.4868,-0.5983,-0.7095,-0.7095,-0.7095,-0.7316,0.0,-0.9966,-1.0226,-1.24,-1.3313,-1.3483,-1.3695,-1.3574,-1.3372,-1.3619,-1.3881,-1.4454,-1.6173,-1.6698,-1.7253,-1.9719,-2.0438,-2.0572,-2.1191,-2.1217,-2.103,-2.0895,-2.0711,-2.0566,-2.0605,-2.0605,-2.0605,-2.0605,-2.1461,-2.2462,-2.3231,-2.486,-2.6468,-2.7766,-2.8562,-2.9328,-3.0228,-3.0368,-3.0558,-3.0911,-3.0986,-3.0986,-3.0986,-3.0986,-3.0986,-3.0986,-3.1347,-3.1519,-3.1519,-3.185,-3.2259,-3.272,-3.2229,-3.189,-3.1673,-3.1094,-3.05,-2.9903,-2.9903,-2.9919,-3.0011,0.0,0.0,-3.0852,-3.0852,-3.1175,-3.171,-3.1682,-3.1611,-3.1496,-3.1625,-3.1611,-3.1496,0.0,0.0,0.0,0.0,0.0,0.0,0.0,0.0,0.0,0.0,-0.4996,-0.4245,0.0,0.0,0.0,0.0,0.0,0.0,0.0,0.0,0.0,-0.0673,-0.0448,-0.0314,-0.0314,-0.0135,-0.009,-0.0314,-0.0314,-0.0404,-0.0583,-0.0628,-0.0762,-0.0987,-0.1211,-0.2372,-0.4243,-0.4423,-0.5489,-0.7095,-0.7095,-0.7095,-0.7312,-0.9444,0.0,0.0,-1.2784,-1.361,-1.3695,-1.3955,-1.3837,-1.3665,-1.3924,-1.4048,-1.4454,-1.6173,-1.6698,-1.7196,-1.9397,-1.9994,-2.0127,-2.0563,-2.0527,-2.0417,-2.0626,-2.0483,-2.042,-2.0566,-2.0605,-2.0605,-2.0605,-2.0925,-2.1454,-2.2435,-2.4299,-2.5963,-2.6951,-2.8572,-2.9782,-3.0101,-3.0292,-3.0482,-3.0736,-3.0911,0.0,0.0,0.0,-3.0986,-3.0986,-3.1061,-3.1099,-3.1099,-3.1482,-3.1726,-3.1836,-3.1567,-3.1178,-3.0644,-3.0041,-2.9651,-2.9421,-2.9324,-2.9529,-2.9981,0.0,0.0,-3.0163,-3.0072,-3.0072,-3.0163,-2.9997,-2.9919,-2.9889,-2.995,-2.9919,-2.9889,0.0,0.0,0.0,0.0,0.0,0.0,0.0,-0.8683,-0.8642,-0.8301,-0.7866,-0.6807,-0.469,-0.4115,0.0,0.0,0.0,0.0,0.0,0.0,0.0,0.0,-0.0673,-0.0538,-0.0538,-0.0449,-0.0449,-0.0538,0.0,-0.0628,-0.0718,-0.0852,-0.0987,-0.1121,-0.1211,-0.2372,-0.4289,-0.4289,-0.5401,-0.7095,-0.7095,-0.7187,-0.754,0.0,0.0,0.0,-1.33,-1.3779,-1.3913,-1.4046,-1.3997,-1.3913,-1.4046,-1.4088,-1.4454,-1.6173,-1.6453,-1.6696,-1.9235,-1.9629,-1.9542,-2.0196,-2.0391,-2.0388,-2.0461,-2.0448,-2.0489,-2.0566,-2.0605,-2.0605,-2.0605,-2.078,-2.1195,-2.2048,-2.346,-2.4982,-2.6528,-2.7893,-2.9082,-2.9999,-3.0292,-3.0482,-3.0698,-3.0874,-3.0986,-3.0986,0.0,-3.0986,-3.0986,-3.0986,-3.0986,-3.0986,-3.1198,-3.1127,-3.0824,-3.0459,-2.9966,-2.9331,-2.8758,-2.8418,-2.8352,-2.8314,-2.843,-2.8712,-2.8648,0.0,-2.9219,-2.9156,-2.9331,-2.9628,-2.9535,-2.9504,-2.9504,-2.9504,-2.9504,-2.9473,0.0,0.0,0.0,0.0,0.0,0.0,0.0,-0.98,-0.9864,-1.0029,-1.0058,-0.9061,-0.6363,-0.5309,-0.4692,0.0,0.0,0.0,0.0,0.0,0.0,0.0,0.0,0.0,-0.0807,0.0,0.0,-0.0807,-0.0807,0.0,0.0,0.0,0.0,0.0,-0.1569,-0.2685,-0.4334,-0.4556,-0.5669,0.0,0.0,-0.7411,0.0,0.0,0.0,0.0,0.0,-1.3913,-1.4088,-1.4088,-1.4088,-1.4088,-1.4088,-1.4124,-1.4454,-1.6049,-1.6131,-1.6358,-1.8924,-1.9249,-1.9067,-1.994,-2.0353,-2.0469,-2.0341,-2.0459,-2.0605,-2.0605,-2.0605,-2.0605,-2.0605,-2.0731,-2.1041,-2.168,-2.2705,-2.4018,-2.5687,-2.7007,-2.825,-2.9439,-3.0024,-3.0406,-3.0546,-3.0761,0.0,0.0,0.0,0.0,-3.0986,-3.0986,-3.0986,-3.0986,-3.0869,-3.0594,-3.01,-2.9431,-2.8878,-2.8407,-2.7798,-2.749,-2.749,-2.749,-2.749,-2.749,-2.749,0.0,0.0,-2.8287,-2.8597,-2.9048,-2.9079,-2.9048,-2.9048,-2.9048,-2.9048,-2.9016,0.0,0.0,0.0,0.0,0.0,0.0,0.0,-1.0375,-1.0464,-1.0275,-1.0263,-1.0079,-0.9575,-0.85,-0.7177,0.0,0.0,0.0,0.0,0.0,0.0,0.0,0.0,0.0,0.0,0.0,0.0,-0.1076,-0.1076,0.0,0.0,0.0,0.0,0.0,0.0,-0.3357,-0.4376,-0.5489,0.0,0.0,0.0,0.0,0.0,0.0,0.0,0.0,0.0,-1.4088,-1.4088,-1.4088,-1.4088,-1.4088,-1.4088,-1.4243,-1.4566,-1.5526,-1.5933,-1.6468,-1.8299,-1.8758,-1.8909,-1.9722,-2.0126,-2.0312,-2.0313,-2.0459,-2.0605,-2.0605,-2.0605,-2.0605,-2.0605,-2.0605,-2.0722,-2.0974,-2.2237,-2.3371,-2.3722,-2.612,-2.7835,-2.7999,-2.9274,-3.0113,-3.0152,-3.033,-3.052,0.0,0.0,0.0,-3.0986,-3.0986,-3.0986,-3.0986,-3.049,-3.0153,-3.01,-2.9026,-2.8472,-2.8407,-2.7798,-2.749,-2.749,-2.749,-2.749,-2.749,0.0,0.0,0.0,-2.759,-2.7556,-2.7523,-2.7656,-2.7623,-2.749,-2.749,-2.749,-2.7456,0.0,0.0,0.0,0.0,0.0,0.0,-1.0656,-1.0644,-1.0683,-1.0892,-1.0815,-1.0652,-1.0399,-0.9941,-0.8978,0.0,0.0,0.0,0.0,0.0,0.0,0.0,0.0,0.0,0.0,0.0,-0.148,-0.13,-0.13,0.0,0.0,0.0,0.0,0.0,0.0,-0.4556,-0.5617,-0.6062,0.0,0.0,0.0,0.0,0.0,0.0,0.0,0.0,0.0,0.0,-1.4088,-1.4088,-1.4088,-1.4088,-1.4088,-1.4243,-1.4559,-1.5443,-1.5484,-1.5643,-1.7432,-1.8014,-1.8296,-1.9173,-1.9814,-2.0342,-2.045,-2.0527,-2.0605,-2.0605,-2.0605,-2.0605,-2.0605,-2.0605,-2.0644,-2.0693,-2.1336,-2.2188,-2.3163,-2.4637,-2.597,-2.6921,-2.7929,-2.853,0.0,0.0,-2.8848,0.0,0.0,0.0,-2.9084,-2.9909,-3.0277,-3.0005,-2.9712,-2.9263,-2.8582,-2.8482,-2.8203,-2.7863,-2.7304,-2.7019,-2.6985,-2.6436,-2.6471,-2.6985,0.0,0.0,0.0,-2.7235,-2.718,-2.7113,-2.718,-2.718,-2.7113,-2.7113,-2.7113,-2.7079,0.0,0.0,0.0,0.0,0.0,-1.0802,-1.0764,-1.0644,-1.0712,-1.105,-1.1002,-1.0925,-1.0734,-1.0639,-1.0154,-0.9026,0.0,0.0,0.0,0.0,0.0,0.0,0.0,0.0,0.0,0.0,-0.282,-0.2462,-0.2462,-0.2642,0.0,0.0,-0.3757,-0.4247,0.0,0.0,0.0,0.0,0.0,0.0,0.0,0.0,0.0,0.0,0.0,0.0,0.0,0.0,0.0,0.0,0.0,-1.4088,-1.4088,-1.4243,-1.4517,-1.5151,-1.5276,-1.556,-1.7066,-1.7804,-1.8376,-1.9244,-1.9932,-2.042,-2.0566,-2.0605,-2.0605,-2.0605,-2.0605,-2.0605,-2.0605,-2.0605,-2.0605,-2.0605,-2.078,-2.1306,-2.2433,-2.342,-2.443,-2.5559,-2.6472,-2.7041,0.0,-2.7532,0.0,0.0,0.0,0.0,0.0,-2.8427,-2.8805,-2.8649,-2.8413,-2.7912,-2.7172,-2.7265,-2.716,-2.6858,-2.6333,-2.6092,-2.6092,-2.5428,-2.5475,-2.6092,0.0,0.0,0.0,-2.638,-2.6289,-2.622,-2.6289,-2.6289,-2.6255,-2.6508,-2.6589,-2.6543,0.0,0.0,0.0,0.0,0.0,0.0,-1.0519,-1.0519,-1.054,-1.0617,-1.0777,-1.0933,-1.1003,-1.0761,-1.0593,-1.0593,0.0,0.0,0.0,0.0,0.0,0.0,0.0,0.0,0.0,0.0,-0.4952,-0.4952,-0.4952,-0.4952,-0.4952,-0.4996,-0.4996,-0.5043,0.0,0.0,0.0,0.0,0.0,0.0,0.0,0.0,0.0,0.0,0.0,0.0,0.0,0.0,0.0,0.0,0.0,0.0,0.0,-1.4243,-1.4398,-1.4398,-1.5352,-1.6591,-1.7464,-1.8479,-1.9499,-2.0372,-2.0605,-2.0605,-2.0605,-2.0605,-2.0605,-2.0605,-2.0605,-2.0605,-2.0605,-2.0605,-2.0605,-2.0605,-2.078,-2.0984,-2.1177,-2.2555,-2.3602,-2.3793,-2.5004,-2.5981,-2.6461,-2.7105,0.0,0.0,0.0,0.0,0.0,-2.6617,-2.6449,-2.7093,-2.6487,-2.613,-2.6118,-2.5182,-2.4933,-2.5334,-2.4921,-2.4732,-2.4732,-2.4696,-2.4696,0.0,0.0,0.0,0.0,-2.4732,-2.4612,-2.4445,-2.4636,-2.4612,-2.4516,-2.5311,-2.5592,-2.5674,0.0,0.0,0.0,0.0,0.0,0.0,0.0,-1.0775,-1.0825,-1.1225,-1.1232,-1.1321,-1.166,-1.1472,-1.1343,-1.1343,0.0,0.0,0.0,0.0,0.0,0.0,0.0,0.0,0.0,0.0,-0.5307,-0.4999,-0.4999,-0.5176,-0.5484,-0.5794,-0.6239,-0.6732,-0.7349,-0.7753,0.0,0.0,0.0,0.0,0.0,0.0,0.0,0.0,0.0,0.0,0.0,0.0,0.0,0.0,0.0,0.0,0.0,0.0,0.0,-1.4566,-1.4901,-1.5477,-1.6501,-1.7472,-1.8439,-1.945,-2.0167,-2.0605,-2.0605,-2.0605,-2.0605,-2.0605,-2.0605,-2.0605,-2.0605,-2.0605,-2.0605,-2.0605,-2.0644,-2.078,-2.0984,-2.1812,-2.2594,-2.3104,-2.4193,-2.4973,0.0,0.0,0.0,0.0,0.0,0.0,0.0,-2.4711,-2.4957,-2.5915,-2.5385,-2.4902,-2.452,-2.4635,-2.4767,-2.4886,-2.4349,-2.4097,-2.4061,-2.3427,0.0,0.0,0.0,0.0,0.0,-2.4361,-2.4253,-2.4192,-2.4253,-2.4253,-2.4217,-2.4325,-2.4361,-2.4361,0.0,0.0,0.0,0.0,0.0,0.0,0.0,-1.1089,-1.1165,-1.1417,-1.1427,-1.1519,-1.1849,-1.1858,-1.1785,-1.1699,0.0,0.0,0.0,0.0,0.0,0.0,0.0,0.0,0.0,-0.7214,-0.6902,-0.6637,-0.6637,-0.677,-0.7078,-0.7518,-0.7834,-0.7937,-0.842,-0.86,0.0,0.0,0.0,0.0,0.0,0.0,-1.1127,0.0,0.0,0.0,0.0,0.0,0.0,0.0,0.0,0.0,0.0,0.0,0.0,0.0,-1.4692,-1.5151,-1.6542,-1.7594,-1.8559,-1.9529,-2.0216,-2.0605,-2.0605,-2.0605,-2.0605,-2.0605,-2.0605,-2.0605,-2.0605,-2.0605,-2.0605,-2.0605,-2.0605,-2.0693,-2.0974,-2.1369,-2.1907,-2.2673,-2.365,0.0,0.0,0.0,0.0,0.0,0.0,0.0,0.0,0.0,-2.363,-2.4304,-2.3946,-2.3612,-2.329,-2.3489,-2.3672,-2.3818,-2.3316,-2.3069,-2.3032,-2.2429,0.0,0.0,0.0,0.0,0.0,-2.3217,-2.3106,-2.3095,-2.3032,-2.3032,-2.3021,-2.3206,-2.3268,-2.3268,0.0,0.0,0.0,0.0,0.0,0.0,0.0,0.0,-1.1581,-1.1412,-1.1639,-1.1815,-1.191,-1.2089,-1.2123,-1.1871,0.0,0.0,0.0,0.0,0.0,0.0,0.0,0.0,0.0,-0.9345,-0.9349,-0.9349,-0.9349,-0.9349,-0.9345,-0.9781,-0.9519,-0.87,-0.9174,-0.9087,0.0,0.0,0.0,0.0,0.0,0.0,0.0,0.0,0.0,0.0,0.0,0.0,0.0,0.0,0.0,0.0,0.0,0.0,0.0,0.0,0.0,0.0,0.0,-1.8359,-1.9301,-2.0206,-2.044,-2.0527,-2.0527,-2.0566,0.0,-2.0605,-2.0605,-2.0605,-2.0605,-2.0605,-2.0605,-2.0605,-2.0605,-2.0741,-2.1168,-2.1286,-2.1651,0.0,-2.3329,0.0,0.0,0.0,0.0,0.0,0.0,0.0,0.0,0.0,-2.248,-2.2449,-2.237,-2.2365,-2.2365,-2.1997,-2.1987,-2.2365,-2.1997,-2.1807,-2.1807,-2.1807,0.0,0.0,0.0,0.0,0.0,-2.1578,-2.1512,-2.1474,-2.1282,-2.1205,-2.1282,-2.2031,-2.2285,-2.236,0.0,0.0,0.0,0.0,0.0,0.0,0.0,0.0,0.0,0.0,-1.3522,-1.3829,-1.4054,-1.4193,-1.3999,0.0,0.0,0.0,0.0,0.0,0.0,0.0,0.0,0.0,0.0,-0.999,-0.9825,-0.9825,-0.9825,-0.9825,-0.9825,-0.9951,-0.9864,-0.9694,-0.9777,-0.9777,0.0,0.0,0.0,0.0,0.0,0.0,0.0,0.0,0.0,0.0,-1.5103,-1.5136,0.0,0.0,0.0,0.0,0.0,0.0,0.0,0.0,-1.5124,-1.5374,-1.6617,0.0,-1.7318,-1.8359,-1.9125,-1.9618,0.0,-2.0128,-2.0605,-2.0605,-2.0605,-2.0605,-2.0605,-2.0605,-2.0605,-2.0605,-2.0605,-2.0791,-2.1411,-2.208,-2.2624,-2.2968,-2.3361,-2.3606,0.0,0.0,0.0,0.0,0.0,0.0,0.0,0.0,-2.2335,-2.1983,-2.1935,-2.1959,-2.1959,-2.1845,-2.1845,-2.1959,-2.1845,-2.1807,-2.1807,-2.1655,0.0,0.0,0.0,0.0,-2.1589,-2.1512,-2.1397,-2.1282,-2.1205,-2.1205,-2.1205,-2.1244,-2.1233,-2.1233,0.0,0.0,0.0,0.0,0.0,0.0,0.0,0.0,0.0,0.0,0.0,0.0,0.0,0.0,0.0,0.0,0.0,0.0,0.0,0.0,0.0,0.0,0.0,-1.0749,-1.0587,-1.0381,-1.0294,-1.0294,-1.0294,-1.0294,-1.0294,-1.0516,-1.0386,-0.9994,-0.9994,-1.0081,0.0,0.0,0.0,0.0,-1.2703,0.0,0.0,0.0,0.0,0.0,-1.552,-1.5545,0.0,-1.5432,-1.5305,-1.5215,0.0,0.0,0.0,0.0,-1.5257,-1.5382,-1.594,-1.6304,-1.6788,-1.7755,-1.8647,-1.9301,-1.9301,-1.9971,-2.0605,-2.0605,-2.0605,-2.0605,-2.0605,-2.0284,-2.0195,-2.0761,-2.0543,-2.0638,-2.1728,-2.2372,-2.2859,-2.3145,-2.3296,0.0,0.0,0.0,0.0,0.0,0.0,0.0,0.0,0.0,-2.1806,-2.1512,-2.1617,-2.1693,-2.1807,-2.1807,-2.1769,-2.1655,-2.1655,-2.1617,-2.1512,-2.1397,0.0,0.0,0.0,0.0,-2.1359,-2.1244,-2.1177,-2.1051,-2.0974,-2.0925,-2.0886,-2.0702,-2.0664,-2.0741,0.0,0.0,0.0,0.0,0.0,0.0,0.0,0.0,0.0,0.0,0.0,0.0,0.0,0.0,0.0,0.0,0.0,0.0,0.0,0.0,0.0,0.0,0.0,-1.12,-1.0967,-1.1004,-1.1025,-1.1025,-1.1025,-1.1025,-1.1025,-1.1338,-1.1084,-1.0381,-1.0381,-1.0598,0.0,0.0,0.0,0.0,-1.3459,0.0,0.0,0.0,0.0,0.0,0.0,0.0,0.0,-1.5669,-1.5482,-1.534,-1.5173,0.0,0.0,0.0,0.0,0.0,-1.5389,-1.5948,-1.6665,-1.7432,-1.8247,-1.8895,-1.8895,-1.9687,-2.0411,-2.0411,-2.0527,-2.0566,-2.045,-1.9893,-1.9837,-2.0832,-2.0498,-2.0572,-2.1904,-2.2193,-2.2489,-2.3046,-2.2994,0.0,0.0,0.0,0.0,0.0,0.0,0.0,0.0,0.0,0.0,-2.1205,-2.1359,-2.155,-2.1693,-2.1731,-2.1655,-2.1464,-2.1464,-2.1359,-2.1205,-2.1167,-2.1167,0.0,0.0,0.0,-2.0925,-2.078,-2.0625,-2.042,-2.0245,-2.0157,-2.0118,-1.9932,-1.9971,-2.004,0.0,0.0,0.0,0.0,0.0,0.0,0.0,0.0,0.0,0.0,0.0,0.0,0.0,0.0,0.0,0.0,0.0,0.0,0.0,0.0,0.0,-1.1936,-1.2348,-1.2579,-1.2533,-1.2843,-1.296,-1.296,-1.296,-1.296,-1.2966,-1.2454,-1.2149,-1.202,-1.202,-1.2272,-1.2656,0.0,0.0,0.0,0.0,0.0,0.0,0.0,0.0,0.0,0.0,0.0,0.0,-1.5669,-1.5397,-1.5173,-1.5305,0.0,0.0,0.0,0.0,0.0,-1.5389,-1.5506,-1.5631,-1.5748,-1.6468,-1.7107,-1.7107,-1.8359,-1.9499,-1.9499,-2.0089,-2.0362,-1.9657,-1.9971,-2.034,-2.0108,-2.0717,-2.1234,0.0,0.0,-2.1658,-2.249,0.0,0.0,0.0,0.0,0.0,0.0,0.0,0.0,0.0,0.0,0.0,-2.1205,-2.1244,-2.1244,-2.1282,-2.1474,-2.1436,-2.1244,-2.1244,-2.1244,-2.1205,-2.1022,-2.1022,0.0,0.0,-2.0537,-1.9844,-1.9805,-1.9244,-1.8439,-1.823,-1.8141,-1.8101,-1.7868,-1.7779,-1.7779,0.0,0.0,0.0,0.0,0.0,0.0,0.0,0.0,0.0,0.0,0.0,0.0,0.0,0.0,0.0,0.0,0.0,0.0,0.0,0.0,0.0,-1.3413,-1.3761,-1.3627,-1.2931,-1.3252,-1.3398,-1.3398,-1.3398,-1.3398,-1.3392,-1.3094,-1.2924,-1.2924,-1.279,-1.3045,-1.3591,-1.3688,0.0,0.0,0.0,0.0,0.0,0.0,0.0,0.0,0.0,0.0,0.0,0.0,-1.5397,-1.5131,-1.5347,0.0,0.0,0.0,0.0,0.0,-1.5389,-1.5389,-1.5389,-1.5389,-1.6064,-1.6698,-1.6698,-1.7674,-1.8607,-1.8607,-1.8926,-1.9085,-1.8687,-1.8686,-1.8815,-1.9025,-2.0018,-2.074,-2.074,-2.0345,-2.0431,0.0,0.0,0.0,0.0,0.0,0.0,0.0,0.0,0.0,0.0,0.0,0.0,0.0,-1.959,-1.959,-1.9481,-1.9668,-1.9952,-2.0323,-1.9874,-1.959,-1.9481,-1.9371,-1.9362,-1.9481,0.0,-1.9125,-1.8758,-1.8758,-1.8439,-1.7997,-1.7779,-1.7698,-1.7658,-1.7415,-1.718,-1.6976,0.0,0.0,0.0,0.0,0.0,0.0,0.0,0.0,0.0,0.0,0.0,0.0,0.0,0.0,0.0,0.0,0.0,0.0,0.0,0.0,-1.4844,-1.4511,-1.4772,-1.4407,-1.3382,-1.3712,-1.3864,-1.3864,-1.3864,-1.3773,-1.3646,-1.3646,-1.3646,-1.3646,-1.3428,-1.3717,-1.4314,-1.411,-1.4279,0.0,0.0,0.0,0.0,0.0,0.0,0.0,0.0,0.0,0.0,0.0,0.0,0.0,0.0,0.0,0.0,-1.5389,-1.5389,-1.5389,-1.5389,-1.5389,-1.5389,-1.5389,-1.5906,-1.6419,-1.6419,-1.7066,-1.7715,-1.7715,-1.7876,-1.7957,-1.7715,-1.7506,-1.7517,-1.8057,-1.9126,-1.9844,-1.9751,-1.9188,0.0,0.0,0.0,0.0,0.0,0.0,0.0,0.0,0.0,0.0,0.0,0.0,-1.7997,0.0,-1.8149,-1.8149,-1.7997,-1.794,-1.835,-1.9244,-1.855,-1.8149,-1.7997,-1.7997,-1.7997,-1.7997,-1.7997,-1.7876,-1.7715,-1.7715,-1.7553,-1.731,-1.709,-1.6927,-1.6846,-1.665,-1.637,-1.6083,0.0,0.0,0.0,0.0,0.0,0.0,0.0,0.0,0.0,0.0,0.0,0.0,0.0,0.0,0.0,0.0,0.0,0.0,0.0,0.0,-1.4779,-1.4518,-1.4772,-1.486,-1.4779,-1.5097,-1.5264,-1.5264,-1.5264,-1.4957,-1.4314,-1.4314,-1.4314,-1.4314,-1.4307,-1.4573,-1.5048,-1.5006,-1.4873,-1.4699,0.0,0.0,0.0,0.0,0.0,0.0,0.0,0.0,0.0,0.0,0.0,0.0,0.0,0.0,-1.5389,-1.5389,-1.5389,-1.5389,-1.5389,-1.5389,-1.5389,-1.5389,-1.5465,-1.5506,-1.5506,-1.6188,-1.678,-1.678,-1.7432,-1.7755,-1.6944,-1.7331,-1.7759,-1.7735,-1.8396,-1.8814,-1.8478,0.0,0.0,0.0,0.0,0.0,0.0,0.0,0.0,0.0,0.0,0.0,0.0,0.0,0.0,0.0,0.0,-1.7997,-1.7997,-1.722,-1.7261,-1.8118,-1.8037,-1.7997,-1.7997,-1.7997,-1.7997,-1.7997,-1.7997,-1.7553,-1.678,-1.678,-1.6214,-1.5291,-1.5026,-1.4699,-1.4377,-1.4334,-1.4292,-1.425,0.0,0.0,0.0,0.0,0.0,0.0,0.0,0.0,0.0,0.0,0.0,0.0,0.0,0.0,0.0,0.0,0.0,0.0,0.0,-1.6329,-1.5598,-1.5519,-1.5305,-1.5206,-1.5206,-1.5323,-1.5389,-1.5389,-1.5389,-1.5257,-1.5041,-1.5041,-1.5041,-1.4999,-1.4873,-1.4999,-1.5257,-1.5131,-1.5131,-1.5146,-1.5347,0.0,0.0,0.0,0.0,0.0,0.0,0.0,0.0,0.0,-1.4915,-1.4908,-1.5131,-1.5082,-1.4999,-1.5173,-1.5215,-1.5257,-1.5389,-1.5389,-1.5389,-1.5389,-1.5389,-1.5389,-1.5389,-1.5665,-1.5906,-1.5906,-1.6147,-1.6402,-1.6521,-1.6925,-1.7303,-1.7424,-1.7545,-1.7576,0.0,0.0,0.0,0.0,0.0,0.0,0.0,0.0,0.0,0.0,0.0,0.0,0.0,0.0,0.0,-1.6394,0.0,-1.6394,-1.6394,-1.6072,-1.6072,-1.6394,-1.6394,-1.6394,-1.6394,-1.6394,-1.6394,-1.6394,-1.6263,-1.6023,-1.5692,-1.5519,-1.5228,-1.4824,-1.4608,-1.4321,-1.4088,-1.4088,-1.3997,-1.3828,0.0,0.0,0.0,0.0,0.0,0.0,0.0,0.0,0.0,0.0,0.0,0.0,0.0,0.0,0.0,0.0,0.0,0.0,-1.8144,-1.6968,-1.6162,-1.588,-1.5555,-1.5389,-1.5389,-1.5389,-1.5389,-1.5389,-1.5389,-1.5389,-1.5389,-1.5389,-1.5389,-1.5389,-1.5264,-1.5257,-1.5389,-1.5257,-1.5257,-1.5411,-1.563,-1.574,0.0,0.0,0.0,0.0,0.0,0.0,0.0,0.0,-1.4783,-1.4734,-1.4915,-1.4866,-1.4734,-1.4915,-1.4957,-1.4999,-1.5131,-1.5166,-1.5215,-1.5257,-1.5305,-1.5305,-1.5389,-1.5389,-1.5389,-1.5389,-1.5389,-1.5549,-1.6126,-1.6448,-1.666,0.0,-1.6804,0.0,0.0,0.0,0.0,0.0,0.0,0.0,0.0,0.0,0.0,0.0,0.0,0.0,0.0,0.0,0.0,0.0,0.0,-1.5389,-1.5389,-1.5389,-1.5389,-1.5389,-1.5347,-1.5305,-1.5305,-1.5305,-1.5257,-1.5173,-1.5041,-1.4957,-1.4957,-1.4783,-1.465,-1.4566,-1.4272,-1.4068,-1.3955,-1.3955,-1.3822,-1.361,0.0,0.0,0.0,0.0,0.0,0.0,0.0,0.0,0.0,0.0,0.0,0.0,0.0,0.0,0.0,0.0,0.0,0.0,-1.7772,-1.7074,-1.6304,-1.5431,-1.5389,-1.5389,-1.5389,-1.5389,-1.5389,-1.5389,-1.5389,-1.5389,-1.5389,-1.5389,-1.5389,-1.5389,-1.5389,-1.5389,-1.5389,-1.5389,-1.5389,-1.5389,-1.5389,-1.5445,-1.5469,0.0,0.0,0.0,0.0,0.0,0.0,0.0,-1.4524,-1.4692,-1.4692,-1.4692,-1.4692,-1.4692,-1.4692,-1.4692,-1.4692,-1.4692,-1.4776,-1.5048,-1.509,-1.5131,-1.5347,-1.5389,-1.5389,-1.5389,-1.5389,-1.5491,-1.5812,-1.5921,-1.6016,-1.6316,-1.6153,0.0,0.0,0.0,0.0,0.0,0.0,0.0,0.0,0.0,0.0,0.0,0.0,0.0,0.0,0.0,0.0,0.0,0.0,0.0,-1.5389,-1.5389,-1.5389,-1.5389,-1.5173,-1.509,-1.509,-1.509,-1.4957,-1.4692,-1.4692,-1.4692,-1.4692,-1.4692,-1.4566,-1.4356,-1.3899,-1.3695,-1.3695,-1.3695,-1.3561,-1.3398,0.0,0.0,0.0,0.0,0.0,0.0,0.0,0.0,0.0,0.0,0.0,0.0,0.0,0.0,0.0,0.0,0.0,0.0,-1.8868,-1.7787,-1.6796,-1.5922,-1.559,-1.5389,-1.5389,-1.5389,-1.5389,-1.5389,-1.5389,-1.5389,-1.5389,-1.5389,-1.5305,-1.5215,-1.5347,-1.5305,-1.5215,-1.5347,-1.5389,-1.5411,-1.5679,-1.5517,-1.524,0.0,0.0,0.0,0.0,0.0,0.0,0.0,0.0,0.0,-1.4482,-1.4405,-1.4328,-1.444,-1.4482,-1.4524,-1.465,-1.4692,-1.4741,-1.4783,-1.4824,-1.4824,-1.4908,-1.5173,-1.5347,-1.5215,-1.5395,-1.549,-1.5411,-1.5603,0.0,-1.5873,0.0,0.0,0.0,0.0,0.0,0.0,0.0,0.0,0.0,0.0,0.0,0.0,0.0,0.0,0.0,0.0,0.0,0.0,0.0,0.0,-1.4908,-1.4908,-1.4908,-1.4908,-1.4866,-1.4915,-1.509,-1.4915,-1.4783,-1.4692,-1.4566,-1.4482,-1.4482,-1.4328,-1.4243,-1.4166,-1.3822,-1.3695,-1.3695,-1.3519,-1.3349,-1.3179,0.0,0.0,0.0,0.0,0.0,0.0,0.0,0.0,0.0,0.0,-2.2703,-2.2327,0.0,0.0,0.0,0.0,0.0,0.0,0.0,-1.8318,-1.7237,-1.6394,-1.5756,-1.5389,-1.5389,-1.5389,-1.5389,-1.5389,-1.5389,-1.5389,-1.5389,-1.5305,-1.5264,-1.5215,-1.5264,-1.5264,-1.5215,-1.5264,-1.5257,-1.532,-1.5516,-1.5388,-1.5111,0.0,0.0,0.0,0.0,0.0,0.0,0.0,0.0,0.0,-1.3288,-1.3082,-1.3088,-1.3591,-1.3717,-1.3851,-1.4321,-1.4454,-1.4489,-1.4566,-1.4566,-1.4608,-1.4692,-1.4908,-1.5082,-1.4957,-1.5106,-1.5234,-1.5225,-1.5259,0.0,0.0,0.0,0.0,0.0,0.0,0.0,0.0,0.0,0.0,0.0,0.0,0.0,0.0,0.0,0.0,0.0,0.0,0.0,0.0,0.0,0.0,-1.4692,-1.4692,-1.4692,-1.4692,-1.4258,-1.409,-1.4265,-1.4482,-1.4531,-1.4447,-1.4321,-1.4279,-1.4286,-1.4166,-1.3822,-1.3336,-1.313,-1.2741,-1.2345,-1.2217,-1.2003,-1.1832,0.0,0.0,0.0,0.0,0.0,0.0,0.0,0.0,0.0,0.0,-2.2327,-2.1845,0.0,0.0,0.0,0.0,0.0,0.0,0.0,0.0,-1.7674,-1.6739,-1.5865,-1.5389,-1.5389,-1.5389,-1.5389,-1.5389,-1.5389,-1.5389,-1.5389,-1.5173,-1.5173,-1.534,-1.5173,-1.5236,-1.5433,-1.5216,-1.5189,-1.5217,-1.5217,-1.5196,-1.5174,-1.53,0.0,0.0,0.0,0.0,0.0,0.0,0.0,0.0,-1.158,-1.1284,-1.1451,-1.2314,-1.2577,-1.2747,-1.361,-1.3828,-1.3906,-1.4055,-1.4139,-1.4181,-1.4349,-1.4482,-1.4566,-1.465,-1.465,-1.474,-1.5062,-1.4845,-1.4747,0.0,0.0,0.0,0.0,0.0,0.0,0.0,0.0,0.0,0.0,0.0,0.0,0.0,0.0,0.0,0.0,0.0,0.0,0.0,0.0,0.0,-1.4524,-1.4524,-1.4482,0.0,-1.336,-1.2845,-1.2887,-1.3837,-1.4153,-1.3962,-1.3962,-1.3913,-1.3828,-1.3828,-1.3167,-1.2157,-1.1918,-1.123,-1.0313,-1.0269,-1.0096,-0.9923,0.0,0.0,0.0,0.0,0.0,0.0,0.0,0.0,0.0,0.0,0.0,0.0,0.0,0.0,0.0,0.0,0.0,0.0,0.0,0.0,-1.8327,-1.678,-1.5865,-1.5389,-1.5389,-1.5389,-1.5305,-1.5173,-1.5173,-1.5173,-1.5173,-1.5131,-1.4999,-1.4866,-1.5048,-1.5268,-1.5547,-1.5505,-1.5727,-1.6119,-1.6119,-1.5893,-1.5462,-1.5326,-1.4951,0.0,0.0,0.0,0.0,0.0,0.0,0.0,-1.1365,-1.1284,-1.1327,-1.1542,-1.158,-1.1671,-1.1843,-1.1886,-1.1929,-1.1966,-1.196,-1.1966,-1.2009,-1.2607,-1.3379,-1.4265,-1.4482,-1.4419,-1.4331,-1.4291,0.0,0.0,0.0,0.0,0.0,0.0,0.0,0.0,0.0,0.0,0.0,0.0,0.0,0.0,0.0,0.0,0.0,0.0,0.0,-1.4208,0.0,-1.3864,-1.313,-1.313,-1.2741,0.0,-1.1794,-1.166,-1.1703,-1.265,-1.3045,-1.3003,-1.3003,-1.2571,-1.1886,-1.174,-1.152,-1.1257,-1.0832,-1.0529,-1.0269,-1.0053,-0.9966,-0.9923,0.0,0.0,0.0,0.0,0.0,0.0,0.0,0.0,0.0,0.0,0.0,0.0,0.0,0.0,0.0,0.0,0.0,0.0,0.0,0.0,-1.8638,-1.678,-1.5865,-1.5389,-1.5389,-1.5389,-1.5347,-1.5257,-1.4999,-1.4957,-1.509,-1.4957,-1.4915,-1.4915,-1.5071,-1.5319,-1.5619,-1.5632,-1.5877,-1.6197,-1.6197,-1.6059,-1.5784,-1.5646,-1.5365,-1.4922,-1.4178,0.0,0.0,0.0,0.0,0.0,0.0,0.0,-1.0077,-1.0506,-1.0636,-1.0722,-1.1192,-1.1284,-1.1284,-1.1284,-1.1284,-1.1284,-1.1284,-1.1671,-1.218,-1.2772,-1.3633,-1.4201,-1.413,-1.4088,0.0,0.0,0.0,0.0,0.0,0.0,0.0,0.0,0.0,0.0,0.0,0.0,0.0,0.0,0.0,0.0,0.0,-1.3264,-1.296,0.0,-1.3009,-1.2528,-1.2015,-1.2015,-1.18,-1.1278,-1.0852,-1.0587,-1.0539,-1.158,-1.1966,-1.1875,-1.2009,-1.1623,-1.0966,-1.1004,-1.0611,-0.9966,-0.971,-0.9274,-0.875,-0.8619,-0.8492,-0.8404,0.0,0.0,0.0,0.0,0.0,0.0,0.0,0.0,0.0,0.0,0.0,0.0,0.0,0.0,0.0,0.0,0.0,0.0,0.0,0.0,0.0,-1.6976,-1.5948,-1.5389,-1.5389,-1.5389,-1.5347,-1.5298,-1.4908,-1.4783,-1.4957,-1.4741,-1.4783,-1.5055,-1.5155,-1.5367,-1.5662,-1.5749,-1.5911,-1.6147,-1.6102,-1.6067,-1.6017,-1.5979,-1.5714,-1.5205,-1.4064,-1.3341,-1.2626,-1.085,0.0,0.0,0.0,0.0,-0.8781,-0.948,-0.9689,-0.9859,-1.0636,-1.0809,-1.0809,-1.0809,-1.0809,-1.0809,-1.0809,-1.0939,-1.1068,-1.1068,-1.24,-1.361,-1.361,0.0,0.0,0.0,0.0,0.0,0.0,0.0,0.0,0.0,0.0,0.0,0.0,0.0,0.0,0.0,0.0,0.0,-1.3568,-1.2143,-1.1671,-1.2448,-1.1709,-1.1235,-1.1068,-1.1068,-1.0982,-1.0809,-0.9985,-0.9506,-0.9323,-1.0284,-1.0712,-1.0702,-1.0885,-1.0621,-1.0139,-1.0313,-0.971,-0.8675,-0.8584,-0.7969,-0.7095,-0.7095,-0.6966,-0.6795,0.0,0.0,0.0,0.0,0.0,0.0,0.0,0.0,0.0,0.0,-2.2289,-2.1807,0.0,0.0,0.0,0.0,0.0,0.0,-2.0906,0.0,0.0,-1.7836,-1.627,-1.5389,-1.5389,-1.5389,-1.5215,-1.4776,-1.4734,-1.4608,-1.4482,-1.4482,-1.4566,-1.4748,-1.5063,-1.5487,-1.594,-1.6021,-1.6356,-1.685,-1.661,-1.6348,-1.6064,-1.5895,-1.5034,-1.3929,-1.3568,-1.2341,-1.0833,-1.0578,-0.9928,0.0,0.0,0.0,-0.8759,-0.8785,-0.8784,-0.8784,-0.8911,-0.8955,-0.8955,-0.8955,-0.8955,-0.8955,-0.8955,-0.9559,-1.0077,-1.0077,-1.0933,-1.1666,0.0,0.0,0.0,0.0,0.0,0.0,0.0,0.0,0.0,0.0,0.0,0.0,0.0,0.0,0.0,0.0,0.0,0.0,-1.1671,-1.1456,-1.1365,-1.1499,-1.137,-1.0895,-1.0072,-1.0077,-0.9685,-0.8955,-0.8596,-0.8332,-0.8113,-0.8292,-0.8763,-0.9449,-0.9449,-0.9021,-0.8245,-0.8028,-0.7852,-0.768,-0.7452,-0.7228,-0.7095,-0.7095,-0.6966,-0.6795,0.0,0.0,0.0,0.0,0.0,0.0,0.0,0.0,0.0,0.0,0.0,-2.1807,0.0,0.0,0.0,-2.1655,-2.1387,-2.0925,-2.0216,-1.8798,-1.7796,-1.731,-1.6072,-1.5389,-1.5389,-1.5389,-1.5257,-1.4908,-1.4783,-1.465,-1.4566,-1.4321,-1.4423,-1.4814,-1.5285,-1.5637,-1.5913,-1.6253,-1.6509,-1.6784,-1.6636,-1.6169,-1.5477,-1.5249,-1.4415,-1.3262,-1.2456,-1.1609,-1.0796,-1.0121,-0.9613,-0.9194,-0.8909,0.0,0.0,0.0,-0.8612,-0.8564,-0.8428,-0.8296,-0.8212,-0.8212,-0.8212,-0.8212,-0.8212,-0.8512,-0.8771,-0.8771,-0.9117,-0.9763,0.0,0.0,0.0,0.0,0.0,0.0,0.0,0.0,0.0,0.0,0.0,0.0,0.0,0.0,0.0,0.0,0.0,-1.0766,-1.1284,-1.0332,-0.9946,-1.0323,-0.985,-0.9371,-0.8942,-0.8942,-0.8767,-0.838,-0.7988,-0.7768,-0.768,-0.7499,-0.776,-0.8241,-0.8416,-0.8065,-0.7452,-0.7503,-0.7415,-0.7279,-0.7143,-0.7095,-0.7095,-0.6966,-0.6789,-0.6567,0.0,0.0,0.0,0.0,0.0,0.0,0.0,0.0,0.0,0.0,0.0,0.0,0.0,0.0,0.0,0.0,-2.154,-2.0876,-1.9608,-1.8559,-1.7594,-1.6739,-1.5865,-1.5389,-1.5389,-1.5347,-1.5215,-1.4999,-1.4741,-1.4608,-1.4531,-1.4325,-1.4441,-1.4963,-1.5389,-1.5666,-1.5846,-1.6322,-1.6494,-1.6447,-1.6157,-1.5527,-1.4752,-1.4291,-1.3456,-1.24,-1.1482,-1.0949,0.0,0.0,-0.9473,-0.936,-0.9003,-0.8889,0.0,0.0,0.0,-0.8388,-0.816,-0.7845,-0.7584,-0.7852,-0.7716,-0.7584,-0.7852,-0.79,-0.79,0.0,-0.79,0.0,0.0,0.0,0.0,0.0,0.0,0.0,0.0,0.0,0.0,0.0,0.0,0.0,0.0,0.0,0.0,0.0,0.0,-0.9859,-1.0501,-0.9253,-0.8688,-0.9148,-0.8504,-0.8113,-0.8113,-0.8113,-0.8069,-0.8025,-0.768,-0.7462,-0.737,-0.7187,-0.7187,-0.7415,-0.7588,-0.7452,-0.7095,-0.7323,-0.7279,-0.7095,-0.7095,-0.7051,-0.701,-0.6836,-0.6612,-0.6299,0.0,0.0,0.0,0.0,0.0,0.0,0.0,0.0,0.0,0.0,0.0,0.0,-2.1807,-2.1807,-2.1731,-2.154,-2.132,-2.0683,-1.9381,-1.8487,-1.7594,-1.6739,-1.5865,0.0,-1.5389,-1.5215,-1.4999,-1.4734,-1.4524,-1.4321,-1.4137,-1.4369,-1.4656,-1.4988,-1.5205,-1.5517,-1.58,-1.6094,-1.6224,-1.6123,-1.4921,-1.4394,-1.4214,-1.3048,-1.1968,-1.1029,-1.0939,0.0,0.0,0.0,0.0,0.0,0.0,-0.9084,-0.8965,0.0,0.0,0.0,-0.7896,-0.7221,-0.6729,-0.7672,-0.7177,-0.6729,-0.7672,-0.79,-0.79,-0.79,-0.79,0.0,0.0,0.0,0.0,0.0,0.0,0.0,0.0,0.0,0.0,0.0,0.0,0.0,0.0,0.0,0.0,0.0,0.0,-0.856,-0.8372,-0.8285,-0.8157,-0.7984,-0.7944,-0.7896,-0.7896,-0.7896,-0.7768,-0.7551,-0.7507,-0.737,-0.7139,-0.7095,-0.7095,-0.7139,-0.7143,-0.7139,-0.7095,-0.7095,-0.7095,-0.7095,-0.7095,-0.6966,-0.6795,-0.6795,-0.6526,-0.6127,0.0,0.0,0.0,0.0,0.0,0.0,0.0,0.0,0.0,0.0,0.0,0.0,0.0,-2.1693,-2.1578,-2.1512,-2.0683,-1.9687,-1.8527,-1.7634,-1.6788,-1.5906,-1.559,-1.5347,-1.5215,-1.5131,-1.4915,-1.4524,-1.444,-1.4374,-1.4369,-1.4476,-1.4776,-1.529,-1.5518,-1.5681,-1.5826,-1.6082,-1.6123,-1.5832,-1.4729,-1.3902,-1.3162,-1.2106,-1.0933,0.0,0.0,0.0,0.0,0.0,0.0,0.0,0.0,0.0,-0.8884,-0.767,-0.7048,-0.6605,-0.5935,-0.541,-0.5144,-0.5508,-0.5783,-0.6105,-0.6469,-0.6987,-0.7408,-0.7408,-0.7408,0.0,0.0,0.0,0.0,0.0,0.0,0.0,0.0,0.0,0.0,0.0,0.0,0.0,0.0,0.0,0.0,0.0,0.0,0.0,-0.8028,-0.8028,-0.7896,-0.7635,-0.7635,-0.7635,-0.7635,-0.7635,-0.7595,-0.7507,-0.7323,-0.7187,-0.7095,-0.7095,-0.7095,-0.7051,-0.6473,-0.6564,-0.7095,-0.7095,-0.7095,-0.7051,-0.6428,-0.6074,-0.5805,-0.505,-0.4514,-0.4202,0.0,0.0,0.0,0.0,0.0,0.0,0.0,0.0,0.0,-2.2214,0.0,0.0,0.0,0.0,-2.1436,-2.132,-2.0479,-1.9362,-1.8078,-1.7472,-1.6624,-1.5465,-1.5389,-1.5347,-1.5215,-1.5131,-1.4957,-1.4608,-1.4482,-1.4477,-1.4609,-1.4666,-1.493,-1.5404,-1.5783,-1.5939,-1.5927,-1.6028,-1.6028,-1.5832,-1.4334,-1.3318,-1.2528,-1.1148,0.0,0.0,0.0,0.0,0.0,0.0,0.0,0.0,0.0,0.0,0.0,-0.7085,-0.6145,-0.5356,-0.4692,-0.4176,-0.3921,-0.424,-0.4587,-0.493,-0.5218,-0.5743,-0.6165,-0.6169,-0.616,0.0,0.0,0.0,0.0,0.0,0.0,0.0,0.0,0.0,0.0,0.0,0.0,0.0,0.0,0.0,0.0,0.0,0.0,0.0,-0.7768,-0.7768,-0.7635,-0.737,-0.737,-0.737,-0.737,-0.737,-0.737,-0.737,-0.6877,-0.6653,-0.6609,-0.6293,-0.616,-0.6115,-0.5492,-0.5761,-0.6609,-0.6293,-0.6113,-0.598,-0.5359,-0.4914,-0.4556,-0.3755,-0.3309,-0.3087,0.0,0.0,0.0,0.0,0.0,0.0,0.0,0.0,-2.2252,-2.1845,0.0,0.0,0.0,0.0,0.0,-2.0945,-2.0654,-1.9805,-1.8118,-1.7957,-1.7155,-1.5465,-1.5389,-1.5389,-1.5389,-1.5173,-1.509,-1.509,-1.4622,-1.4576,-1.4904,-1.4976,-1.5176,-1.547,-1.5947,-1.6224,-1.6177,-1.5927,-1.5974,-1.5981,-1.365,-1.2678,-1.2463,0.0,0.0,0.0,-0.9161,-0.91,0.0,-0.9092,0.0,0.0,0.0,0.0,0.0,0.0,0.0,-0.4291,0.0,0.0,0.0,-0.3972,-0.3613,-0.3223,-0.4083,-0.429,-0.4308,-0.431,0.0,0.0,0.0,0.0,0.0,0.0,0.0,0.0,0.0,0.0,0.0,0.0,0.0,0.0,0.0,0.0,0.0,0.0,0.0,-0.768,-0.7459,-0.7462,-0.7323,-0.7095,-0.7051,-0.7051,-0.7051,-0.7051,-0.7007,-0.7007,-0.6074,-0.5675,-0.563,-0.4734,-0.4289,-0.4289,-0.4287,-0.4781,-0.5542,-0.4645,-0.4154,-0.3883,-0.3883,-0.3575,-0.3173,-0.313,-0.2998,-0.2823,0.0,0.0,0.0,0.0,0.0,0.0,-2.2478,-2.2138,-2.1921,0.0,0.0,0.0,-2.1578,-2.1282,-2.0974,-2.0693,-1.9481,-1.8519,-1.8037,-1.6837,-1.5914,-1.5431,-1.5389,-1.534,-1.5173,-1.4957,-1.4741,-1.4608,-1.4496,-1.463,-1.4983,-1.5189,-1.553,-1.6007,-1.6136,-1.6312,-1.6447,-1.6218,-1.613,-1.5981,-1.365,-1.2678,0.0,0.0,0.0,0.0,0.0,-0.9177,-0.929,0.0,-0.9012,-0.9042,0.0,0.0,0.0,0.0,0.0,0.0,-0.2565,0.0,0.0,0.0,0.0,0.0,0.0,0.0,-0.4278,-0.43,0.0,0.0,0.0,0.0,0.0,0.0,0.0,0.0,0.0,0.0,0.0,0.0,0.0,0.0,0.0,0.0,0.0,0.0,-0.5312,-0.5581,-0.6166,-0.621,-0.6476,-0.7095,-0.5802,-0.5403,-0.6074,-0.5403,-0.509,-0.509,-0.4823,-0.469,-0.469,-0.4423,-0.4289,-0.4245,-0.3578,-0.3312,-0.3444,-0.4067,-0.4154,-0.384,-0.313,-0.2594,-0.2103,-0.1433,-0.1031,-0.0808,0.0,0.0,0.0,0.0,0.0,-2.2402,-2.2176,-2.1959,-2.1807,0.0,0.0,0.0,-2.1397,-2.1089,-2.0664,-2.0089,-1.9134,-1.8238,-1.7513,-1.6509,-1.585,-1.5628,-1.5593,-1.5602,-1.564,-1.5383,-1.5169,-1.5083,-1.5003,-1.5161,-1.5461,-1.5638,-1.5884,-1.6177,-1.5832,-1.5974,-1.64,-1.5927,-1.5635,-1.5397,-1.3457,0.0,0.0,-1.0207,-0.9559,0.0,0.0,0.0,-0.9194,-0.8511,-0.8316,0.0,0.0,0.0,0.0,0.0,0.0,0.0,0.0,-0.1525,-0.1553,0.0,0.0,0.0,-0.2396,-0.277,-0.3129,0.0,0.0,0.0,0.0,0.0,0.0,0.0,0.0,0.0,0.0,0.0,0.0,0.0,0.0,0.0,0.0,0.0,0.0,-0.4289,-0.4289,-0.4556,-0.5092,-0.5137,-0.5359,-0.5935,-0.4868,-0.4556,-0.5092,-0.4556,-0.4289,-0.4289,-0.389,-0.3666,-0.3532,-0.313,-0.2907,-0.2772,-0.2329,-0.2016,-0.1792,-0.2639,-0.2772,-0.2369,-0.1836,-0.1389,-0.0986,-0.0449,-0.0135,0.0,0.0,0.0,0.0,-2.1883,-2.1883,-2.1845,-2.1807,-2.1807,-2.1807,0.0,-2.1769,-2.1578,-2.1167,-2.0906,-2.0342,-1.9381,-1.9134,-1.8376,-1.6836,-1.6672,-1.643,-1.595,-1.5965,-1.6096,-1.6404,-1.6153,-1.5983,-1.5983,-1.584,-1.5861,-1.6074,-1.6024,-1.6051,-1.5981,-1.5146,-1.5194,-1.5886,-1.5194,-1.4704,-1.4322,-1.321,-1.2145,0.0,0.0,-0.9579,-0.953,-0.9226,-0.9108,-0.8979,-0.7911,-0.7213,0.0,0.0,0.0,0.0,0.0,-0.3243,0.0,0.0,0.0,0.0,0.0,0.0,0.0,-0.1493,-0.1483,-0.1473,0.0,0.0,0.0,0.0,0.0,0.0,0.0,0.0,0.0,0.0,0.0,0.0,0.0,0.0,0.0,0.0,-0.3976,-0.3976,-0.3976,-0.4067,-0.4156,-0.4156,-0.4156,-0.42,-0.4289,-0.4109,-0.4022,-0.4156,-0.4022,-0.3976,-0.3976,-0.3089,-0.2553,-0.2329,-0.1434,-0.0942,-0.0718,-0.0942,-0.0897,-0.0673,-0.0942,-0.0762,-0.0403,-0.0403,-0.0224,0.0,0.0,0.0,0.0,0.0,0.0,-2.2665,-2.2327,-2.2289,-2.2176,-2.1845,-2.1807,-2.1807,-2.1807,-2.1512,-2.1156,-2.076,-2.0059,-1.9548,-1.9301,-1.8037,-1.7188,-1.7104,-1.6434,-1.6122,-1.6309,-1.6279,-1.6353,-1.6411,-1.6153,-1.5983,-1.5983,-1.6059,-1.6032,-1.5872,-1.5243,-1.4994,-1.4956,-1.3938,-1.38,-1.434,-1.419,-1.3511,-1.2581,-1.2877,-1.229,-1.1077,-1.0015,-0.9579,-0.953,-0.9226,-0.9185,-0.9176,-0.8206,-0.7362,-0.6596,0.0,0.0,0.0,-0.3693,0.0,0.0,0.0,0.0,0.0,0.0,0.0,0.0,-0.1524,-0.1498,-0.1479,0.0,-0.1453,0.0,0.0,0.0,0.0,0.0,0.0,0.0,0.0,0.0,0.0,0.0,0.0,0.0,0.0,-0.1972,-0.1972,-0.1972,-0.2731,-0.3178,-0.3178,-0.3178,-0.3534,-0.4287,-0.2774,-0.2374,-0.3178,-0.2373,-0.1972,-0.1972,-0.1613,-0.1435,-0.1345,-0.0941,-0.0762,-0.0718,-0.0762,-0.0673,-0.0448,-0.0493,-0.0493,-0.0403,-0.0403,-0.0224,0.0,0.0,0.0,0.0,-2.2402,-2.2402,-2.2327,-2.2149,-2.2101,-2.2025,-2.1845,-2.1807,-2.1807,-2.1807,-2.1464,-2.1169,-2.1066,-2.0016,-1.9257,-1.9197,-1.7805,-1.6902,-1.6825,-1.6394,-1.6279,-1.6639,-1.6653,-1.6734,-1.6843,-1.6493,-1.631,-1.631,-1.6241,-1.5992,-1.5618,-1.5373,-1.4908,-1.428,-1.3463,-1.3318,-1.3709,-1.3565,-1.3082,-1.2355,-1.2495,0.0,-1.0355,-0.9821,-0.9579,-0.9592,-0.9324,-0.8741,-0.7894,-0.6998,-0.6176,0.0,0.0,-0.503,-0.4763,0.0,-0.3145,-0.2781,0.0,0.0,0.0,-0.1553,0.0,0.0,0.0,-0.1491,-0.1476,-0.1461,-0.1401,-0.13,-0.0942,0.0,0.0,0.0,0.0,0.0,0.0,0.0,0.0,0.0,0.0,0.0,0.0,-0.1391,-0.1391,-0.1391,-0.1883,-0.2152,-0.2152,-0.2152,-0.2374,-0.2819,-0.1927,-0.1659,-0.2152,-0.1659,-0.1345,-0.1256,-0.1166,-0.0987,-0.0762,-0.0628,-0.0493,-0.0359,-0.0493,-0.0404,-0.0224,-0.0359,-0.0314,-0.018,-0.018,-0.0135,0.0,0.0,0.0,0.0,-2.2066,-2.2066,-2.2066,-2.2066,-2.1994,-2.1973,-2.2056,-2.1955,-2.1847,-2.1863,-2.1408,-2.1145,-2.1259,-1.9925,-1.8962,-1.8854,-1.7742,-1.6883,-1.6529,-1.6507,-1.6653,-1.6976,-1.6991,-1.7069,-1.7279,-1.6911,-1.6676,-1.6534,-1.6305,-1.5879,-1.5248,-1.5296,-1.4717,-1.3619,-1.2931,-1.2834,-1.3178,-1.2883,-1.2597,-1.2365,0.0,-1.0988,-0.9723,-0.9628,-0.9579,-0.955,-0.9232,-0.7966,-0.6344,-0.5658,-0.4951,-0.4356,-0.4365,-0.4377,0.0,0.0,0.0,0.0,0.0,0.0,0.0,0.0,0.0,-0.1471,0.0,0.0,0.0,-0.0997,-0.0993,-0.0811,-0.0269,-0.0179,0.0,0.0,0.0,0.0,0.0,0.0,0.0,0.0,0.0,0.0,0.0,-0.1391,-0.1391,-0.1391,-0.1391,-0.1391,-0.1391,-0.1391,-0.1391,-0.1391,-0.1391,-0.1391,-0.1345,-0.1345,-0.1256,-0.1031,-0.0987,-0.0762,-0.0403,-0.0359,-0.0224,0.0,-0.0224,-0.018,0.0,-0.0224,-0.018,0.0,0.0,0.0,0.0,0.0,0.0,0.0,-2.3029,-2.3029,-2.3029,-2.3029,-2.2687,-2.2563,-2.2967,-2.2478,-2.2078,-2.2169,-2.132,-2.0699,-2.0546,-1.8939,-1.7884,-1.7877,-1.7026,-1.6581,-1.6822,0.0,-1.6991,-1.726,-1.7274,-1.7296,-1.7279,-1.7232,-1.6904,-1.6237,-1.619,-1.5724,-1.4783,-1.3854,-1.3178,-1.2754,-1.1336,-1.1238,-1.2122,-1.1634,-1.1389,0.0,-1.1292,-1.09,0.0,-0.9772,-0.9579,-0.9485,-0.8518,-0.7078,-0.5621,0.0,-0.4958,-0.434,0.0,-0.4436,-0.4254,-0.3896,0.0,0.0,0.0,0.0,0.0,0.0,-0.1789,0.0,0.0,0.0,-0.0236,0.0417,0.0,0.055,0.0585,0.0,0.0,0.0,0.0,0.0,0.0,0.0,0.0,0.0,0.0,0.0,0.0,0.0,-0.1391,-0.1391,-0.1391,-0.1391,-0.1391,-0.1391,-0.1391,-0.1391,-0.1391,-0.13,-0.1121,-0.1121,-0.0987,-0.0762,-0.0583,-0.0448,-0.0403,-0.0135,-0.0045,0.0,-0.0045,-0.0045,0.0,-0.0045,-0.0045,0.0,0.0,0.0,0.0,0.0,0.0,0.0,-2.3287,-2.3184,-2.3184,-2.3184,-2.3029,-2.2956,-2.3153,-2.2938,-2.2635,-2.2421,-2.202,-2.1726,-2.165,-1.9771,-1.8684,-1.9107,0.0,-1.6837,0.0,0.0,-1.7186,-1.7279,-1.7279,-1.7279,-1.7279,-1.72,-1.673,-1.5967,-1.5818,-1.5153,-1.3968,-1.3528,-1.2948,-1.2268,-1.1927,-1.1878,-1.2029,-1.2078,-1.2127,0.0,0.0,0.0,0.0,-1.0019,-0.9327,-0.8788,-0.7784,-0.6652,-0.5562,0.0,-0.4589,0.0,0.0,0.0,0.0,0.0,0.0,0.0,0.0,0.0,0.0,0.0,0.0,0.0,-0.0801,0.0,0.0428,0.0,0.0,0.0,0.0,0.0,0.0,0.0,0.1345,0.0,0.0,0.0,0.0,0.0,0.0,0.0,0.0,0.0,0.0,0.0,0.0,-0.1391,-0.1391,-0.13,-0.13,-0.1391,-0.1121,-0.1031,-0.1121,-0.0942,-0.0762,-0.0538,-0.0448,-0.0314,-0.018,-0.0045,0.0,0.0,0.0,0.0,0.0,0.0,0.0314,0.0808,0.0808,0.0494,0.0,0.0,0.0359,0.0808,-2.3691,-2.3557,-2.3557,-2.3557,-2.3463,-2.334,-2.3207,-2.331,-2.3185,-2.2719,-2.2458,-2.2272,-2.2294,-2.034,-1.9245,-1.9782,-1.8109,-1.7084,0.0,0.0,-1.7232,0.0,0.0,0.0,0.0,-1.7059,-1.6588,-1.5635,-1.5391,-1.4627,-1.3298,-1.3298,-1.291,-1.2224,-1.2467,-1.2467,-1.2224,-1.2467,-1.2565,-1.2565,-1.2175,-1.1927,-1.1634,-1.0314,-0.9076,-0.7994,-0.7263,-0.6361,-0.5346,-0.4569,-0.4363,0.0,-0.4349,0.0,0.0,0.0,0.0,0.0,-0.381,0.0,0.0,0.0,0.0,0.0,0.0,0.0,0.0,0.0,0.0,0.0,0.0,0.0,0.2122,0.0,0.0,0.193,0.0,0.0,0.0,0.0,0.0,0.0,0.0,0.0,0.0,0.0,0.0,0.0,-0.1211,-0.1076,-0.1076,-0.1211,-0.0897,-0.0762,-0.0897,-0.0718,-0.0493,-0.0269,-0.0269,-0.018,0.0,0.0,0.0,0.0,0.0269,0.0404,0.0404,0.0673,0.1211,0.1793,0.1793,0.1391,0.0808,0.0808,0.1211,0.1793,-2.4456,-2.4456,-2.4456,-2.4456,-2.4146,-2.3721,0.0,0.0,0.0,0.0,0.0,0.0,0.0,0.0,0.0,0.0,0.0,-1.7271,-1.7279,0.0,-1.6998,0.0,0.0,-1.6951,0.0,0.0,0.0,-1.5099,-1.5099,-1.434,-1.2813,-1.2813,-1.2813,-1.2764,-1.2273,-1.2322,-1.2759,-1.2224,-1.2029,-1.2024,-1.2029,-1.1688,-1.1145,0.0,-0.9072,-0.7201,-0.707,0.0,0.0,-0.4463,-0.4375,0.0,0.0,0.0,0.0,0.0,0.0,0.0,0.0,0.0,0.0,-0.359,0.0,0.0,0.0,0.0,0.1763,0.0,0.0,0.0,0.0,0.2956,0.2937,0.0,0.0,0.0,0.0,0.0,0.0,0.0,0.0,0.0,0.0,0.0,0.0,0.0,0.0,0.0,-0.0718,-0.0718,-0.0718,-0.0718,-0.0718,-0.0628,-0.0403,-0.0403,-0.0269,0.0,0.0,0.0,0.0,0.0,0.0,0.0045,0.0942,0.1345,0.1436,0.2419,0.2823,0.2867,0.2867,0.2822,0.2823,0.2823,0.2823,0.2867,-2.4325,-2.4282,-2.4325,-2.4454,-2.4298,-2.3982,0.0,-2.3707,0.0,0.0,-2.2085,0.0,0.0,-1.9774,-1.9137,0.0,0.0,-1.7969,-1.7969,-1.7772,0.0,0.0,0.0,-1.6951,0.0,0.0,0.0,0.0,-1.4573,-1.3811,-1.2813,-1.2813,-1.2813,-1.2813,-1.2619,-1.2613,-1.2813,-1.2619,0.0,0.0,0.0,-1.2224,-1.1585,0.0,0.0,-0.7604,-0.6834,-0.5716,0.0,-0.4465,-0.4368,-0.4383,-0.4355,-0.4365,-0.4377,-0.4316,-0.43,0.0,0.0,0.0,-0.3898,-0.327,0.0,0.0,0.0,0.0,0.0,0.0,0.0,0.0,0.0,0.0,0.2998,0.0,0.0,0.0,0.0,0.0,0.0,0.0,0.0,0.0,0.0,0.0,0.0,0.0,0.0,0.0,0.0,-0.0583,-0.0583,-0.0718,-0.0404,-0.0269,-0.0403,-0.0224,-0.009,0.0,0.0,0.0,0.0,0.0628,0.0942,0.0987,0.1973,0.2374,0.2419,0.2777,0.3269,0.3807,0.3807,0.421,0.4612,0.336,0.3314,0.3939,-2.4067,-2.4067,-2.411,-2.4239,-2.4153,0.0,0.0,0.0,0.0,0.0,-2.1752,0.0,-2.0626,0.0,-1.9463,0.0,-1.8754,-1.8255,-1.8138,-1.8043,0.0,-1.6539,-1.688,0.0,0.0,0.0,0.0,0.0,0.0,-1.3528,-1.2813,-1.2813,-1.2813,-1.2813,-1.2813,-1.2813,-1.2813,-1.2813,-1.2813,0.0,0.0,-1.2565,0.0,0.0,-0.8909,-0.8001,0.0,-0.5653,-0.4699,-0.4467,-0.4368,-0.4377,-0.4318,-0.434,-0.4375,-0.4316,-0.43,-0.43,-0.43,-0.43,0.0,-0.3537,-0.2282,0.0,-0.0283,0.0,0.0,0.0,0.0,0.0,0.0,0.0,0.0,0.0,0.0,0.0,0.0,0.292,0.0,0.0,0.0,0.0,0.0,0.0,0.0,0.0,0.0627,0.0,0.0,0.0,-0.0314,-0.0449,-0.018,-0.009,-0.0269,0.0224,0.0494,0.0494,0.0853,0.1032,0.1032,0.1659,0.1928,0.1973,0.2956,0.3403,0.3403,0.3762,0.4253,0.479,0.479,0.5151,0.5555,0.4344,0.43,0.4924,-2.3797,-2.3754,-2.3701,0.0,-2.3701,0.0,0.0,0.0,-2.203,0.0,-2.1241,-2.078,-2.1041,-2.0289,-1.973,-1.973,-1.8871,-1.8218,-1.7911,-1.8167,0.0,0.0,-1.6553,-1.6222,-1.5124,0.0,0.0,0.0,0.0,-1.348,-1.2813,-1.2813,-1.2813,-1.2813,-1.2813,-1.2813,-1.2813,-1.2813,-1.2813,-1.2813,-1.2813,-1.2813,-1.2565,-1.0137,0.0,-0.8248,-0.6789,-0.5704,-0.4931,-0.4562,-0.4377,-0.43,-0.43,-0.43,-0.43,-0.43,-0.43,-0.43,-0.43,-0.43,-0.43,-0.4253,0.0,0.0,0.0,0.0,0.1868,0.0,0.0,0.0,0.0,0.0,0.0,0.2946,0.0,0.0,0.0,0.0,0.0,0.0,0.0,0.0,0.0,0.0,0.3715,0.2327,0.2149,0.1569,0.0,0.0,0.0,0.0135,0.0135,0.0135,0.0135,0.1032,0.148,0.148,0.2464,0.2911,0.2911,0.2957,0.2957,0.3001,0.3941,0.4389,0.4433,0.5329,0.5688,0.5688,0.5688,0.5688,0.5688,0.5688,0.5688,0.5777,-2.3634,-2.2862,-2.2236,0.0,-2.2359,-2.2394,0.0,0.0,0.0,0.0,-2.002,-1.9789,-1.9112,-1.9052,-1.9059,-1.9059,-1.9037,0.0,0.0,0.0,0.0,-1.7303,-1.6889,-1.6268,-1.5411,-1.463,0.0,-1.3902,0.0,-1.3001,-1.2813,-1.2813,-1.2813,-1.2813,-1.2813,-1.2813,-1.2813,-1.2813,-1.2813,-1.2813,-1.2813,-1.2813,0.0,0.0,-0.9406,-0.9008,-0.6644,-0.5428,-0.4942,-0.487,-0.4752,-0.4569,-0.4344,-0.43,-0.43,-0.43,-0.43,-0.43,-0.43,-0.43,-0.4119,-0.3449,-0.2867,-0.2119,0.0,0.0,0.0,0.0,0.0,0.0,0.0,0.0,0.0,0.0,0.0,0.0,0.0,0.0,0.0,0.4032,0.0,0.0,0.0,0.4206,0.3758,0.376,0.309,0.2553,0.0,0.0,0.0,0.2152,0.2152,0.2152,0.2152,0.2374,0.251,0.251,0.2778,0.2911,0.2913,0.3628,0.3941,0.3985,0.4926,0.5329,0.5374,0.5599,0.5688,0.5688,0.5688,0.5688,0.5688,0.5688,0.5822,0.5994,-2.2183,-2.1284,0.0,-2.1182,0.0,0.0,-2.1245,-2.146,0.0,-1.9718,-1.9289,0.0,-1.8546,-1.8803,-1.9001,-1.9001,-1.9169,0.0,-1.9074,0.0,0.0,-1.7916,-1.7041,-1.6216,-1.552,-1.424,0.0,-1.3426,0.0,-1.2813,-1.2813,-1.2813,-1.2813,-1.2813,-1.2813,-1.2813,-1.2813,-1.2813,-1.2813,-1.2813,-1.2813,0.0,0.0,-1.0288,-0.9353,-0.8909,-0.6478,-0.5433,-0.5149,-0.5007,-0.48,-0.4578,-0.4493,-0.4389,-0.43,-0.43,-0.43,-0.43,-0.43,-0.43,-0.4164,-0.3628,-0.3226,-0.2613,-0.1472,-0.0924,-0.0371,0.0,0.0,0.0,0.0,0.0,0.0,0.0,0.0,0.0,0.0,0.0,0.0,0.0,0.4166,0.0,0.0,0.461,0.4476,0.43,0.3807,0.0,0.0,0.0,0.0,0.2911,0.2911,0.2911,0.2911,0.3314,0.3494,0.3539,0.3941,0.4119,0.4164,0.4656,0.4926,0.4926,0.5466,0.5688,0.5688,0.5688,0.5688,0.5688,0.5688,0.5777,0.5863,0.5863,0.5952,0.6083,-2.0514,-1.9824,0.0,0.0,0.0,0.0,0.0,-2.0669,0.0,-1.9779,0.0,-1.854,-1.8818,-1.9103,-1.9279,-1.9279,0.0,-1.9155,-1.8869,-1.9118,-1.8972,-1.8303,-1.7065,-1.61,-1.543,-1.391,-1.299,0.0,0.0,-1.2813,-1.2813,-1.2813,-1.2813,-1.2813,-1.2813,-1.2813,-1.2813,-1.2813,-1.2813,-1.2813,-1.2813,-1.2813,-1.2565,-1.0137,-0.9103,-0.8609,-0.6379,-0.5523,-0.5375,-0.5027,-0.4742,-0.4512,-0.46,-0.4525,-0.4344,-0.43,-0.43,-0.43,-0.43,-0.43,-0.43,-0.43,-0.3673,-0.3016,-0.2842,-0.2162,-0.1564,-0.1379,-0.0746,0.0,0.0,0.0,0.0,0.0,0.0,0.0,0.0,0.0,0.0,0.0,0.0,0.0,0.0,0.0,0.5329,0.4476,0.4433,0.0,0.0,0.0,0.0,0.0,0.3269,0.0,0.3269,0.0,0.4478,0.4478,0.5329,0.5688,0.5688,0.5688,0.5688,0.5688,0.5688,0.5688,0.5688,0.5688,0.5733,0.5733,0.5733,0.5908,0.6127,0.6127,0.6171,0.6171,-2.1079,-2.0327,0.0,0.0,0.0,-2.0051,-1.9265,-1.9789,-2.0004,-1.9089,-1.9037,-1.9125,-1.9236,-1.9242,-1.9279,-1.9279,-1.9279,0.0,0.0,0.0,0.0,-1.8099,-1.6969,-1.5889,-1.4859,-1.3702,-1.299,0.0,0.0,0.0,-1.2813,-1.2813,-1.2813,-1.2813,-1.2813,-1.2813,-1.2813,-1.2813,0.0,-1.2813,-1.2813,-1.2813,-1.2565,-1.0342,-0.9505,-0.911,-0.6531,-0.5421,-0.5127,-0.5027,-0.4975,-0.492,-0.4508,-0.448,-0.4569,-0.4344,-0.43,-0.43,-0.43,-0.43,-0.43,-0.43,-0.4164,-0.3855,-0.306,-0.2748,-0.2341,-0.135,-0.0722,-0.0227,0.0137,0.0,0.0,0.0,0.0,0.0,0.0,0.0,0.0,0.0,0.0,0.4328,0.0,0.0,0.0,0.0,0.0,0.0,0.0,0.0,0.0,0.0,0.0,0.0,0.0,0.0,0.0,0.5466,0.5599,0.5688,0.5688,0.5688,0.5688,0.5688,0.5688,0.5688,0.5688,0.5688,0.5822,0.6041,0.6041,0.6171,0.6343,0.6343,0.6479,0.6659,-1.9698,0.0,-1.9288,0.0,0.0,0.0,0.0,-1.9441,0.0,-1.8862,-1.8928,-1.9023,-1.9023,-1.9177,-1.9279,-1.9279,-1.9279,-1.9279,-1.9279,-1.9279,-1.89,-1.8042,-1.7062,0.0,-1.4722,-1.3498,-1.287,-1.2813,0.0,0.0,-1.2813,-1.2813,-1.2813,-1.2813,-1.2516,-1.237,0.0,0.0,0.0,-1.198,-1.198,-1.198,-1.178,-1.0199,-0.9258,-0.8517,-0.6681,-0.5553,-0.4954,-0.5006,-0.4959,-0.4815,-0.4628,-0.4518,-0.448,-0.4344,-0.43,-0.43,-0.43,-0.43,-0.43,-0.43,-0.43,-0.4166,-0.3717,-0.3628,-0.3448,-0.2864,-0.2193,-0.1353,-0.0322,0.07,0.0,0.0,0.0,0.0,0.0,0.0,0.0,0.0,0.0,0.0,0.0,0.0,0.0,0.0,0.0,0.0,0.0,0.0,0.0,0.0,0.0,0.0,0.0,0.0,0.0,0.5688,0.5688,0.5688,0.5688,0.5688,0.5688,0.5688,0.5688,0.5688,0.5688,0.5863,0.6038,0.6257,0.6257,0.639,0.6612,0.6612,0.6745,0.6922,-1.8511,-1.8716,0.0,0.0,-1.9103,0.0,-1.9279,-1.9279,-1.9236,-1.8928,-1.8891,-1.8891,-1.8891,-1.9118,-1.9279,-1.9279,-1.9279,-1.9279,-1.9279,-1.9279,-1.8848,-1.7779,-1.7047,-1.594,-1.4327,-1.3259,-1.2633,0.0,0.0,0.0,0.0,-1.252,0.0,0.0,0.0,0.0,0.0,0.0,-1.1194,-1.1194,-1.1194,-1.1194,-1.1096,-1.0002,-0.8962,-0.7922,-0.6783,-0.5737,-0.4924,-0.5001,-0.4867,-0.4724,-0.4705,-0.4569,-0.4369,-0.4304,-0.43,-0.43,-0.43,-0.43,-0.43,-0.43,-0.43,-0.43,-0.43,-0.43,-0.43,-0.43,-0.3539,-0.2345,-0.0599,0.014,0.0,0.0,0.0,0.0,0.0,0.0,0.0,0.0,0.0,0.0,0.0,0.0,0.0,0.0,0.0,0.0,0.0,0.0,0.0,0.0,0.0,0.5699,0.5723,0.0,0.5688,0.0,0.5688,0.5688,0.5688,0.5688,0.5733,0.5777,0.5777,0.5822,0.5863,0.6083,0.6302,0.6476,0.6476,0.6656,0.6881,0.6881,0.6969,0.7098,0.0,0.0,0.0,0.0,0.0,0.0,0.0,-1.9279,-1.9264,-1.9235,-1.9228,-1.9228,-1.9228,-1.9257,-1.9279,-1.9279,-1.9279,-1.9279,-1.9279,-1.9279,-1.8534,-1.6889,-1.673,-1.5521,-1.2915,-1.2751,-1.2278,0.0,0.0,0.0,0.0,0.0,0.0,0.0,0.0,0.0,0.0,-1.1243,-1.1194,-1.1194,-1.1194,-1.1194,-1.1096,-1.0002,-0.9061,-0.8166,-0.6883,-0.5889,-0.5138,-0.4926,-0.4911,-0.4999,-0.4583,-0.4568,-0.4684,-0.4369,-0.43,-0.43,-0.43,-0.43,-0.43,-0.43,-0.43,-0.43,-0.43,-0.43,-0.43,-0.43,-0.3539,-0.2345,-0.0599,-0.0274,-0.0045,0.0,0.0,0.0,0.0,0.0,0.0,0.1519,0.0,0.0,0.0,0.0,0.0,0.0,0.0,0.0,0.0,0.0,0.0,0.5882,0.0,0.5737,0.5885,0.5739,0.0,0.5688,0.5688,0.5688,0.5688,0.5688,0.5822,0.6083,0.6083,0.6169,0.6343,0.6343,0.6523,0.6748,0.6748,0.6877,0.7051,0.7051,0.7098,0.7095,0.0,0.0,0.0,0.0,0.0,0.0,0.0,-1.9279,-1.9279,-1.9279,-1.9279,-1.9279,-1.9279,-1.9279,-1.9279,-1.9279,-1.9279,-1.9279,-1.9279,-1.9279,-1.837,-1.6293,-1.624,-1.4937,-1.224,-1.1817,-1.1512,0.0,0.0,0.0,0.0,0.0,0.0,0.0,0.0,-1.0703,-1.0708,-1.0364,-1.0216,-1.0216,-1.0216,-1.0216,-1.0167,-0.9768,-0.9122,-0.8276,-0.7235,-0.6339,-0.5591,-0.4987,-0.4827,-0.484,-0.4622,-0.4571,-0.4522,-0.4391,-0.4342,-0.43,-0.43,-0.43,-0.43,-0.43,-0.43,-0.43,-0.43,-0.43,-0.43,-0.43,-0.3539,-0.2516,-0.1179,-0.1002,-0.0821,0.0,0.0,0.0,0.0,0.0,0.0,0.0,0.0,0.3156,0.0,0.0,0.0,0.0,0.0,0.0,0.0,0.0,0.0,0.5899,0.0,0.571,0.5801,0.5712,0.5688,0.5688,0.5688,0.5777,0.5952,0.5952,0.6083,0.6299,0.6299,0.6435,0.6656,0.6656,0.6789,0.6966,0.6966,0.701,0.7095,0.7095,0.7445,0.7929,-1.9279,0.0,-1.9279,0.0,-1.9279,-1.9279,-1.9279,-1.9279,-1.9279,-1.9279,-1.9279,-1.9279,-1.9279,-1.9279,-1.9279,-1.9279,-1.9279,-1.9279,-1.9279,-1.89,-1.7832,-1.5968,-1.5482,0.0,-1.162,-1.1196,-1.0901,-1.0708,-1.056,0.0,0.0,0.0,0.0,0.0,-1.0314,-1.0167,-1.0117,-0.9776,-0.9579,-0.9579,-0.9579,-0.9579,-0.9579,-0.9579,-0.908,-0.8333,-0.7736,-0.6889,-0.5892,-0.5336,-0.4945,-0.4741,-0.4716,-0.462,-0.4463,-0.4483,-0.4412,-0.4338,-0.4338,-0.432,-0.43,-0.43,-0.43,-0.43,-0.43,-0.43,-0.421,-0.3941,-0.336,-0.2598,-0.1569,-0.1453,-0.1278,0.0,0.0,0.0,0.0,0.0,0.0,0.0,0.1556,0.2446,0.3779,0.0,0.0,0.0,0.0,0.0,0.0,0.0,0.0,0.0,0.0,0.0,0.0,0.5801,0.5765,0.5822,0.5822,0.5952,0.6169,0.626,0.639,0.652,0.6564,0.6697,0.6881,0.6881,0.6966,0.7095,0.7095,0.7272,0.7489,0.7489,0.8101,0.893,-1.9279,-1.9279,-1.9279,-1.9279,-1.9279,-1.9279,-1.9279,-1.9279,-1.9279,-1.9279,-1.9279,-1.9279,-1.9279,-1.9279,-1.9279,-1.9279,-1.9279,-1.9279,-1.9279,-1.7937,-1.6764,0.0,0.0,-1.2854,-1.1049,-1.0988,-1.0544,-0.9628,0.0,0.0,-0.9628,0.0,-0.9632,-0.9628,-0.9628,-0.9628,-0.9628,-0.9628,-0.9579,-0.9579,-0.9579,-0.9579,-0.9579,-0.9579,-0.908,-0.8382,-0.8382,-0.7335,-0.5992,-0.5992,-0.5438,-0.4768,-0.4734,-0.4708,-0.4687,-0.4598,-0.4506,-0.4386,-0.4386,-0.4367,-0.43,-0.43,-0.43,-0.43,-0.43,-0.43,-0.403,-0.3092,-0.2911,-0.2598,-0.1569,-0.1391,-0.1391,-0.1391,0.0,0.0,0.0,0.0,0.0,0.0,0.0647,0.1985,0.2489,0.0,0.0,0.0,0.0,0.0,0.0,0.0,0.0,0.6075,0.5964,0.0,0.6081,0.5961,0.5977,0.6083,0.6083,0.6213,0.6384,0.6659,0.6795,0.6795,0.701,0.7095,0.7095,0.7095,0.7095,0.7095,0.7095,0.7665,0.85,0.85,0.9061,0.9879,-1.8691,-1.8691,-1.8691,-1.8691,-1.8691,-1.8691,-1.8691,-1.8691,-1.8691,-1.8691,-1.8691,-1.8691,-1.8691,-1.8907,-1.9078,0.0,-1.8907,-1.8803,0.0,-1.7674,-1.628,-1.506,-1.376,-1.2277,-1.0481,-1.0473,-1.019,-0.9579,0.0,0.0,0.0,-0.9685,-0.9579,-0.9579,-0.9579,-0.9579,-0.9579,-0.9579,-0.9579,-0.9579,-0.9579,-0.9579,-0.9579,-0.9579,-0.943,-0.913,-0.8581,-0.8081,-0.7537,-0.6989,-0.6639,-0.6331,-0.575,-0.5199,-0.4704,-0.4673,-0.46,-0.4528,-0.4528,-0.4508,-0.4485,-0.4485,-0.4438,-0.4346,-0.4346,-0.4074,-0.363,-0.3047,-0.2645,-0.2198,-0.1525,-0.1391,-0.1391,-0.1391,0.0,0.0,0.0,0.0,0.0,0.0,-0.0272,0.0814,0.0,0.3119,0.0,0.0,0.0,0.0,0.0,0.0,0.0,0.0,0.6048,0.0,0.6364,0.6244,0.6299,0.6527,0.6388,0.6435,0.6659,0.6922,0.701,0.701,0.7051,0.7095,0.7095,0.7095,0.7492,0.8061,0.8061,0.8623,0.9449,0.9449,1.0058,1.0842,-1.8422,-1.8422,-1.8422,-1.8422,-1.8422,-1.8422,-1.8422,-1.8422,-1.8422,-1.8422,-1.8422,-1.8422,-1.8422,-1.8489,0.0,-1.8952,-1.8639,-1.8318,-1.8108,-1.6711,-1.5316,-1.3981,-1.2689,-1.1464,-1.0322,0.0,0.0,-0.9726,-0.9766,-0.9786,-0.9786,-0.9681,-0.9579,-0.9579,-0.9579,-0.9579,-0.9579,-0.9579,-0.9579,-0.9579,-0.9579,-0.9579,-0.9579,-0.9579,-0.9579,-0.9529,-0.9031,-0.863,-0.8283,-0.7484,-0.6989,-0.6589,-0.5789,-0.5198,-0.4755,-0.4755,-0.4694,-0.4624,-0.4624,-0.4598,-0.4621,-0.4621,-0.4387,-0.4111,-0.3925,-0.3588,-0.322,-0.2721,-0.239,-0.2019,-0.148,-0.1391,-0.1391,-0.1391,0.0,-0.1391,-0.1391,0.0,0.0,0.0,0.0,0.0,0.0,0.2627,0.0,0.0,0.0,0.0,0.0,0.0,0.0,0.6151,0.6154,0.0,0.6578,0.6502,0.6554,0.6822,0.6722,0.6741,0.6925,0.7054,0.7095,0.7095,0.7095,0.7316,0.7625,0.7625,0.8189,0.9017,0.9017,0.9579,1.0448,1.0448,1.1015,1.1843,-1.8318,-1.8318,0.0,0.0,-1.8318,0.0,-1.8318,-1.8318,-1.8318,-1.8318,-1.8265,-1.8213,-1.8213,-1.7957,-1.7852,-1.8101,0.0,0.0,0.0,-1.5263,-1.3927,-1.2792,-1.145,0.0,-1.0387,-1.0257,-1.0067,-0.9868,-0.9705,-0.9579,-0.9579,-0.9579,-0.9579,-0.9579,-0.9579,-0.9579,-0.9579,-0.9579,-0.9579,-0.9579,-0.9579,-0.9579,-0.9579,-0.9579,-0.9579,-0.9579,-0.9579,-0.908,-0.8283,-0.7534,-0.6739,-0.5942,-0.5135,-0.4885,-0.4885,-0.4834,-0.4779,-0.4716,-0.4716,-0.4655,-0.4544,-0.4544,-0.4153,-0.3623,-0.3097,-0.2912,-0.2733,-0.2273,-0.2191,-0.1978,-0.1483,-0.1392,-0.1391,-0.1391,-0.1391,-0.1391,-0.1391,0.0,0.0,0.0,0.0,0.0,0.0,0.2163,0.3292,0.0,0.0,0.0,0.0,0.0,0.6159,0.6314,0.6325,0.6474,0.6712,0.6751,0.6861,0.7008,0.7093,0.7105,0.7095,0.7095,0.7095,0.7095,0.7183,0.7709,0.85,0.8584,0.9148,1.0009,1.0009,1.0577,1.1408,1.1408,1.1972,1.2705,0.0,0.0,-1.7793,-1.7793,-1.7793,-1.7793,-1.7793,-1.7793,-1.7793,-1.7793,-1.7035,-1.6499,-1.6499,-1.5589,-1.5049,-1.5097,-1.5962,-1.6446,-1.6399,-1.4191,-1.2792,-1.2521,-1.1341,-1.0611,-1.0387,-1.0257,-1.0006,-0.9689,-0.9648,-0.9579,-0.9579,-0.9579,-0.9579,-0.9579,-0.9579,-0.9579,-0.9579,-0.9579,-0.9579,-0.9579,-0.9579,-0.9579,-0.9579,-0.9579,-0.9579,-0.9579,-0.9579,-0.908,-0.8382,-0.8184,-0.7587,-0.6789,-0.5989,-0.5739,-0.5589,-0.4985,-0.477,-0.4756,-0.4756,-0.4441,-0.4129,-0.4129,-0.3692,-0.3202,-0.3059,-0.2659,-0.2321,-0.2226,-0.1911,-0.1608,-0.1515,-0.1451,-0.1391,-0.1391,-0.1391,-0.1391,-0.1391,-0.1256,0.0,0.0,-0.0587,0.0,0.1174,0.2256,0.3375,0.0,0.0,0.0,0.0,0.0,0.6328,0.632,0.6552,0.6799,0.7093,0.7189,0.7241,0.7328,0.7336,0.7255,0.7095,0.7095,0.7095,0.7139,0.7841,0.8281,0.854,0.9274,1.0101,1.0971,1.0971,1.1537,1.2357,1.2357,1.2528,1.2735,-1.7582,-1.7582,-1.7582,-1.7582,-1.7582,-1.7417,-1.6882,-1.6829,-1.6611,-1.6074,-1.5482,-1.5102,-1.5102,-1.4513,-1.4078,-1.4078,-1.4728,-1.4942,-1.4519,-1.3171,-1.2146,-1.1664,-1.1017,-1.0647,-1.0554,-1.0375,-1.0107,-0.9746,-0.9665,-0.9579,-0.9579,-0.9579,-0.9579,-0.9579,-0.9579,-0.9579,-0.9579,-0.9579,-0.9579,-0.9579,-0.9579,-0.9579,-0.9579,-0.9579,-0.9579,-0.9529,-0.9179,-0.8779,-0.8283,-0.7537,-0.7039,-0.6489,-0.5689,-0.5438,-0.5338,-0.4636,-0.4435,-0.4435,-0.4435,-0.4033,-0.3581,-0.3328,-0.3003,-0.2726,-0.2404,-0.214,-0.1934,-0.1934,-0.1713,-0.1501,-0.1501,-0.1476,-0.1456,-0.1456,-0.1468,-0.1426,-0.1276,-0.1202,0.0,-0.06,-0.0461,0.0092,0.1383,0.2395,0.3438,0.4604,0.0,0.0,0.6352,0.6357,0.6357,0.6347,0.6658,0.6942,0.7188,0.7449,0.7589,0.7573,0.7506,0.7397,0.7244,0.7685,0.7823,0.7797,0.8711,0.9366,0.9802,1.0318,1.1101,1.1929,1.1929,1.2347,1.2892,1.2892,1.297,1.3097,-1.7582,-1.7477,-1.7312,-1.7312,-1.7206,-1.6776,-1.5802,-1.5642,-1.5269,-1.4239,-1.397,-1.3868,-1.3868,-1.3706,-1.3599,-1.3599,-1.3599,-1.3275,-1.2467,-1.2254,-1.1714,-1.0747,-1.0692,-1.0692,-1.0692,-1.0497,-1.0213,-0.9847,-0.9697,-0.9579,-0.9579,-0.9579,-0.9579,-0.9579,-0.9579,-0.9579,-0.9579,-0.9579,-0.9579,-0.9529,-0.9529,-0.9529,-0.9529,-0.948,-0.9426,-0.9225,-0.8478,-0.8031,-0.758,-0.6239,-0.5691,-0.5441,-0.4784,-0.4533,-0.4483,-0.4033,-0.3831,-0.3781,-0.3833,-0.3481,-0.2927,-0.2422,-0.227,-0.217,-0.1718,-0.1597,-0.1579,-0.1579,-0.1554,-0.1533,-0.1533,-0.1508,-0.1489,-0.1493,-0.1465,-0.1376,-0.1123,0.0,-0.0923,-0.0478,-0.0238,0.0333,0.1475,0.2615,0.3664,0.4629,0.5675,0.0,0.0,0.6385,0.6437,0.6437,0.6742,0.6992,0.7338,0.7664,0.7834,0.7811,0.7689,0.7553,0.7453,0.8439,0.8763,0.8669,0.9758,1.0678,1.1429,1.1565,1.2086,1.2825,1.2825,1.297,1.3137,1.3137,1.3276,1.3519,-1.7582,-1.6829,-1.618,-1.618,-1.5322,-1.4561,-1.44,-1.44,-1.4293,-1.4132,-1.3275,-1.2684,-1.2684,-1.1823,-1.1232,-1.1232,-1.1232,-1.1555,-1.2363,-1.15,-1.0852,-1.0692,-1.0692,-1.0692,-1.0692,-1.0371,-1.003,-0.9669,-0.9591,-0.9579,-0.9579,-0.9579,-0.9579,-0.9579,-0.9579,-0.9579,-0.9579,-0.9579,-0.948,-0.9282,-0.9282,-0.9282,-0.9232,-0.9027,-0.852,-0.7865,-0.7521,-0.6376,-0.4979,-0.473,-0.4182,-0.3633,-0.3482,-0.343,-0.343,-0.3331,-0.3026,-0.2724,-0.3179,-0.2927,-0.2371,-0.1869,-0.1717,-0.1718,-0.1617,-0.1613,-0.161,-0.161,-0.1585,-0.1564,-0.1564,-0.154,-0.1528,-0.1553,-0.1347,-0.115,-0.1166,0.0,-0.0478,-0.0429,0.0619,0.138,0.157,0.3327,0.4546,0.4768,0.5718,0.6312,0.6404,0.6631,0.6742,0.6742,0.6992,0.7388,0.7889,0.7915,0.7891,0.7811,0.7787,0.7702,0.761,0.8672,0.9116,0.9179,1.1,1.1823,1.205,1.2835,1.3252,1.3387,1.3387,1.3417,1.3453,1.3453,1.3477,1.355,-1.5855,-1.5263,-1.4942,-1.4942,-1.446,-1.3863,-1.3275,-1.3166,-1.295,-1.2358,-1.1823,-1.15,-1.15,-1.1017,-1.0692,-1.0692,-1.0692,-1.0907,-1.1446,-1.1017,-1.0692,-1.0692,-1.0692,-1.0647,-1.0554,-1.0201,-0.9933,-0.9766,-0.9673,-0.9529,-0.9381,-0.9381,-0.9327,-0.9175,-0.9175,-0.9175,-0.9175,-0.9175,-0.9076,-0.8981,-0.8981,-0.8981,-0.8928,-0.8223,-0.772,-0.722,-0.6074,-0.5127,-0.4329,-0.388,-0.3531,-0.318,-0.318,-0.318,-0.313,-0.2876,-0.2573,-0.2371,-0.2373,-0.2171,-0.1919,-0.1667,-0.1617,-0.1617,-0.1617,-0.1617,-0.1617,-0.1617,-0.1606,-0.1546,-0.1396,-0.1375,-0.1312,-0.1176,-0.1033,0.0,0.0,-0.0546,-0.0149,0.0591,0.1228,0.2062,0.3189,0.417,0.502,0.561,0.6108,0.6432,0.6587,0.6742,0.6945,0.7244,0.7344,0.759,0.7988,0.7988,0.7955,0.7884,0.7884,0.7855,0.776,0.9364,1.001,1.0047,1.2032,1.2859,1.2905,1.3326,1.3513,1.3513,1.3513,1.3598,1.3725,1.3725,1.3815,1.4001,-1.4293,-1.3863,-1.3706,-1.3706,-1.3491,-1.3004,-1.2146,-1.1987,-1.1719,-1.0802,-1.0692,-1.0692,-1.0692,-1.0692,-1.0692,-1.0692,-1.0692,-1.0692,-1.0692,-1.0692,-1.0692,-1.0692,-1.0655,-1.053,-1.031,-0.9979,-0.9762,-0.9722,-0.9544,-0.9327,-0.9084,-0.9084,-0.8981,-0.8825,-0.8825,-0.8825,-0.8825,-0.8825,-0.8775,-0.8726,-0.8726,-0.8574,-0.8223,-0.7375,-0.6725,-0.6171,-0.4676,-0.3977,-0.3677,-0.3027,-0.2827,-0.2827,-0.2827,-0.2827,-0.2726,-0.2321,-0.222,-0.2119,-0.1718,-0.1617,-0.1617,-0.1617,-0.1617,-0.1617,-0.1617,-0.1617,-0.1566,-0.1516,-0.1516,-0.1415,-0.1162,-0.1098,-0.104,-0.0845,0.0,0.0,0.0,-0.0356,0.0154,0.1465,0.1815,0.272,0.4634,0.5035,0.5534,0.6337,0.6437,0.6589,0.6795,0.6895,0.7194,0.7696,0.7696,0.7793,0.7988,0.7988,0.7988,0.7988,0.7988,0.8076,0.8295,1.0075,1.0944,1.1207,1.2945,1.3701,1.3701,1.3701,1.3701,1.3701,1.3701,1.3821,1.3996,1.4043,1.4224,1.4442,-1.4137,-1.3275,-1.2521,-1.2521,-1.1664,-1.0907,-1.0852,-1.0852,-1.0802,-1.0692,-1.0692,-1.0692,-1.0692,-1.0692,-1.0692,-1.0692,-1.0692,-1.0692,-1.0692,-1.0692,-1.0692,-1.0692,-1.0542,-1.0286,-0.9933,-0.9646,-0.9458,-0.9252,-0.8985,-0.8825,-0.8825,-0.8825,-0.8825,-0.8825,-0.8825,-0.8825,-0.8825,-0.8825,-0.8676,-0.8432,-0.8432,-0.7829,-0.693,-0.6584,-0.5377,-0.382,-0.3423,-0.2672,-0.1818,-0.1718,-0.1718,-0.1718,-0.1718,-0.1718,-0.1718,-0.1667,-0.1667,-0.1667,-0.1617,-0.1617,-0.1617,-0.1617,-0.1617,-0.1617,-0.1617,-0.1617,-0.1516,-0.1263,-0.1212,-0.1162,-0.0859,-0.0807,-0.0862,-0.0877,0.0,0.0,-0.0413,-0.0204,0.0354,0.1463,0.2469,0.3525,0.4684,0.5687,0.6337,0.6387,0.6639,0.6795,0.6795,0.7294,0.7696,0.7942,0.7992,0.7988,0.7988,0.7988,0.7988,0.7988,0.7988,0.8524,0.9489,1.0663,1.1672,1.263,1.3753,1.4238,1.4238,1.4238,1.4238,1.4238,1.4238,1.425,1.4316,1.4561,1.4675,1.4736,-1.2146,-1.166,-1.1341,-1.1341,-1.1017,-1.0692,-1.0692,-1.0692,-1.0692,-1.0692,-1.0692,-1.0692,-1.0692,-1.0527,-1.0472,-1.0472,-1.0253,-1.0096,-1.0043,-1.0039,-1.0093,-1.0251,-0.9828,-0.9515,-0.9384,-0.9175,-0.9042,-0.8928,-0.8825,-0.8726,-0.8528,-0.8528,-0.8482,-0.8283,-0.8283,-0.8283,-0.8283,-0.8283,-0.7885,-0.7185,-0.7185,-0.6531,-0.5477,-0.4726,-0.3976,-0.3272,-0.2471,-0.1969,-0.1617,-0.1617,-0.1617,-0.1617,-0.1617,-0.1617,-0.1617,-0.1617,-0.1617,-0.1617,-0.1617,-0.1617,-0.1617,-0.1617,-0.1617,-0.1566,-0.1415,-0.1364,-0.1263,-0.101,-0.096,-0.0859,-0.0606,-0.0556,-0.0506,-0.0357,0.0,-0.0152,-0.0153,-0.0051,0.0656,0.2368,0.2972,0.3877,0.5634,0.6187,0.6487,0.6639,0.6742,0.6945,0.7294,0.7643,0.7892,0.7988,0.7988,0.7988,0.7988,0.7988,0.7988,0.7988,0.8676,0.9217,0.9657,1.1365,1.2339,1.278,1.3806,1.4298,1.4298,1.4298,1.4298,1.4298,1.4298,1.4394,1.4544,1.464,1.479,1.4981,-1.0852,-1.0692,-1.0692,-1.0692,-1.0692,-1.0692,-1.0692,-1.0637,-1.0582,-1.0582,-1.0472,-1.0417,-1.0417,-1.0253,-1.0123,-1.0069,-0.9847,-0.9667,-0.9556,-0.9391,-0.9414,-0.9727,-0.9301,-0.9052,-0.9,-0.8785,-0.8676,-0.8676,-0.8577,-0.8432,-0.8283,-0.8283,-0.8187,-0.7988,-0.7637,-0.7487,-0.7487,-0.7135,-0.6581,-0.5882,-0.5882,-0.5277,-0.4225,-0.3473,-0.2973,-0.2622,-0.1869,-0.1617,-0.1617,-0.1617,-0.1617,-0.1617,-0.1617,-0.1617,-0.1617,-0.1617,-0.1617,-0.1617,-0.1617,-0.1516,-0.1465,-0.1465,-0.1465,-0.1415,-0.1111,-0.1061,-0.101,-0.0707,-0.0657,-0.0606,-0.0303,-0.0253,-0.0202,-0.0051,0.0,0.0,0.0,0.0303,0.116,0.2972,0.3475,0.4429,0.6237,0.6387,0.6489,0.6795,0.6892,0.7141,0.7693,0.7892,0.7988,0.7988,0.7988,0.8187,0.8482,0.8187,0.8187,0.8528,0.9266,0.9948,1.0632,1.2047,1.2877,1.3216,1.4004,1.4346,1.4442,1.4442,1.4496,1.4544,1.4544,1.464,1.4838,1.4927,1.5077,1.5267,-1.0692,-1.0692,-1.0692,-1.0692,-1.0692,-1.0692,-1.0692,-1.0476,-1.0312,-1.0312,-1.0036,-0.9816,-0.9816,-0.9812,-0.9745,-0.9635,-0.9616,-0.9549,-0.9392,-0.8969,-0.8823,-0.9075,-0.9075,-0.8996,-0.8779,-0.8531,-0.8382,-0.8382,-0.8137,-0.7988,-0.7988,-0.7988,-0.7988,-0.7939,-0.6886,-0.6387,-0.6337,-0.5277,-0.4774,-0.4774,-0.4774,-0.4124,-0.3173,-0.3173,-0.2521,-0.1617,-0.1617,-0.1617,-0.1617,-0.1617,-0.1617,-0.1617,-0.1617,-0.1617,-0.1617,-0.1617,-0.1617,-0.1617,-0.1617,-0.1415,-0.1212,-0.1212,-0.1212,-0.1111,-0.0859,-0.0808,-0.0707,-0.0455,-0.0404,-0.0303,-0.0051,0.0,0.0,0.0,0.0,0.0,0.0,0.0958,0.2016,0.3073,0.413,0.5236,0.6287,0.6387,0.6489,0.6795,0.7042,0.7437,0.7988,0.7988,0.7988,0.7988,0.7988,0.8531,0.9608,0.8528,0.8528,0.9608,0.9608,1.0681,1.2678,1.2732,1.327,1.4298,1.4298,1.4442,1.4688,1.4688,1.4838,1.5083,1.5083,1.5083,1.5131,1.5404,1.5493,1.554,-1.0692,-1.0692,-1.0637,-1.0472,-1.0421,-1.0366,-1.0088,-0.9981,-0.9926,-0.9926,-0.9871,-0.9816,-0.9816,-0.9548,-0.9352,-0.9302,-0.9033,-0.8752,-0.8656,-0.8343,-0.8256,-0.8306,-0.8306,-0.8285,-0.8237,-0.8137,-0.8137,-0.8137,-0.8038,-0.7988,-0.7988,-0.7238,-0.6886,-0.6836,-0.5779,-0.5277,-0.5277,-0.4924,-0.4373,-0.3674,-0.3674,-0.3022,-0.207,-0.207,-0.1869,-0.1617,-0.1617,-0.1617,-0.1617,-0.1617,-0.1617,-0.1617,-0.1617,-0.1617,-0.1617,-0.1617,-0.1465,-0.1314,-0.1314,-0.1111,-0.096,-0.1162,-0.1061,-0.0859,-0.0556,-0.0505,-0.0455,-0.0152,-0.0101,-0.0101,0.0,0.0,0.0,0.0,0.0656,0.111,0.111,0.2066,0.3123,0.418,0.4582,0.5236,0.6287,0.6387,0.6489,0.6795,0.7244,0.7643,0.7988,0.7988,0.7988,0.7988,0.7988,0.8531,0.9608,0.9266,0.9657,1.0734,1.1463,1.2096,1.2727,1.3463,1.4004,1.4298,1.4496,1.464,1.4694,1.4885,1.5035,1.5083,1.5083,1.522,1.5404,1.5493,1.5588,1.5737,-1.0582,-1.0527,-1.0472,-1.0147,-1.0091,-1.0036,-0.9816,-0.9706,-0.9651,-0.9651,-0.9541,-0.9409,-0.9399,-0.9143,-0.8983,-0.8864,-0.8498,-0.8269,-0.8184,-0.8092,-0.7988,-0.7988,-0.7988,-0.7988,-0.7988,-0.7988,-0.7789,-0.7388,-0.7388,-0.7135,-0.6731,-0.6079,-0.5782,-0.5729,-0.4626,-0.4175,-0.4124,-0.3725,-0.3173,-0.2572,-0.2572,-0.217,-0.1617,-0.1617,-0.1617,-0.1617,-0.1617,-0.1617,-0.1617,-0.1617,-0.1617,-0.1617,-0.1617,-0.1516,-0.1465,-0.1465,-0.1263,-0.1061,-0.1061,-0.0859,-0.0657,-0.0859,-0.0758,-0.0556,-0.0303,-0.0253,-0.0202,-0.0051,0.0,0.0,0.0,0.0,0.0151,0.0555,0.116,0.1765,0.2167,0.3173,0.4079,0.4734,0.5186,0.5687,0.6337,0.6487,0.6692,0.7095,0.7494,0.7842,0.7988,0.7988,0.8187,0.863,0.8627,0.9361,1.0828,1.0828,1.117,1.1804,1.2387,1.2926,1.3366,1.4004,1.4298,1.4298,1.4592,1.4736,1.4885,1.5172,1.5315,1.5376,1.5534,1.5676,1.5827,1.5939,1.6027,1.6179,-1.0312,-1.0257,-1.0147,-0.9816,-0.9761,-0.9761,-0.9706,-0.9489,-0.9379,-0.9379,-0.9103,-0.8824,-0.8726,-0.8699,-0.8577,-0.8347,-0.813,-0.7988,-0.7988,-0.7988,-0.7988,-0.7988,-0.7889,-0.7839,-0.7839,-0.7839,-0.7388,-0.6387,-0.6287,-0.5779,-0.4774,-0.4724,-0.4674,-0.4624,-0.3524,-0.3074,-0.2973,-0.2019,-0.1617,-0.1617,-0.1617,-0.1617,-0.1617,-0.1617,-0.1617,-0.1617,-0.1617,-0.1617,-0.1617,-0.1617,-0.1566,-0.1566,-0.1566,-0.1364,-0.1162,-0.1162,-0.096,-0.0758,-0.0758,-0.0556,-0.0354,-0.0354,-0.0354,-0.0303,-0.0051,0.0,0.0,0.0,0.0,0.0051,0.0101,0.0151,0.0505,0.1563,0.1815,0.2217,0.3224,0.428,0.4935,0.4935,0.5834,0.6437,0.6437,0.6689,0.7045,0.7547,0.7842,0.7992,0.7988,0.7988,0.8482,0.9558,0.9608,1.0583,1.2684,1.2678,1.2732,1.2823,1.2823,1.3366,1.4298,1.4298,1.431,1.4382,1.4677,1.4936,1.5207,1.5482,1.5714,1.5884,1.6206,1.6362,1.6346,1.6607,1.6707,1.6707,-0.9926,-0.9926,-0.9816,-0.9544,-0.9489,-0.9379,-0.9158,-0.9047,-0.8992,-0.8992,-0.8937,-0.8824,-0.8726,-0.8604,-0.8462,-0.8337,-0.813,-0.7988,-0.7988,-0.7988,-0.7988,-0.7988,-0.7188,-0.6736,-0.6736,-0.6736,-0.6637,-0.6387,-0.5579,-0.5027,-0.4774,-0.3924,-0.3524,-0.3524,-0.2422,-0.1969,-0.1919,-0.1718,-0.1617,-0.1617,-0.1617,-0.1617,-0.1617,-0.1617,-0.1617,-0.1617,-0.1617,-0.1617,-0.1617,-0.1617,-0.1465,-0.1263,-0.1263,-0.1111,-0.0909,-0.0909,-0.0707,-0.0505,-0.0505,-0.0303,-0.0101,-0.0101,-0.0101,-0.0051,0.0,0.0,0.0,0.0,0.0,0.0252,0.111,0.1261,0.1613,0.267,0.3575,0.418,0.4431,0.5384,0.6034,0.6034,0.6439,0.6692,0.6692,0.6939,0.7241,0.7596,0.7646,0.7793,0.7988,0.7988,0.8482,0.9558,0.9608,1.0583,1.2684,1.2678,1.3119,1.3956,1.3956,1.4052,1.4298,1.4298,1.4509,1.4955,1.5206,1.5577,1.6037,1.6322,1.6464,1.652,1.6587,1.6613,1.662,1.6687,1.6707,1.674,-0.9651,-0.9599,-0.9489,-0.9213,-0.9158,-0.9103,-0.8937,-0.8885,-0.8885,-0.8885,-0.8885,-0.8824,-0.8726,-0.8574,-0.8394,-0.818,-0.8085,-0.7789,-0.7288,-0.7238,-0.6986,-0.6478,-0.5929,-0.5629,-0.5629,-0.5129,-0.4878,-0.4878,-0.4327,-0.3775,-0.3274,-0.2722,-0.2422,-0.2422,-0.1869,-0.1617,-0.1617,-0.1617,-0.1617,-0.1617,-0.1617,-0.1617,-0.1617,-0.1617,-0.1617,-0.1617,-0.1617,-0.1617,-0.1566,-0.1465,-0.1314,-0.1162,-0.1061,-0.0808,-0.0606,-0.0606,-0.005,0.0555,0.0555,0.1009,0.1412,0.0908,0.116,0.1261,0.0252,0.0404,0.0757,0.0757,0.116,0.1714,0.2267,0.2368,0.272,0.3776,0.4431,0.4985,0.5484,0.6034,0.6437,0.6589,0.6692,0.6895,0.7144,0.7294,0.7494,0.7793,0.7793,0.7842,0.7988,0.8482,0.9266,1.0342,1.0828,1.1853,1.3463,1.3588,1.3949,1.4497,1.4497,1.4497,1.4503,1.463,1.4905,1.5332,1.5588,1.5926,1.6319,1.6613,1.6707,1.672,1.686,1.6914,1.6934,1.7074,1.7121,1.7148,-0.9379,-0.9323,-0.9213,-0.8937,-0.8885,-0.8885,-0.8885,-0.8885,-0.8885,-0.8885,-0.8885,-0.8824,-0.8726,-0.8391,-0.7978,-0.7491,-0.745,-0.7086,-0.6184,-0.6134,-0.5729,-0.4824,-0.4624,-0.4524,-0.4524,-0.3473,-0.3022,-0.3224,-0.3022,-0.2471,-0.1617,-0.1617,-0.1617,-0.1617,-0.1617,-0.1617,-0.1617,-0.1617,-0.1617,-0.1617,-0.1617,-0.1617,-0.1617,-0.1617,-0.1617,-0.1617,-0.1566,-0.1516,-0.1415,-0.1212,-0.1111,-0.101,-0.0606,-0.0252,0.0,0.0151,0.1009,0.1865,0.1865,0.2519,0.2975,0.2124,0.2581,0.2785,0.1017,0.1269,0.1925,0.1932,0.2644,0.3304,0.3507,0.3558,0.3915,0.4981,0.5122,0.5411,0.6369,0.65,0.6589,0.6842,0.6892,0.7144,0.7646,0.7646,0.7743,0.7988,0.7988,0.8088,0.8283,0.9118,1.0145,1.1414,1.2327,1.3283,1.4364,1.4648,1.4787,1.4787,1.4879,1.4879,1.4837,1.5055,1.5379,1.572,1.598,1.6214,1.6513,1.6759,1.6854,1.6881,1.7179,1.728,1.7306,1.7548,1.7582,1.7582,-0.8992,-0.8995,-0.8937,-0.8885,-0.8885,-0.8885,-0.8885,-0.8885,-0.8885,-0.8885,-0.8885,-0.8824,-0.8726,-0.7663,-0.6513,-0.5406,-0.5273,-0.5175,-0.5027,-0.5027,-0.4974,-0.4824,-0.3924,-0.3423,-0.3423,-0.2371,-0.227,-0.3224,-0.227,-0.1717,-0.1617,-0.1617,-0.1617,-0.1617,-0.1617,-0.1617,-0.1617,-0.1617,-0.1617,-0.1617,-0.1617,-0.1617,-0.1617,-0.1617,-0.1617,-0.1566,-0.1314,-0.1111,-0.0909,-0.0859,-0.0707,-0.0353,0.0605,0.1109,0.1513,0.2418,0.2821,0.2972,0.2972,0.3073,0.3185,0.3182,0.3244,0.3311,0.3154,0.3127,0.3209,0.3313,0.3429,0.385,0.4746,0.4905,0.5273,0.6333,0.6455,0.6492,0.6856,0.6813,0.6842,0.7138,0.7341,0.7596,0.7942,0.7939,0.7942,0.7988,0.7988,0.8382,0.9316,0.9509,1.0485,1.2436,1.2877,1.354,1.466,1.492,1.5059,1.5059,1.5493,1.5628,1.5393,1.543,1.5884,1.6639,1.6645,1.6983,1.7416,1.7462,1.7468,1.7468,1.7508,1.7522,1.7528,1.7569,1.7582,1.7582,-0.8885,-0.838,-0.7878,-0.7878,-0.7371,-0.6924,-0.6924,-0.6924,-0.6924,-0.6924,-0.6924,-0.6903,-0.6851,-0.6212,-0.5545,-0.4969,-0.4873,-0.4575,-0.3927,-0.3924,-0.3624,-0.3022,-0.2572,-0.2321,-0.2321,-0.1818,-0.1818,-0.2321,-0.1818,-0.1617,-0.1617,-0.1617,-0.1617,-0.1617,-0.1617,-0.1617,-0.1617,-0.1617,-0.1617,-0.1617,-0.1617,-0.1617,-0.1566,-0.1415,-0.1364,-0.1364,-0.1061,-0.0505,0.0101,0.0252,0.0807,0.1512,0.2116,0.2418,0.2569,0.3073,0.3626,0.4079,0.4079,0.4564,0.4965,0.4437,0.479,0.5166,0.4723,0.5036,0.5218,0.4623,0.4992,0.5523,0.6004,0.6109,0.6268,0.6748,0.686,0.698,0.7087,0.7197,0.7419,0.767,0.793,0.8102,0.8177,0.817,0.8133,0.7995,0.8711,0.9307,0.9804,1.1057,1.2179,1.313,1.3841,1.4462,1.4938,1.5197,1.5382,1.5542,1.5916,1.6002,1.5741,1.6033,1.6489,1.7043,1.7043,1.7213,1.7582,1.7582,1.7582,1.7582,1.7582,1.7582,1.7582,1.7582,1.7582,1.7582]},{"header":{"parameterUnit":"m.s-1","parameterCategory":1,"la1":30.6,"la2":28.766,"lo1":-90.7593,"lo2":-88.6598,"dy":0.0162,"dx":0.0183,"nx":116,"ny":114,"refTime":"2023-05-29T12:00:00:Z","depth":0,"parameterNumber":3,"parameterNumberName":"V-component_of_WINDS"},"data":[0.0,0.0,0.0,0.0,0.0,0.0,0.0,0.0,0.0,0.0,0.0,0.0,0.0,0.0,0.0,0.0,0.0,0.0,0.0,0.0,0.0,0.0,0.0,0.0,0.0,0.0,0.0,0.0,0.0,0.0,0.0,0.0,0.0,0.0,0.0,0.0,0.0,0.0,0.0,0.0,0.0,0.0,0.0,0.0,0.0,0.0,0.0,0.0,0.0,0.0,0.0,0.0,0.0,0.0,0.0,0.0,0.0,0.0,0.0,0.0,0.0,0.0,0.0,0.0,0.0,0.0,0.0,0.0,0.0,0.0,0.0,0.0,0.0,0.0,0.0,0.0,0.0,0.0,0.0,0.0,0.0,0.0,0.0,0.0,0.0,0.0,0.0,0.0,0.0,0.0,0.0,0.0,0.0,0.0,0.0,0.0,0.0,0.0,0.0,0.0,0.0,0.0,0.0,0.0,0.0,0.0,0.0,0.0,0.0,0.0,0.0,0.0,0.0,0.0,0.0,0.0,0.0,0.0,0.0,0.0,0.0,0.0,0.0,0.0,0.0,0.0,0.0,0.0,0.0,0.0,0.0,0.0,0.0,0.0,0.0,0.0,0.0,0.0,0.0,0.0,0.0,0.0,0.0,0.0,0.0,0.0,0.0,0.0,0.0,0.0,0.0,0.0,0.0,0.0,0.0,0.0,0.0,0.0,0.0,0.0,0.0,0.0,0.0,0.0,0.0,0.0,0.0,0.0,0.0,0.0,0.0,0.0,0.0,0.0,0.0,0.0,0.0,0.0,0.0,0.0,0.0,0.0,0.0,0.0,0.0,0.0,0.0,0.0,0.0,0.0,0.0,0.0,0.0,0.0,0.0,0.0,0.0,0.0,0.0,0.0,0.0,0.0,0.0,0.0,0.0,0.0,0.0,0.0,0.0,0.0,0.0,0.0,0.0,0.0,0.0,0.0,0.0,0.0,0.0,0.0,0.0,0.0,0.0,0.0,0.0,0.0,0.0,0.0,0.0,0.0,0.0,0.0,0.0,0.0,0.0,0.0,0.0,0.0,0.0,0.0,0.0,0.0,0.0,0.0,0.0,0.0,0.0,0.0,0.0,0.0,0.0,0.0,0.0,0.0,0.0,0.0,0.0,0.0,0.0,0.0,0.0,0.0,0.0,0.0,0.0,0.0,0.0,0.0,0.0,0.0,0.0,0.0,0.0,0.0,0.0,0.0,0.0,0.0,0.0,0.0,0.0,0.0,0.0,0.0,0.0,0.0,0.0,0.0,0.0,0.0,0.0,0.0,0.0,0.0,0.0,0.0,0.0,0.0,0.0,0.0,0.0,0.0,0.0,0.0,0.0,0.0,0.0,0.0,0.0,0.0,0.0,0.0,0.0,0.0,0.0,0.0,0.0,0.0,0.0,0.0,0.0,0.0,0.0,0.0,0.0,0.0,0.0,0.0,0.0,0.0,0.0,0.0,0.0,0.0,0.0,0.0,0.0,0.0,0.0,0.0,0.0,0.0,0.0,0.0,0.0,0.0,0.0,0.0,0.0,0.0,0.0,0.0,0.0,0.0,0.0,0.0,0.0,0.0,0.0,0.0,0.0,0.0,0.0,0.0,0.0,0.0,0.0,0.0,0.0,0.0,0.0,0.0,0.0,0.0,0.0,0.0,0.0,0.0,0.0,0.0,0.0,0.0,0.0,0.0,0.0,0.0,0.0,0.0,0.0,0.0,0.0,0.0,0.0,0.0,0.0,0.0,0.0,0.0,0.0,0.0,0.0,0.0,0.0,0.0,0.0,0.0,0.0,0.0,0.0,0.0,0.0,0.0,0.0,0.0,0.0,0.0,0.0,0.0,0.0,0.0,0.0,0.0,0.0,0.0,0.0,0.0,0.0,0.0,0.0,0.0,0.0,0.0,0.0,0.0,0.0,0.0,0.0,0.0,0.0,0.0,0.0,0.0,0.0,0.0,0.0,0.0,0.0,0.0,0.0,0.0,0.0,0.0,0.0,0.0,0.0,0.0,0.0,0.0,0.0,0.0,0.0,0.0,0.0,0.0,0.0,0.0,0.0,0.0,0.0,0.0,0.0,0.0,0.0,0.0,0.0,0.0,0.0,0.0,0.0,0.0,0.0,0.0,0.0,0.0,0.0,0.0,0.0,0.0,0.0,0.0,0.0,0.0,0.0,0.0,0.0,0.0,0.0,0.0,0.0,0.0,0.0,0.0,0.0,0.0,0.0,0.0,0.0,0.0,0.0,0.0,0.0,0.0,0.0,0.0,0.0,0.0,0.0,0.0,0.0,0.0,0.0,0.0,0.0,0.0,0.0,0.0,0.0,0.0,0.0,0.0,0.0,0.0,0.0,0.0,0.0,0.0,0.0,0.0,0.0,0.0,0.0,0.0,0.0,0.0,0.0,0.0,0.0,0.0,0.0,0.0,0.0,0.0,0.0,0.0,0.0,0.0,0.0,0.0,0.0,0.0,0.0,0.0,0.0,0.0,0.0,0.0,0.0,0.0,0.0,0.0,0.0,0.0,0.0,0.0,0.0,0.0,0.0,0.0,0.0,0.0,0.0,0.0,0.0,0.0,0.0,0.0,0.0,0.0,0.0,0.0,0.0,0.0,0.0,0.0,0.0,0.0,0.0,0.0,0.0,0.0,0.0,0.0,0.0,0.0,0.0,0.0,0.0,0.0,0.0,0.0,0.0,0.0,0.0,0.0,0.0,0.0,0.0,0.0,0.0,0.0,0.0,0.0,0.0,0.0,0.0,0.0,0.0,0.0,0.0,0.0,0.0,0.0,0.0,0.0,0.0,0.0,0.0,0.0,0.0,0.0,0.0,0.0,0.0,0.0,0.0,0.0,0.0,0.0,0.0,0.0,0.0,0.0,0.0,0.0,0.0,0.0,0.0,0.0,0.0,0.0,0.0,0.0,0.0,0.0,0.0,0.0,0.0,0.0,0.0,0.0,0.0,0.0,0.0,0.0,0.0,0.0,0.0,0.0,0.0,0.0,0.0,0.0,0.0,0.0,0.0,0.0,0.0,0.0,0.0,0.0,0.0,0.0,0.0,0.0,0.0,0.0,0.0,0.0,0.0,0.0,0.0,0.0,0.0,0.0,0.0,0.0,0.0,0.0,0.0,0.0,0.0,0.0,0.0,0.0,0.0,0.0,0.0,0.0,0.0,0.0,0.0,0.0,0.0,0.0,0.0,0.0,0.0,0.0,0.0,0.0,0.0,0.0,0.0,0.0,0.0,0.0,0.0,0.0,0.0,0.0,0.0,0.0,0.0,0.0,0.0,0.0,0.0,0.0,0.0,0.0,0.0,0.0,0.0,0.0,0.0,0.0,0.0,0.0,0.0,0.0,0.0,0.0,0.0,0.0,0.0,0.0,0.0,0.0,0.0,0.0,0.0,0.0,0.0,0.0,0.0,0.0,0.0,0.0,0.0,0.0,0.0,0.0,0.0,0.0,0.0,0.0,0.0,0.0,0.0,0.0,0.0,0.0,0.0,0.0,0.0,0.0,0.0,0.0,0.0,0.0,0.0,0.0,0.0,0.0,0.0,0.0,0.0,0.0,0.0,0.0,0.0,0.0,0.0,0.0,0.0,0.0,0.0,0.0,0.0,0.0,0.0,0.0,0.0,0.0,0.0,0.0,0.0,0.0,0.0,0.0,0.0,0.0,0.0,0.0,0.0,0.0,0.0,0.0,0.0,0.0,0.0,0.0,0.0,0.0,0.0,0.0,0.0,0.0,0.0,0.0,0.0,0.0,0.0,0.0,0.0,0.0,0.0,0.0,0.0,0.0,0.0,0.0,0.0,0.0,0.0,0.0,0.0,0.0,0.0,0.0,0.0,0.0,0.0,0.0,0.0,0.0,0.0,0.0,0.0,0.0,0.0,0.0,0.0,0.0,0.0,0.0,0.0,0.0,0.0,0.0,0.0,0.0,0.0,0.0,0.0,0.0,0.0,0.0,0.0,0.0,0.0,0.0,0.0,0.0,0.0,0.0,0.0,0.0,0.0,0.0,0.0,0.0,0.0,0.0,0.0,0.0,0.0,0.0,0.0,0.0,0.0,0.0,0.0,0.0,0.0,0.0,0.0,0.0,0.0,0.0,0.0,0.0,0.0,0.0,0.0,0.0,0.0,0.0,0.0,0.0,0.0,0.0,0.0,0.0,0.0,0.0,0.0,0.0,0.0,0.0,0.0,0.0,0.0,0.0,0.0,0.0,0.0,0.0,0.0,0.0,0.0,0.0,0.0,0.0,0.0,0.0,0.0,0.0,0.0,0.0,0.0,0.0,0.0,0.0,0.0,0.0,0.0,0.0,0.0,0.0,0.0,0.0,0.0,0.0,0.0,0.0,0.0,0.0,0.0,0.0,0.0,0.0,0.0,0.0,0.0,0.0,0.0,0.0,0.0,0.0,0.0,0.0,0.0,0.0,0.0,0.0,0.0,0.0,0.0,0.0,0.0,0.0,0.0,0.0,0.0,0.0,0.0,0.0,0.0,0.0,0.0,0.0,0.0,0.0,0.0,0.0,0.0,0.0,0.0,0.0,0.0,0.0,0.0,0.0,0.0,0.0,0.0,0.0,0.0,0.0,0.0,0.0,0.0,0.0,0.0,0.0,0.0,0.0,0.0,0.0,0.0,0.0,0.0,0.0,0.0,0.0,0.0,0.0,0.0,0.0,0.0,0.0,0.0,0.0,0.0,0.0,0.0,0.0,0.0,0.0,0.0,0.0,0.0,0.0,0.0,0.0,0.0,0.0,0.0,0.0,0.0,0.0,0.0,0.0,0.0,0.0,0.0,0.0,0.0,0.0,0.0,0.0,0.0,0.0,0.0,0.0,0.0,0.0,0.0,0.0,0.0,0.0,0.0,0.0,0.0,0.0,0.0,0.0,0.0,0.0,0.0,0.0,0.0,0.0,0.0,0.0,0.0,0.0,0.0,0.0,0.0,0.0,0.0,0.0,0.0,0.0,0.0,0.0,0.0,0.0,0.0,0.0,0.0,0.0,0.0,0.0,0.0,0.0,0.0,0.0,0.0,0.0,0.0,0.0,0.0,0.0,0.0,0.0,0.0,0.0,0.0,0.0,0.0,0.0,0.0,0.0,0.0,0.0,0.0,0.0,0.0,0.0,0.0,0.0,0.0,0.0,0.0,0.0,0.0,0.0,0.0,0.0,0.0,0.0,0.0,0.0,0.0,0.0,0.0,0.0,0.0,0.0,0.0,0.0,0.0,0.0,0.0,0.0,0.0,0.0,0.0,0.0,0.0,0.0,0.0,0.0,0.0,0.0,0.0,0.0,0.0,0.0,0.0,0.0,0.0,0.0,0.0,0.0,0.0,0.0,0.0,0.0,0.0,0.0,0.0,0.0,0.0,0.0,0.0,0.0,0.0,0.0,0.0,0.0,0.0,0.0,0.0,0.0,0.0,0.0,0.0,0.0,0.0,0.0,0.0,0.0,0.0,0.0,0.0,0.0,0.0,0.0,0.0,0.0,0.0,0.0,0.0,0.0,0.0,0.0,0.0,0.0,0.0,0.0,0.0,0.0,0.0,0.0,0.0,0.0,0.0,0.0,0.0,0.0,0.0,0.0,0.0,0.0,0.0,0.0,0.0,0.0,0.0,0.0,0.0,0.0,0.0,0.0,0.0,0.0,0.0,0.0,0.0,0.0,0.0,0.0,0.0,0.0,0.0,0.0,0.0,0.0,0.0,0.0,0.0,0.0,0.0,0.0,0.0,0.0,0.0,0.0,0.0,0.0,0.0,0.0,0.0,0.0,0.0,0.0,0.0,0.0,0.0,0.0,0.0,0.0,0.0,0.0,0.0,0.0,0.0,0.0,0.0,0.0,0.0,0.0,0.0,0.0,0.0,0.0,0.0,0.0,0.0,0.0,0.0,0.0,0.0,0.0,0.0,0.0,0.0,0.0,0.0,0.0,0.0,0.0,0.0,0.0,0.0,0.0,0.0,0.0,0.0,0.0,0.0,0.0,0.0,0.0,0.0,0.0,0.0,0.0,0.0,0.0,0.0,0.0,0.0,0.0,0.0,0.0,0.0,0.0,0.0,0.0,0.0,0.0,0.0,0.0,0.0,0.0,1.7127,0.0,0.0,0.0,0.0,0.0,0.0,0.0,0.0,0.0,0.0,0.0,0.0,0.0,0.0,0.0,0.0,0.0,0.0,0.0,0.0,0.0,0.0,0.0,0.0,0.0,0.0,0.0,0.0,0.0,0.0,0.0,0.0,0.0,0.0,0.0,0.0,0.0,0.0,0.0,2.9446,2.9943,3.0572,3.017,2.9601,2.8859,0.0,0.0,0.0,0.0,0.0,0.0,0.0,0.0,0.0,0.0,0.0,0.0,0.0,0.0,0.0,0.0,0.0,0.0,0.0,0.0,0.0,0.0,0.0,0.0,0.0,0.0,0.0,0.0,0.0,0.0,0.0,0.0,0.0,0.0,0.0,0.0,0.0,0.0,0.0,0.0,0.0,0.0,0.0,0.0,0.0,0.0,0.0,0.0,0.0,0.0,0.0,0.0,0.0,0.0,0.0,0.0,0.0,0.0,0.0,0.0,0.0,0.0,0.0,0.0,0.0,0.0,0.0,0.0,0.0,0.0,0.0,1.6716,0.0,0.0,0.0,0.0,0.0,0.0,0.0,0.0,0.0,0.0,0.0,0.0,0.0,0.0,0.0,0.0,0.0,0.0,0.0,0.0,0.0,0.0,0.0,0.0,3.2105,3.2001,3.2055,0.0,0.0,0.0,0.0,0.0,0.0,0.0,0.0,3.0434,3.0121,2.9747,3.037,3.0958,3.1505,3.1548,3.1277,3.0705,2.978,0.0,0.0,0.0,0.0,0.0,0.0,0.0,0.0,0.0,0.0,0.0,0.0,0.0,0.0,0.0,0.0,0.0,0.0,0.0,0.0,0.0,0.0,0.0,0.0,0.0,0.0,0.0,0.0,0.0,0.0,0.0,0.0,0.0,0.0,0.0,0.0,0.0,0.0,0.0,0.0,0.0,0.0,0.0,0.0,0.0,0.0,0.0,0.0,0.0,0.0,0.0,0.0,0.0,0.0,0.0,0.0,0.0,0.0,0.0,0.0,0.0,0.0,0.0,1.706,1.6975,1.7357,1.5887,1.6164,1.7731,1.6746,1.6871,1.7687,0.0,0.0,0.0,0.0,0.0,0.0,0.0,0.0,0.0,0.0,0.0,0.0,0.0,0.0,0.0,0.0,0.0,0.0,0.0,0.0,0.0,0.0,3.3389,3.2984,3.2371,3.2196,3.1966,0.0,0.0,0.0,0.0,0.0,0.0,3.1541,3.2066,3.2293,3.2227,3.2501,3.2684,3.2757,3.2956,3.2972,3.2804,3.09,2.997,2.9746,0.0,0.0,0.0,0.0,0.0,0.0,0.0,0.0,0.0,0.0,0.0,0.0,0.0,0.0,0.0,0.0,0.0,0.0,0.0,0.0,0.0,0.0,0.0,0.0,0.0,0.0,0.0,0.0,0.0,0.0,0.0,0.0,0.0,0.0,0.0,0.0,0.0,0.0,0.0,0.0,0.0,2.4456,2.3959,0.0,0.0,0.0,0.0,0.0,0.0,0.0,0.0,0.0,0.0,0.0,0.0,0.0,0.0,1.7934,1.7886,1.8094,1.855,1.8422,1.8611,1.8988,1.8404,1.8289,1.8532,1.8399,0.0,1.7558,1.648,0.0,0.0,0.0,0.0,0.0,0.0,0.0,0.0,0.0,0.0,0.0,0.0,0.0,0.0,0.0,0.0,0.0,0.0,0.0,0.0,0.0,3.516,3.5201,3.4895,3.5013,3.4869,3.4231,0.0,0.0,0.0,0.0,3.312,3.2838,3.3119,3.3299,3.3367,3.3419,3.3634,3.4021,3.4105,3.3993,3.3729,3.2793,3.2055,3.1436,3.0908,0.0,0.0,0.0,0.0,0.0,0.0,0.0,0.0,0.0,0.0,0.0,0.0,0.0,0.0,0.0,0.0,0.0,0.0,0.0,0.0,0.0,0.0,0.0,0.0,0.0,0.0,0.0,0.0,0.0,0.0,0.0,0.0,0.0,0.0,0.0,0.0,0.0,0.0,0.0,2.4706,2.4381,2.4236,2.3593,2.282,0.0,0.0,0.0,0.0,0.0,0.0,0.0,0.0,0.0,1.8745,1.8442,1.8201,1.8,1.7505,1.7635,1.8331,1.8331,1.8523,1.8922,1.8264,1.8072,1.8241,1.7253,1.7365,1.8171,1.7347,1.6585,1.5859,0.0,0.0,0.0,0.0,0.0,1.2242,0.0,0.0,0.0,0.0,0.0,0.0,0.0,0.0,0.0,0.0,0.0,0.0,3.6534,3.7078,3.7375,3.7174,3.7286,3.7041,3.631,3.5862,0.0,0.0,3.4695,3.4631,3.4226,3.4375,3.4527,3.4621,3.4438,3.4687,3.5382,3.52,3.4954,3.4619,3.4586,3.3899,3.2738,3.2293,3.1734,3.1072,0.0,0.0,0.0,0.0,0.0,0.0,0.0,0.0,0.0,0.0,0.0,0.0,0.0,0.0,0.0,0.0,0.0,0.0,0.0,0.0,0.0,0.0,0.0,0.0,0.0,0.0,0.0,0.0,0.0,0.0,0.0,0.0,0.0,0.0,0.0,0.0,0.0,2.4526,2.4273,2.408,2.3372,2.2617,0.0,0.0,0.0,0.0,0.0,0.0,1.9192,1.9222,1.9183,1.8984,1.8434,1.808,1.7838,1.7302,1.7343,1.8,1.8121,1.8402,1.8812,1.8063,1.7902,1.808,1.6673,1.7082,1.8634,1.7873,1.7535,1.7415,1.6246,1.5242,1.4358,1.4295,1.3524,1.2676,0.0,0.0,0.0,0.0,0.0,0.0,0.0,0.0,0.0,0.0,0.0,3.8487,3.8554,3.8982,3.8963,3.8198,3.7455,3.6841,3.6415,3.5649,3.5066,3.4706,3.5313,3.5621,3.5601,3.6217,3.6557,3.6571,3.6045,3.6188,3.6973,3.6313,3.6011,3.6004,3.5925,3.4919,3.3214,3.2419,3.2084,3.1944,3.1028,0.0,0.0,0.0,0.0,0.0,0.0,0.0,0.0,0.0,0.0,0.0,0.0,0.0,0.0,0.0,0.0,0.0,0.0,0.0,0.0,0.0,0.0,0.0,0.0,0.0,0.0,0.0,0.0,0.0,0.0,0.0,0.0,0.0,0.0,0.0,0.0,0.0,0.0,2.3714,2.3075,0.0,0.0,0.0,0.0,2.0196,2.0167,1.9784,1.8772,1.9073,1.8904,1.8072,1.8451,1.825,1.7432,1.7757,1.7959,1.8,1.8451,1.8891,1.9262,1.8843,1.866,1.866,1.808,1.8201,1.8612,1.7755,1.7359,1.7315,1.7424,1.6419,1.4886,1.5162,1.4486,1.3425,0.0,0.0,0.0,0.0,0.0,0.0,0.0,0.0,0.0,3.8603,3.9314,3.9774,3.9793,4.0406,4.0695,4.0397,3.99,3.9207,3.8326,3.7775,3.7055,3.6218,3.6406,3.6545,3.6545,3.6689,3.6748,3.6748,3.6527,3.6803,3.7551,3.73,3.7234,3.7324,3.731,3.6452,3.496,3.3864,3.3013,3.2364,3.1804,3.1362,0.0,0.0,0.0,0.0,0.0,0.0,0.0,0.0,0.0,0.0,0.0,0.0,0.0,0.0,0.0,0.0,0.0,0.0,0.0,0.0,0.0,0.0,0.0,0.0,0.0,0.0,0.0,0.0,0.0,0.0,0.0,0.0,0.0,0.0,0.0,0.0,0.0,2.4418,2.3714,0.0,2.2553,2.2166,2.1471,2.0284,2.0586,2.0313,1.9152,1.9222,1.9143,1.8865,1.8772,1.854,1.825,1.808,1.8161,1.8451,1.8612,1.8772,1.8922,1.878,1.8531,1.8241,1.808,1.829,1.87,1.8362,1.8386,1.8562,1.8391,1.7462,1.6205,1.5991,1.523,1.4315,0.0,0.0,0.0,0.0,0.0,0.0,0.0,0.0,3.9006,3.957,4.0323,4.0903,4.1181,4.1683,4.1999,4.1999,4.1265,4.0428,3.9534,3.8955,3.8295,3.7411,3.7374,3.7374,3.7374,3.7166,3.705,3.705,3.6888,3.719,3.7906,3.7882,3.7914,3.799,3.7945,3.7194,3.584,3.5008,3.4144,3.3303,3.2848,3.2442,3.1998,0.0,0.0,0.0,0.0,0.0,0.0,0.0,0.0,0.0,0.0,0.0,0.0,0.0,0.0,0.0,0.0,0.0,0.0,0.0,0.0,0.0,0.0,0.0,0.0,0.0,0.0,0.0,0.0,0.0,0.0,0.0,0.0,0.0,0.0,0.0,2.5182,2.4825,2.4345,2.3787,2.3261,2.2964,2.2317,2.1126,2.1318,2.0934,1.9648,1.9618,1.9499,1.9301,1.9033,1.8851,1.87,1.8523,1.8523,1.87,1.8851,1.8891,1.8891,1.8891,1.8723,1.8434,1.8282,1.8482,1.8882,1.8772,1.8922,1.9253,1.8858,1.8162,1.7296,1.6828,1.5983,1.5039,0.0,0.0,0.0,0.0,0.0,0.0,0.0,3.9819,4.0023,4.0629,4.1232,4.1902,4.2683,4.2775,4.2742,4.2723,4.1274,4.0193,3.9782,3.9016,3.8439,3.8118,3.8101,3.8101,3.8101,3.7721,3.7523,3.7523,3.7204,3.7413,3.8131,3.8044,3.8038,3.8038,3.7913,3.7068,3.5771,3.5771,3.5419,3.4793,3.4111,3.3834,3.3732,0.0,0.0,0.0,0.0,0.0,0.0,0.0,0.0,0.0,0.0,0.0,0.0,0.0,0.0,0.0,0.0,0.0,0.0,0.0,0.0,0.0,0.0,0.0,0.0,0.0,0.0,0.0,0.0,0.0,0.0,0.0,0.0,0.0,2.5873,2.5453,2.5182,2.4825,2.479,2.4646,2.4236,2.3861,2.3383,2.2762,2.2348,2.1589,2.0323,2.0244,1.997,1.9378,1.9329,1.913,1.8758,1.9121,1.9112,1.8732,1.9112,1.9301,1.9301,1.9301,1.9301,1.9262,1.8882,1.8922,1.9262,1.8891,1.8962,1.9265,1.8871,1.8436,1.8044,1.7645,1.6727,1.5601,0.0,0.0,0.0,0.0,0.0,0.0,0.0,4.0081,4.0307,4.0916,4.1468,4.1916,4.2187,4.2052,4.1702,4.1107,4.0109,3.9365,3.8955,3.8768,3.8502,3.8118,3.8101,3.8101,3.8101,3.7982,3.793,3.793,3.7826,3.8043,3.8528,3.8758,3.8833,3.8807,3.9059,3.8435,3.7236,3.7236,3.6758,3.5941,3.4918,3.4464,3.4374,0.0,0.0,0.0,0.0,0.0,0.0,0.0,0.0,0.0,0.0,0.0,0.0,0.0,0.0,0.0,0.0,0.0,0.0,0.0,0.0,0.0,0.0,0.0,0.0,0.0,0.0,0.0,0.0,0.0,0.0,0.0,0.0,2.8344,2.6569,2.5744,2.5182,2.4825,2.479,2.4646,2.4236,2.4091,2.3812,2.3243,2.3111,2.2525,2.1271,2.1219,2.0882,2.0182,1.9907,1.9679,1.9566,1.9377,1.9222,1.9152,1.9271,1.9301,1.9301,1.9301,1.9301,1.9301,1.9192,1.9192,1.9301,1.9192,1.9192,1.9265,1.8871,1.8436,1.8009,1.7335,1.6649,1.6059,0.0,0.0,0.0,0.0,0.0,0.0,0.0,4.026,4.0578,4.1628,4.1945,4.2184,4.247,4.2066,4.1395,4.0471,3.9672,3.9096,3.8865,3.8894,3.8792,3.852,3.852,3.852,3.852,3.8378,3.8314,3.8314,3.8168,3.8217,3.8456,3.8651,3.8726,3.8686,3.8935,3.8573,3.7821,3.7681,3.7276,3.6638,3.5842,3.5305,3.4988,3.4712,3.4552,3.4431,3.4062,3.3937,3.3887,3.3485,0.0,0.0,0.0,0.0,0.0,0.0,0.0,0.0,0.0,0.0,0.0,0.0,0.0,0.0,0.0,0.0,0.0,0.0,0.0,0.0,0.0,0.0,0.0,0.0,2.9623,2.8935,2.7894,2.6637,2.5725,2.5385,2.5349,2.5323,2.5327,2.5018,2.471,2.4409,2.4056,2.343,2.2442,2.2411,2.2083,2.1381,2.0872,2.0542,2.0364,1.9798,1.9476,1.9301,1.9301,1.9301,1.9301,1.9301,1.9301,0.0,1.9301,1.9301,1.9301,1.9301,1.9301,0.0,0.0,0.0,0.0,0.0,1.6749,1.6517,0.0,0.0,0.0,0.0,0.0,0.0,0.0,4.0347,4.0844,4.2527,4.2428,4.2442,4.3095,4.2403,4.1466,4.0402,3.9666,3.9264,3.9242,3.9242,3.9215,3.9129,3.9129,3.9129,3.9115,3.8822,3.8655,3.8673,3.8453,3.8328,3.8295,3.8419,3.8457,3.8373,3.8405,3.8337,3.8164,3.7775,3.7464,3.7201,3.6794,3.6262,3.5616,3.5018,3.479,3.4767,3.46,3.4528,3.4528,3.4455,0.0,0.0,0.0,0.0,0.0,0.0,0.0,0.0,0.0,0.0,0.0,0.0,0.0,0.0,0.0,0.0,0.0,0.0,0.0,0.0,0.0,0.0,0.0,0.0,2.9962,2.9449,2.9394,2.7954,2.671,2.6323,2.6226,2.6382,2.6849,2.6241,2.5843,2.5873,2.5144,2.4404,2.3773,0.0,0.0,0.0,0.0,2.1574,2.1136,2.0411,1.9823,1.9366,1.932,1.9301,1.9301,1.9301,1.9301,1.9301,1.9301,1.9301,1.9301,1.9301,1.9301,1.9265,1.8871,1.8429,1.7999,1.7186,1.6938,0.0,0.0,0.0,0.0,0.0,0.0,0.0,0.0,4.0465,4.1056,4.2795,4.2183,4.1903,4.2792,4.1917,4.0863,3.9844,3.971,3.9625,3.9451,3.9386,3.936,3.9346,3.9346,3.9288,3.9183,3.9129,3.9055,3.8998,3.9645,3.9792,3.9488,4.0471,4.0609,4.0037,4.0326,4.0276,3.9948,3.9245,3.8833,3.8636,3.7918,3.7039,3.6156,3.6011,3.5968,3.5924,3.5509,3.5374,3.5283,3.4743,3.4552,3.4528,3.4431,3.4382,0.0,0.0,0.0,0.0,0.0,0.0,0.0,0.0,0.0,0.0,0.0,0.0,0.0,0.0,0.0,0.0,0.0,0.0,0.0,3.0791,3.0538,3.0256,3.0065,2.9197,2.8266,2.7274,2.6907,2.6777,2.6885,2.6747,2.6723,2.6816,2.6329,2.5771,2.5162,2.4829,0.0,2.3592,2.3123,2.2609,2.1974,2.1176,2.0438,1.9765,0.0,0.0,1.9301,1.9301,1.9301,1.9301,1.9301,1.9301,1.9301,1.9301,1.9301,1.9265,1.8871,1.8429,1.7989,1.7198,1.709,1.7304,0.0,0.0,0.0,0.0,0.0,0.0,0.0,4.0496,4.0977,4.2277,4.1944,4.1722,4.2068,4.1589,4.0847,3.984,3.9867,3.9851,3.9613,3.9588,3.9546,3.9405,3.9405,3.9373,3.9301,3.9301,3.9288,3.9261,4.0058,4.035,4.0167,4.1156,4.1388,4.1052,4.1227,4.1212,4.0981,3.9977,3.9496,3.9306,3.8304,3.7542,3.6983,3.6821,3.6557,3.628,3.611,3.6006,3.5898,3.556,3.5448,3.5448,3.5363,3.5334,3.5305,0.0,0.0,0.0,0.0,0.0,0.0,0.0,0.0,0.0,0.0,0.0,0.0,0.0,0.0,3.1824,3.1365,0.0,3.1014,3.0821,3.0934,3.0995,3.0862,3.0684,2.9994,2.8479,2.7792,2.7531,2.7693,2.7535,2.7447,2.7509,2.7059,2.6666,2.6359,2.5935,2.5516,2.5158,2.445,2.3759,2.3199,2.2237,2.1316,2.0436,2.0319,2.0079,1.9736,1.9736,1.9736,1.9736,1.942,1.9301,1.9301,1.9301,1.9301,1.9283,1.9169,1.8847,1.8329,1.7732,1.7488,1.7432,0.0,0.0,0.0,0.0,0.0,0.0,0.0,0.0,4.0804,4.17,4.1662,4.1536,4.1512,4.136,4.0921,4.006,4.0052,4.0011,3.9799,3.9851,3.9781,3.9552,3.957,3.9558,3.9546,3.9546,3.9514,3.9502,4.0263,4.071,4.0892,4.1633,4.2072,4.224,4.2168,4.2064,4.1845,4.0643,4.0034,3.9738,3.8589,3.8011,3.7823,3.756,3.7095,3.6597,3.6632,3.6571,3.6451,3.6385,3.6381,3.6364,3.636,3.6297,3.6251,3.6229,3.6127,0.0,0.0,0.0,0.0,0.0,0.0,0.0,0.0,3.4778,3.4144,3.3277,3.2722,3.2176,3.1481,3.1353,3.1264,3.1116,3.1461,3.1789,3.1905,3.1981,3.1535,3.0103,2.9026,2.8433,2.8542,2.8231,2.8002,2.8002,2.7574,2.736,2.736,2.6899,2.6652,2.6652,2.5695,2.4967,2.446,2.3371,2.2341,2.1419,2.1419,2.1129,2.0508,2.0508,2.0508,2.0459,2.007,1.9864,1.9874,1.9687,1.9569,1.9569,1.9597,1.9323,1.8817,1.8422,1.8055,1.7724,0.0,0.0,0.0,0.0,0.0,0.0,0.0,0.0,0.0,4.17,4.1123,4.0947,4.1771,4.1147,4.0596,4.0364,4.0195,4.011,4.0129,4.0158,4.0148,4.0101,4.0101,4.0071,4.0021,4.0021,3.9963,3.9836,4.0707,4.1486,4.2199,4.2993,4.3803,4.4523,4.4229,4.3685,4.2953,4.186,4.0989,4.0251,3.9318,3.8715,3.8321,3.8421,3.8077,3.7524,3.7209,3.7111,3.7054,3.6748,3.6661,3.6623,3.6523,3.6482,3.6423,3.6322,3.6251,3.6165,3.6161,3.5971,3.5795,3.5773,3.5706,3.5447,0.0,3.4536,3.407,3.2895,3.252,3.2203,3.1582,3.1842,3.2168,3.2138,3.2441,3.2837,3.3378,3.2768,3.2325,3.2469,3.0889,2.9513,2.8831,2.8578,2.8431,2.8431,2.8042,2.7841,2.7841,2.736,2.7103,2.7103,2.6599,2.6027,2.5367,2.4471,2.3628,2.2868,2.2505,2.2072,2.1545,2.1545,2.1545,2.1545,2.1838,2.1952,2.1914,2.0981,2.0644,2.0576,1.9863,1.9569,1.9446,1.9057,1.8766,1.8522,0.0,0.0,0.0,0.0,0.0,0.0,0.0,0.0,0.0,0.0,4.0727,4.0658,4.1039,4.0785,4.0573,4.0523,4.0481,4.0414,4.033,4.0356,4.0321,4.0214,4.0205,4.0196,4.0167,4.0167,4.012,4.0063,4.0871,4.1431,4.1785,4.2547,4.3092,4.3369,4.3238,4.29,4.238,4.1472,4.0798,4.0308,3.9454,3.8984,3.8803,3.8865,3.8744,3.8449,3.7825,3.7414,0.0,3.705,3.6869,3.6702,3.6623,3.6269,3.5931,3.6302,3.6028,3.5683,3.6002,3.5949,3.5773,3.5689,3.5644,3.5532,3.5195,3.5078,3.4666,3.3329,3.3013,3.268,3.1682,3.1946,3.2302,3.2302,3.2884,3.3396,3.3659,3.3613,3.3408,3.3115,3.2227,3.113,2.9653,2.8988,2.8618,2.851,2.8351,2.8243,2.8243,2.7829,2.7626,2.7626,2.7144,2.6764,2.6505,2.5872,2.5051,2.4111,2.3996,2.3476,2.2649,2.2649,2.2414,2.2065,2.2215,2.2291,2.2253,2.1849,2.1659,2.1621,2.0962,2.0624,2.0362,1.9626,1.914,1.8831,0.0,0.0,0.0,0.0,0.0,0.0,0.0,0.0,0.0,0.0,4.0496,4.0496,4.0496,4.0539,4.0573,4.0607,4.0646,4.0626,4.0477,4.0554,4.0531,4.0364,4.0364,4.0364,4.0364,4.0364,4.0364,4.0364,4.0898,4.1282,4.1512,4.204,4.2373,4.2543,4.2449,4.2181,4.1755,4.1085,4.0558,4.01,3.9466,3.917,3.9101,3.9101,3.9101,3.9013,3.8342,3.7733,3.7238,3.713,3.6784,3.6359,3.6204,3.5741,3.5347,3.5948,3.5828,3.557,3.5951,3.5971,3.5839,3.5689,3.5622,3.5577,3.5543,3.5514,3.5165,3.3978,3.3582,3.313,3.2007,3.2272,3.2676,3.263,3.345,3.4097,3.4032,3.4276,3.4264,3.3604,3.3227,3.242,3.0944,2.9845,2.9028,2.8618,2.8578,2.8538,2.851,2.8243,2.8082,2.8082,2.7615,2.74,2.74,2.6921,2.6205,2.5221,2.5314,2.4797,2.3706,2.3706,2.3438,2.2984,2.3084,2.3147,2.311,2.2813,2.2702,2.2664,2.2048,2.1669,2.1431,2.0692,1.9927,1.9257,0.0,0.0,0.0,0.0,0.0,0.0,0.0,0.0,0.0,0.0,0.0,0.0,0.0,4.0496,4.0531,4.058,4.0605,4.0628,4.0687,4.0746,4.079,4.0784,4.0784,4.0784,4.0784,4.0784,4.0784,4.0784,4.0803,4.1203,4.1977,4.1994,4.2437,4.3156,4.2839,4.225,4.1485,4.1214,4.0472,3.9539,3.9489,3.9337,3.9101,3.9101,3.9101,3.9041,3.8685,3.8071,3.732,3.6937,3.6284,3.5537,3.503,3.4836,3.4869,3.5154,3.5714,3.6262,3.6208,3.6101,3.5954,3.5839,3.5706,3.56,3.56,3.5543,3.5321,3.4688,3.4062,3.3391,3.2695,3.3159,3.3622,3.3485,3.4418,3.5085,3.4905,3.4769,3.4597,3.438,3.3673,3.3073,0.0,3.1267,2.9871,2.887,2.8803,2.8724,2.851,2.8471,2.8471,2.8471,2.8082,2.7881,2.7881,2.7429,2.6868,2.6256,2.6244,2.5716,2.4754,2.4754,2.4754,2.4754,2.5076,2.5194,2.5123,2.4156,2.3745,2.3672,2.2888,2.2553,2.2553,2.2515,2.1392,1.9883,0.0,0.0,0.0,0.0,0.0,0.0,0.0,0.0,0.0,0.0,0.0,0.0,0.0,0.0,0.0,0.0,4.064,4.0654,4.0759,4.0796,4.0844,4.0928,4.0932,4.0932,4.0932,4.0932,4.0932,4.0932,4.0932,4.1069,4.1341,4.1352,4.1437,4.1592,4.1487,4.1147,4.0623,4.054,4.019,3.9705,3.9705,3.9573,3.9376,3.9376,3.9259,3.9087,0.0,3.828,3.7378,3.7238,3.6487,3.5564,3.5335,3.5046,3.4852,3.5119,3.5714,3.628,3.6208,3.6182,3.6079,3.5861,3.5773,3.5706,3.5622,3.5577,3.5379,3.4736,3.4431,3.3962,3.2922,3.3203,3.3583,3.3638,3.4155,3.4661,3.5055,3.4865,3.4664,3.4597,3.423,0.0,0.0,0.0,0.0,2.9832,2.9172,2.8949,2.9302,2.8803,2.8657,2.9079,2.8578,2.8323,2.8323,2.8139,2.7783,2.721,2.6532,2.5779,2.5111,2.5111,2.5111,2.5147,2.5241,2.5312,2.5276,2.4933,2.4791,2.4707,2.3891,2.3599,2.3526,2.3058,2.2499,2.1935,0.0,0.0,0.0,0.0,0.0,0.0,0.0,0.0,0.0,0.0,0.0,0.0,0.0,0.0,0.0,0.0,0.0,4.0734,4.082,4.0863,4.0906,4.101,4.099,4.099,4.099,4.099,4.099,4.099,4.099,4.099,4.099,4.099,4.094,4.0872,4.0825,4.0635,4.0381,4.034,4.0194,3.9943,3.9943,3.9805,3.9597,3.9532,3.9383,0.0,3.9124,3.8437,3.7532,3.7256,3.6435,3.5487,3.5289,3.5281,3.5385,3.5405,3.5943,3.6541,3.6578,3.6582,3.6585,3.6633,3.6429,3.618,3.6068,3.5825,3.547,3.5052,3.48,3.4423,3.3598,3.3536,3.3604,3.3631,3.3803,3.4148,3.4768,3.4661,3.4567,3.4668,3.4597,3.4264,0.0,0.0,0.0,3.0871,3.0228,2.9999,3.0329,2.9704,2.9523,2.9935,2.9406,2.9157,2.9157,2.8922,2.8334,2.739,2.6526,2.5817,2.5312,2.5312,2.5312,2.5312,2.5312,2.5312,2.5312,2.5312,2.5312,2.5229,2.4743,2.4564,2.4564,2.4011,2.3694,2.3427,0.0,0.0,0.0,0.0,0.0,0.0,0.0,0.0,0.0,0.0,0.0,0.0,0.0,0.0,0.0,0.0,0.0,0.0,4.0902,4.0958,4.0997,4.1003,4.1003,4.1003,4.1003,4.1003,4.1003,4.1003,4.1003,4.1003,4.1003,4.1003,4.1019,4.099,4.0876,4.0761,4.0699,4.0635,4.0441,4.0223,4.0223,4.0062,3.9797,3.9585,3.9495,3.9458,3.9192,3.8618,3.7838,3.7021,3.6183,3.538,3.4942,3.5559,3.6346,3.598,3.6357,3.6956,3.7232,3.7303,3.7448,3.7967,3.7563,3.6973,3.6835,3.618,3.56,3.56,3.5201,3.4793,3.464,3.4178,3.3755,3.3547,3.3543,3.3678,3.4146,3.4233,3.4357,3.4691,3.4698,3.4631,3.4414,0.0,0.0,3.2015,0.0,3.1746,3.1573,3.118,3.0932,3.097,3.057,3.0355,3.0317,2.9755,2.8604,2.6998,2.6456,2.5913,2.5347,2.5347,2.5347,2.5312,2.5312,2.5312,2.5312,2.5312,2.5312,2.5312,2.5347,2.5453,2.5571,2.5382,2.4969,2.4337,0.0,0.0,0.0,0.0,0.0,0.0,0.0,0.0,0.0,0.0,0.0,0.0,0.0,0.0,0.0,0.0,0.0,0.0,4.0975,4.0986,4.1033,4.1145,4.1146,4.1146,4.1146,4.1146,4.1146,4.1146,4.1146,4.1146,4.1146,4.1146,4.1095,4.1001,4.0964,4.0859,4.0709,4.0687,4.0568,4.0414,4.0414,4.0285,4.0062,3.9827,3.9632,3.9458,3.9192,3.8929,3.8591,3.7862,3.6978,3.6247,3.6374,3.6578,3.6747,3.6654,3.6742,3.6976,3.7357,3.7452,3.758,3.8185,3.778,3.7165,3.6996,3.6333,3.5728,3.5622,3.5492,3.527,3.484,3.4464,3.4124,3.3763,3.3921,3.4182,3.4399,3.4731,3.4922,3.4854,3.475,3.4631,3.4414,3.423,0.0,0.0,3.2519,3.1978,3.239,3.1746,3.1536,3.1988,3.1476,3.1031,3.0745,3.0317,2.9428,2.8145,2.803,2.7249,2.5978,2.6082,2.5826,2.5312,2.5453,2.543,2.5312,2.5453,2.5535,2.5535,2.5688,2.5793,2.584,2.5758,2.5653,2.55,0.0,0.0,0.0,0.0,0.0,0.0,0.0,0.0,0.0,0.0,0.0,0.0,0.0,0.0,0.0,0.0,0.0,0.0,0.0,4.1048,4.1082,4.1152,4.1172,4.1191,4.1191,4.1191,4.1191,4.1191,4.1191,4.1191,4.1191,4.1172,4.1129,4.1037,4.1017,4.0906,4.0736,4.0701,4.0623,0.0,0.0,4.0441,4.0285,3.9943,3.9739,3.9585,3.9192,3.9007,3.8894,3.8428,3.772,3.7002,3.7177,3.7434,3.762,3.7271,3.7152,3.7283,3.7819,3.7996,3.8124,3.8711,3.8322,3.7598,3.707,3.6316,3.5689,3.5622,3.56,3.5509,3.5201,3.4745,3.4249,3.3784,3.3814,3.3949,3.4041,3.4558,3.4887,3.489,3.4835,3.4683,3.4414,3.4414,3.4414,0.0,3.35,3.3101,3.3409,3.284,3.2648,3.2995,3.2541,3.206,3.1549,3.1053,3.0217,2.9077,2.8794,2.8105,2.6981,2.7082,2.6867,2.648,0.0,2.6389,2.6022,2.6126,2.6013,2.5758,2.5875,2.5945,2.6015,2.5945,2.5945,2.6015,0.0,0.0,0.0,0.0,0.0,0.0,0.0,0.0,0.0,0.0,0.0,0.0,0.0,0.0,0.0,0.0,0.0,0.0,0.0,0.0,4.1091,4.1091,4.1152,4.1191,4.1191,4.1191,4.1191,4.1191,4.1191,4.1191,4.1191,4.1132,4.1091,4.111,4.1044,4.0922,4.0799,4.0745,4.0636,4.0496,4.0496,4.0496,4.0457,0.0,3.9786,3.972,3.9178,3.8939,3.8881,3.8807,3.8332,3.7761,3.7672,3.8138,3.853,3.7756,3.7505,3.764,3.8287,3.8439,3.8589,3.9233,3.8774,3.794,3.7121,3.6237,3.5622,3.56,3.56,3.56,3.56,3.5021,3.4342,3.3802,3.3673,3.365,3.3608,3.419,3.472,3.4927,3.4935,3.4769,3.4481,3.4414,3.4414,3.4414,3.4414,3.4414,3.4414,3.4059,3.3874,3.3874,3.3563,3.3115,3.2577,3.1879,3.0998,2.9925,2.9315,2.8692,2.813,2.813,2.8084,2.7986,0.0,0.0,2.7056,2.7056,2.6744,2.6198,2.6233,2.6349,2.6487,2.6302,2.6349,2.6487,0.0,0.0,0.0,0.0,0.0,0.0,0.0,0.0,0.0,0.0,4.069,4.0815,0.0,0.0,0.0,0.0,0.0,0.0,0.0,0.0,0.0,4.1108,4.1111,4.1112,4.1112,4.1172,4.1172,4.1112,4.1112,4.1111,4.1129,4.1108,4.1106,4.1101,4.1095,4.0986,4.0795,4.0796,4.0666,4.0496,4.0496,4.0496,4.0438,3.9913,0.0,0.0,3.9055,3.8837,3.8807,3.8735,3.8673,3.8589,3.8517,3.8597,3.853,3.7756,3.7505,3.7516,3.7662,3.7702,3.7853,3.8572,3.8104,3.7408,3.7115,3.6389,3.5728,3.5622,3.56,3.56,3.56,3.5435,3.5095,3.4382,3.4702,3.4848,3.4264,3.4816,3.5257,3.5166,3.5001,3.4835,3.4664,3.4481,0.0,0.0,0.0,3.4414,3.4414,3.4346,3.4312,3.4312,3.3908,3.3652,3.3548,3.2617,3.1796,3.1116,3.0503,2.9651,2.8661,2.8817,2.8578,2.8019,0.0,0.0,2.7822,2.792,2.792,2.7822,2.7973,2.8084,2.8117,2.8051,2.8084,2.8117,0.0,0.0,0.0,0.0,0.0,0.0,0.0,3.9166,3.9595,4.0127,4.0234,4.0407,4.0766,4.0867,0.0,0.0,0.0,0.0,0.0,0.0,0.0,0.0,4.1108,4.111,4.111,4.113,4.113,4.111,0.0,4.1108,4.1107,4.1104,4.1101,4.1098,4.1095,4.0986,4.081,4.081,4.0678,4.0496,4.0496,4.05,4.0436,0.0,0.0,0.0,3.8902,3.8777,3.875,3.8723,3.8719,3.875,3.8723,3.8707,3.853,3.7756,3.7614,3.772,3.7547,3.7607,3.7741,3.7883,3.7556,3.7067,3.6536,3.605,3.5667,3.5622,3.56,3.56,3.56,3.5543,3.5274,3.4609,3.4945,3.5104,3.4494,3.4988,3.5358,3.5201,3.5001,3.4835,3.4698,3.4515,3.4414,3.4414,0.0,3.4414,3.4414,3.4414,3.4414,3.4414,3.4196,3.3969,3.3638,3.2806,3.2064,3.1454,3.084,3.0275,2.9747,2.9837,2.9699,2.9345,2.9407,0.0,2.8839,2.8903,2.8698,2.8363,2.846,2.8492,2.8492,2.8492,2.8492,2.8524,0.0,0.0,0.0,0.0,0.0,0.0,0.0,3.8237,3.8664,3.9488,3.9602,3.9842,4.046,4.067,4.0786,0.0,0.0,0.0,0.0,0.0,0.0,0.0,0.0,0.0,4.1105,0.0,0.0,4.1105,4.1105,0.0,0.0,0.0,0.0,0.0,4.1083,4.0967,4.0806,4.0781,4.0661,0.0,0.0,4.0479,0.0,0.0,0.0,0.0,0.0,3.875,3.8707,3.8707,3.8707,3.8707,3.8707,3.8673,3.853,3.7809,3.7774,3.7847,3.7443,3.7474,3.7523,3.7111,3.6908,3.6643,3.5953,3.5706,3.56,3.56,3.56,3.56,3.56,3.5549,3.5367,3.4864,3.5046,3.511,3.4713,3.5038,3.5278,3.5239,3.5077,3.4902,3.4831,3.4616,0.0,0.0,0.0,0.0,3.4414,3.4414,3.4414,3.4414,3.4283,3.3978,3.3503,3.2687,3.2002,3.148,3.0872,3.0598,3.0598,3.0598,3.0598,3.0598,3.0598,0.0,0.0,2.9808,2.9484,2.8985,2.8953,2.8985,2.8985,2.8985,2.8985,2.9016,0.0,0.0,0.0,0.0,0.0,0.0,0.0,3.6788,3.7574,3.8516,3.8641,3.8972,3.9882,4.0205,4.0442,0.0,0.0,0.0,0.0,0.0,0.0,0.0,0.0,0.0,0.0,0.0,0.0,4.1099,4.1099,0.0,0.0,0.0,0.0,0.0,0.0,4.0937,4.0781,4.0666,0.0,0.0,0.0,0.0,0.0,0.0,0.0,0.0,0.0,3.8707,3.8707,3.8707,3.8707,3.8707,3.8707,3.8609,3.8446,3.8069,3.7879,3.765,3.6904,3.6716,3.6617,3.623,3.6029,3.5902,3.5812,3.5706,3.56,3.56,3.56,3.56,3.56,3.56,3.5532,3.5429,3.5414,3.531,3.5169,3.5219,3.5309,3.5278,3.5198,3.518,3.5148,3.4968,3.4802,0.0,0.0,0.0,3.4414,3.4414,3.4414,3.4414,3.3862,3.3561,3.3503,3.2237,3.1553,3.148,3.0872,3.0598,3.0598,3.0598,3.0598,3.0598,0.0,0.0,0.0,3.0507,3.0538,3.0568,3.0447,3.0477,3.0598,3.0598,3.0598,3.0628,0.0,0.0,0.0,0.0,0.0,0.0,3.5689,3.608,3.6801,3.8143,3.8348,3.8738,3.9675,3.9873,4.0081,0.0,0.0,0.0,0.0,0.0,0.0,0.0,0.0,0.0,0.0,0.0,4.1106,4.1093,4.1093,0.0,0.0,0.0,0.0,0.0,0.0,4.0781,4.0609,4.0565,0.0,0.0,0.0,0.0,0.0,0.0,0.0,0.0,0.0,0.0,3.8707,3.8707,3.8707,3.8707,3.8707,3.8609,3.8428,3.8103,3.8086,3.8,3.717,3.6935,3.6796,3.6346,3.6023,3.5773,3.5689,3.5644,3.56,3.56,3.56,3.56,3.56,3.56,3.5577,3.5571,3.5509,3.5421,3.533,3.568,3.5909,3.5888,3.6152,3.6352,0.0,0.0,3.6025,0.0,0.0,0.0,3.5835,3.5252,3.4677,3.4215,3.403,3.3515,3.2735,3.1911,3.1322,3.0945,3.0998,3.1014,3.1043,3.1436,3.1407,3.1043,0.0,0.0,0.0,3.0851,3.0925,3.0984,3.0925,3.0925,3.0984,3.0984,3.0984,3.1014,0.0,0.0,0.0,0.0,0.0,3.4521,3.5208,3.5366,3.5876,3.7304,3.7746,3.8256,3.9202,3.9531,3.9799,4.009,0.0,0.0,0.0,0.0,0.0,0.0,0.0,0.0,0.0,0.0,4.0977,4.0981,4.0981,4.0989,0.0,0.0,4.0882,4.0834,0.0,0.0,0.0,0.0,0.0,0.0,0.0,0.0,0.0,0.0,0.0,0.0,0.0,0.0,0.0,0.0,0.0,3.8707,3.8707,3.8609,3.8444,3.8219,3.817,3.8034,3.7339,3.7015,3.6756,3.6287,3.5958,3.5728,3.5622,3.56,3.56,3.56,3.56,3.56,3.56,3.56,3.56,3.56,3.5543,3.5459,3.5382,3.5722,3.5964,3.5916,3.6269,3.6627,0.0,3.687,0.0,0.0,0.0,0.0,0.0,3.606,3.5256,3.46,3.4162,3.3486,3.2526,3.2065,3.159,3.1102,3.1522,3.1722,3.1722,3.2182,3.217,3.1722,0.0,0.0,0.0,3.1508,3.161,3.1667,3.161,3.161,3.1638,3.1452,3.1409,3.1423,0.0,0.0,0.0,0.0,0.0,0.0,3.4404,3.4404,3.4745,3.5701,3.6529,3.7359,3.8213,3.9133,3.9705,3.9705,0.0,0.0,0.0,0.0,0.0,0.0,0.0,0.0,0.0,0.0,4.0696,4.0696,4.0696,4.0696,4.0696,4.069,4.069,4.0704,0.0,0.0,0.0,0.0,0.0,0.0,0.0,0.0,0.0,0.0,0.0,0.0,0.0,0.0,0.0,0.0,0.0,0.0,0.0,3.8609,3.851,3.851,3.8118,3.7595,3.7133,3.6661,3.6195,3.5734,3.56,3.56,3.56,3.56,3.56,3.56,3.56,3.56,3.56,3.56,3.56,3.56,3.5543,3.5446,3.5331,3.5235,3.5156,3.5027,3.5136,3.5515,3.6253,3.6798,0.0,0.0,0.0,0.0,0.0,3.6719,3.6237,3.571,3.4131,3.3295,3.328,3.2893,3.2567,3.2281,3.2552,3.2671,3.2671,3.2698,3.2698,0.0,0.0,0.0,0.0,3.2671,3.281,3.296,3.2768,3.281,3.2906,3.2324,3.2102,3.2061,0.0,0.0,0.0,0.0,0.0,0.0,0.0,3.4305,3.4862,3.6292,3.6739,3.7468,3.8895,3.9358,3.9558,3.9558,0.0,0.0,0.0,0.0,0.0,0.0,0.0,0.0,0.0,0.0,4.0651,4.071,4.071,4.0688,4.0628,4.0584,4.0538,4.0499,4.0391,4.0356,0.0,0.0,0.0,0.0,0.0,0.0,0.0,0.0,0.0,0.0,0.0,0.0,0.0,0.0,0.0,0.0,0.0,0.0,0.0,3.8446,3.8318,3.8068,3.7614,3.7151,3.6681,3.6199,3.5827,3.56,3.56,3.56,3.56,3.56,3.56,3.56,3.56,3.56,3.56,3.56,3.5577,3.5543,3.5446,3.5769,3.6158,3.6529,3.7433,3.809,0.0,0.0,0.0,0.0,0.0,0.0,0.0,3.707,3.6313,3.5587,3.462,3.3884,3.3365,3.2915,3.2644,3.2579,3.2981,3.3166,3.3193,3.3691,0.0,0.0,0.0,0.0,0.0,3.2997,3.3077,3.3145,3.3077,3.3077,3.3103,3.3024,3.2997,3.2997,0.0,0.0,0.0,0.0,0.0,0.0,0.0,3.4512,3.5144,3.6211,3.6659,3.7387,3.8756,3.9244,3.9469,3.9495,0.0,0.0,0.0,0.0,0.0,0.0,0.0,0.0,0.0,4.0396,4.0431,4.0475,4.0475,4.0453,4.04,4.0321,4.03,4.036,4.0262,4.0244,0.0,0.0,0.0,0.0,0.0,0.0,3.9619,0.0,0.0,0.0,0.0,0.0,0.0,0.0,0.0,0.0,0.0,0.0,0.0,0.0,3.8399,3.8219,3.7596,3.7094,3.662,3.6156,3.5822,3.56,3.56,3.56,3.56,3.56,3.56,3.56,3.56,3.56,3.56,3.56,3.56,3.5571,3.5429,3.574,3.6191,3.6729,3.8032,0.0,0.0,0.0,0.0,0.0,0.0,0.0,0.0,0.0,3.6214,3.5695,3.4923,3.4275,3.3809,3.3624,3.3495,3.3391,3.3767,3.396,3.3986,3.4456,0.0,0.0,0.0,0.0,0.0,3.386,3.3935,3.3919,3.3986,3.3986,3.3969,3.3843,3.3777,3.3777,0.0,0.0,0.0,0.0,0.0,0.0,0.0,0.0,3.5379,3.5516,3.6223,3.7048,3.7919,3.8784,3.9346,3.9444,0.0,0.0,0.0,0.0,0.0,0.0,0.0,0.0,0.0,4.0077,4.0096,4.0096,4.0096,4.0096,4.0077,3.9973,4.0036,4.0282,4.0137,4.0157,0.0,0.0,0.0,0.0,0.0,0.0,0.0,0.0,0.0,0.0,0.0,0.0,0.0,0.0,0.0,0.0,0.0,0.0,0.0,0.0,0.0,0.0,0.0,3.6721,3.6301,3.5805,3.5672,3.5644,3.5644,3.5622,0.0,3.56,3.56,3.56,3.56,3.56,3.56,3.56,3.56,3.5566,3.5404,3.5425,3.5592,0.0,3.7334,0.0,0.0,0.0,0.0,0.0,0.0,0.0,0.0,0.0,3.5976,3.5926,3.5029,3.4521,3.4521,3.478,3.4763,3.4521,3.478,3.4899,3.4899,3.4899,0.0,0.0,0.0,0.0,0.0,3.5041,3.5105,3.5128,3.5245,3.5291,3.5245,3.4666,3.448,3.4431,0.0,0.0,0.0,0.0,0.0,0.0,0.0,0.0,0.0,0.0,3.5458,3.6261,3.7095,3.7961,3.8594,0.0,0.0,0.0,0.0,0.0,0.0,0.0,0.0,0.0,0.0,3.9881,3.9962,3.9962,3.9962,3.9962,3.9962,3.9911,3.9933,3.9994,3.9954,3.9954,0.0,0.0,0.0,0.0,0.0,0.0,0.0,0.0,0.0,0.0,4.0665,4.0215,0.0,0.0,0.0,0.0,0.0,0.0,0.0,0.0,3.8272,3.8172,3.7542,0.0,3.7245,3.6721,3.635,3.6131,0.0,3.5849,3.56,3.56,3.56,3.56,3.56,3.56,3.56,3.56,3.56,3.574,3.6169,3.6566,3.6829,3.6846,3.7751,3.8334,0.0,0.0,0.0,0.0,0.0,0.0,0.0,0.0,3.5744,3.5181,3.4934,3.4804,3.4804,3.4875,3.4875,3.4804,3.4875,3.4899,3.4899,3.4994,0.0,0.0,0.0,0.0,3.5058,3.5105,3.5175,3.5245,3.5291,3.5291,3.5291,3.5268,3.5251,3.5251,0.0,0.0,0.0,0.0,0.0,0.0,0.0,0.0,0.0,0.0,0.0,0.0,0.0,0.0,0.0,0.0,0.0,0.0,0.0,0.0,0.0,0.0,0.0,3.9258,3.9686,3.9781,3.9804,3.9804,3.9804,3.9804,3.9804,3.9766,3.98,3.99,3.99,3.9878,0.0,0.0,0.0,0.0,3.9984,0.0,0.0,0.0,0.0,0.0,4.151,4.0895,0.0,3.9683,3.8978,3.8257,0.0,0.0,0.0,0.0,3.8241,3.8191,3.7897,3.7721,3.7487,3.7017,3.6597,3.6301,3.6301,3.5937,3.56,3.56,3.56,3.56,3.56,3.5761,3.5968,3.6141,3.631,3.6571,3.6979,3.7233,3.7486,3.7769,3.8203,0.0,0.0,0.0,0.0,0.0,0.0,0.0,0.0,0.0,3.5497,3.5105,3.5018,3.497,3.4899,3.4899,3.4923,3.4994,3.4994,3.5018,3.5105,3.5175,0.0,0.0,0.0,0.0,3.5198,3.5268,3.5331,3.5383,3.5429,3.5435,3.5458,3.5588,3.5611,3.5566,0.0,0.0,0.0,0.0,0.0,0.0,0.0,0.0,0.0,0.0,0.0,0.0,0.0,0.0,0.0,0.0,0.0,0.0,0.0,0.0,0.0,0.0,0.0,3.8583,3.938,3.9512,3.9587,3.9587,3.9587,3.9587,3.9587,3.9539,3.9631,3.9781,3.9781,3.9724,0.0,0.0,0.0,0.0,4.0518,0.0,0.0,0.0,0.0,0.0,0.0,0.0,0.0,3.9779,3.8929,3.8207,3.8274,0.0,0.0,0.0,0.0,0.0,3.8209,3.7915,3.7541,3.717,3.6799,3.6492,3.6492,3.6071,3.5711,3.5711,3.5644,3.5622,3.5689,3.598,3.6345,3.682,3.7364,3.7791,3.7939,3.7771,3.78,3.8355,3.8363,0.0,0.0,0.0,0.0,0.0,0.0,0.0,0.0,0.0,0.0,3.5291,3.5198,3.5081,3.497,3.4947,3.4994,3.5111,3.5111,3.5198,3.5291,3.5314,3.5314,0.0,0.0,0.0,3.5435,3.5543,3.5633,3.5728,3.5783,3.581,3.5832,3.5958,3.5937,3.5876,0.0,0.0,0.0,0.0,0.0,0.0,0.0,0.0,0.0,0.0,0.0,0.0,0.0,0.0,0.0,0.0,0.0,0.0,0.0,0.0,0.0,3.5673,3.7039,3.7868,3.8006,3.8665,3.9017,3.9017,3.9017,3.9017,3.9036,3.9202,3.9277,3.9317,3.9317,3.9219,3.9096,0.0,0.0,0.0,0.0,0.0,0.0,0.0,0.0,0.0,0.0,0.0,0.0,3.9779,3.8963,3.8274,3.8242,0.0,0.0,0.0,0.0,0.0,3.8209,3.814,3.8089,3.802,3.765,3.7321,3.7321,3.6721,3.6195,3.6195,3.5871,3.5717,3.611,3.5937,3.6043,3.7131,3.8356,3.9209,0.0,0.0,3.799,3.7709,0.0,0.0,0.0,0.0,0.0,0.0,0.0,0.0,0.0,0.0,0.0,3.5291,3.5268,3.5268,3.5245,3.5128,3.5152,3.5268,3.5268,3.5268,3.5291,3.5423,3.5423,0.0,0.0,3.5661,3.5985,3.6006,3.6287,3.6681,3.6764,3.6786,3.6805,3.6941,3.6962,3.6962,0.0,0.0,0.0,0.0,0.0,0.0,0.0,0.0,0.0,0.0,0.0,0.0,0.0,0.0,0.0,0.0,0.0,0.0,0.0,0.0,0.0,3.552,3.6683,3.7441,3.7687,3.8485,3.891,3.891,3.891,3.891,3.8892,3.8993,3.905,3.905,3.9073,3.8989,3.8781,3.8788,0.0,0.0,0.0,0.0,0.0,0.0,0.0,0.0,0.0,0.0,0.0,0.0,3.8963,3.829,3.8225,0.0,0.0,0.0,0.0,0.0,3.8209,3.8209,3.8209,3.8209,3.7845,3.7505,3.7505,3.7055,3.6618,3.6618,3.6454,3.6371,3.6577,3.6972,3.7737,3.9115,4.004,4.0595,4.0595,3.9502,3.873,0.0,0.0,0.0,0.0,0.0,0.0,0.0,0.0,0.0,0.0,0.0,0.0,0.0,3.6079,3.6079,3.6161,3.6037,3.5902,3.5739,3.5946,3.6079,3.6161,3.6241,3.6224,3.6161,0.0,3.635,3.6519,3.6519,3.6681,3.69,3.6962,3.7001,3.702,3.7135,3.7266,3.7359,0.0,0.0,0.0,0.0,0.0,0.0,0.0,0.0,0.0,0.0,0.0,0.0,0.0,0.0,0.0,0.0,0.0,0.0,0.0,0.0,3.5836,3.5804,3.6562,3.7169,3.7529,3.8324,3.8747,3.8747,3.8747,3.8758,3.8803,3.8803,3.8803,3.8803,3.8859,3.8737,3.8541,3.8637,3.8575,0.0,0.0,0.0,0.0,0.0,0.0,0.0,0.0,0.0,0.0,0.0,0.0,0.0,0.0,0.0,0.0,3.8209,3.8209,3.8209,3.8209,3.8209,3.8209,3.8209,3.7933,3.765,3.765,3.7339,3.7036,3.7036,3.6958,3.6919,3.7036,3.8083,3.9343,4.0556,4.125,4.1603,4.141,4.0228,0.0,0.0,0.0,0.0,0.0,0.0,0.0,0.0,0.0,0.0,0.0,0.0,3.69,0.0,3.6803,3.6803,3.69,3.6884,3.6704,3.6287,3.6603,3.6803,3.69,3.69,3.69,3.69,3.69,3.6958,3.7036,3.7036,3.7113,3.7227,3.7285,3.736,3.7396,3.7506,3.765,3.7773,0.0,0.0,0.0,0.0,0.0,0.0,0.0,0.0,0.0,0.0,0.0,0.0,0.0,0.0,0.0,0.0,0.0,0.0,0.0,0.0,3.658,3.5822,3.6562,3.7011,3.7043,3.7842,3.8259,3.8259,3.8259,3.8338,3.8541,3.8541,3.8541,3.8541,3.8523,3.8465,3.8323,3.834,3.837,3.8417,0.0,0.0,0.0,0.0,0.0,0.0,0.0,0.0,0.0,0.0,0.0,0.0,0.0,0.0,3.8209,3.8209,3.8209,3.8209,3.8209,3.8209,3.8209,3.8209,3.8157,3.814,3.814,3.7792,3.7469,3.7469,3.717,3.7017,3.7395,3.8699,3.977,3.9951,4.1196,4.1887,4.1138,0.0,0.0,0.0,0.0,0.0,0.0,0.0,0.0,0.0,0.0,0.0,0.0,0.0,0.0,0.0,0.0,3.69,3.69,3.7247,3.7228,3.6841,3.688,3.69,3.69,3.69,3.69,3.69,3.69,3.7113,3.7469,3.7469,3.7739,3.8206,3.8269,3.8417,3.858,3.8596,3.8611,3.8627,0.0,0.0,0.0,0.0,0.0,0.0,0.0,0.0,0.0,0.0,0.0,0.0,0.0,0.0,0.0,0.0,0.0,0.0,0.0,3.722,3.7426,3.7121,3.7526,3.7756,3.7756,3.8046,3.8209,3.8209,3.8209,3.8241,3.8305,3.8305,3.8305,3.8322,3.837,3.8322,3.8241,3.829,3.829,3.8327,3.8835,0.0,0.0,0.0,0.0,0.0,0.0,0.0,0.0,0.0,3.8354,3.8336,3.829,3.8289,3.8322,3.8274,3.8257,3.8241,3.8209,3.8209,3.8209,3.8209,3.8209,3.8209,3.8209,3.8054,3.7933,3.7933,3.781,3.8062,3.9158,4.0238,4.1138,4.168,4.1841,4.1786,0.0,0.0,0.0,0.0,0.0,0.0,0.0,0.0,0.0,0.0,0.0,0.0,0.0,0.0,0.0,3.7703,0.0,3.7703,3.7703,3.7863,3.7863,3.7703,3.7703,3.7703,3.7703,3.7703,3.7703,3.7703,3.7739,3.7862,3.8001,3.8051,3.8168,3.8368,3.843,3.8559,3.8707,3.8707,3.8719,3.878,0.0,0.0,0.0,0.0,0.0,0.0,0.0,0.0,0.0,0.0,0.0,0.0,0.0,0.0,0.0,0.0,0.0,0.0,3.6893,3.7449,3.7846,3.7986,3.8141,3.8209,3.8209,3.8209,3.8209,3.8209,3.8209,3.8209,3.8209,3.8209,3.8209,3.8209,3.8259,3.8241,3.8209,3.8241,3.8241,3.8263,3.8807,3.9204,0.0,0.0,0.0,0.0,0.0,0.0,0.0,0.0,3.8385,3.8382,3.8354,3.8352,3.8382,3.8354,3.8338,3.8322,3.829,3.8256,3.8257,3.8241,3.8242,3.8242,3.8209,3.8209,3.8209,3.8209,3.8209,3.8607,3.9912,4.0583,4.1234,0.0,4.1723,0.0,0.0,0.0,0.0,0.0,0.0,0.0,0.0,0.0,0.0,0.0,0.0,0.0,0.0,0.0,0.0,0.0,0.0,3.8209,3.8209,3.8209,3.8209,3.8209,3.8225,3.8242,3.8242,3.8242,3.8241,3.8274,3.8305,3.8338,3.8338,3.8385,3.8415,3.8446,3.8556,3.8652,3.8735,3.8735,3.8762,3.8837,0.0,0.0,0.0,0.0,0.0,0.0,0.0,0.0,0.0,0.0,0.0,0.0,0.0,0.0,0.0,0.0,0.0,0.0,3.7052,3.7357,3.7721,3.8192,3.8209,3.8209,3.8209,3.8209,3.8209,3.8209,3.8209,3.8209,3.8209,3.8209,3.8209,3.8209,3.8209,3.8209,3.8209,3.8209,3.8209,3.8209,3.8209,3.8712,3.9396,0.0,0.0,0.0,0.0,0.0,0.0,0.0,3.8462,3.8399,3.8399,3.8399,3.8399,3.8399,3.8399,3.8399,3.8399,3.8399,3.8366,3.8323,3.8307,3.829,3.8225,3.8209,3.8209,3.8209,3.8209,3.8462,3.926,3.9405,3.9641,4.0383,4.0617,0.0,0.0,0.0,0.0,0.0,0.0,0.0,0.0,0.0,0.0,0.0,0.0,0.0,0.0,0.0,0.0,0.0,0.0,0.0,3.8209,3.8209,3.8209,3.8209,3.8274,3.8307,3.8307,3.8307,3.8338,3.8399,3.8399,3.8399,3.8399,3.8399,3.8446,3.8525,3.8713,3.8807,3.8807,3.8807,3.8833,3.891,0.0,0.0,0.0,0.0,0.0,0.0,0.0,0.0,0.0,0.0,0.0,0.0,0.0,0.0,0.0,0.0,0.0,0.0,3.644,3.698,3.7504,3.7969,3.8106,3.8209,3.8209,3.8209,3.8209,3.8209,3.8209,3.8209,3.8209,3.8209,3.8242,3.8257,3.8225,3.8242,3.8257,3.8225,3.8209,3.8263,3.8808,3.8894,3.8689,0.0,0.0,0.0,0.0,0.0,0.0,0.0,0.0,0.0,3.8478,3.8528,3.8578,3.8494,3.8478,3.8462,3.8415,3.8399,3.8401,3.8385,3.8368,3.8368,3.8336,3.8274,3.8225,3.8257,3.8711,3.9199,3.9502,3.9994,0.0,4.0685,0.0,0.0,0.0,0.0,0.0,0.0,0.0,0.0,0.0,0.0,0.0,0.0,0.0,0.0,0.0,0.0,0.0,0.0,0.0,0.0,3.8336,3.8336,3.8336,3.8336,3.8352,3.8354,3.8307,3.8354,3.8385,3.8399,3.8446,3.8478,3.8478,3.8578,3.8609,3.8658,3.8762,3.8807,3.8807,3.8848,3.8906,3.8964,0.0,0.0,0.0,0.0,0.0,0.0,0.0,0.0,0.0,0.0,3.43,3.4546,0.0,0.0,0.0,0.0,0.0,0.0,0.0,3.6741,3.7282,3.7703,3.8038,3.8209,3.8209,3.8209,3.8209,3.8209,3.8209,3.8209,3.8209,3.8242,3.8259,3.8257,3.8259,3.8259,3.8257,3.8259,3.8241,3.8278,3.8768,3.8693,3.8361,0.0,0.0,0.0,0.0,0.0,0.0,0.0,0.0,0.0,3.8865,3.8956,3.8974,3.8781,3.8737,3.871,3.8559,3.853,3.8496,3.8446,3.8446,3.843,3.8399,3.8336,3.8289,3.8338,3.872,3.9173,3.9533,3.975,0.0,0.0,0.0,0.0,0.0,0.0,0.0,0.0,0.0,0.0,0.0,0.0,0.0,0.0,0.0,0.0,0.0,0.0,0.0,0.0,0.0,0.0,3.8399,3.8399,3.8399,3.8399,3.852,3.8582,3.8538,3.8478,3.8481,3.8512,3.8559,3.8575,3.8593,3.8658,3.8762,3.8869,3.896,3.9069,3.9154,3.9195,3.9261,3.9313,0.0,0.0,0.0,0.0,0.0,0.0,0.0,0.0,0.0,0.0,3.4546,3.4875,0.0,0.0,0.0,0.0,0.0,0.0,0.0,0.0,3.7055,3.7487,3.795,3.8209,3.8209,3.8209,3.8209,3.8209,3.8209,3.8209,3.8209,3.8274,3.8274,3.8207,3.8274,3.8312,3.8317,3.8383,3.8436,3.8508,3.8508,3.8454,3.8399,3.835,0.0,0.0,0.0,0.0,0.0,0.0,0.0,0.0,3.9408,3.9514,3.9446,3.9205,3.9142,3.9087,3.8837,3.878,3.8732,3.8615,3.8585,3.8569,3.8507,3.8478,3.8446,3.8415,3.8415,3.8652,3.9365,3.8925,3.867,0.0,0.0,0.0,0.0,0.0,0.0,0.0,0.0,0.0,0.0,0.0,0.0,0.0,0.0,0.0,0.0,0.0,0.0,0.0,0.0,0.0,3.8462,3.8462,3.8478,0.0,3.8799,3.8952,3.8938,3.8673,3.8621,3.8753,3.8753,3.875,3.878,3.878,3.8927,3.9152,3.9287,3.9489,3.9698,3.9709,3.9754,3.9797,0.0,0.0,0.0,0.0,0.0,0.0,0.0,0.0,0.0,0.0,0.0,0.0,0.0,0.0,0.0,0.0,0.0,0.0,0.0,0.0,3.6759,3.7469,3.795,3.8209,3.8209,3.8209,3.8242,3.8274,3.8274,3.8274,3.8274,3.829,3.8322,3.8352,3.8323,3.8636,3.9218,3.9235,3.9546,4.002,4.002,3.9711,3.9252,3.9284,3.8948,0.0,0.0,0.0,0.0,0.0,0.0,0.0,3.9471,3.9514,3.9502,3.9439,3.9408,3.9401,3.935,3.9337,3.9324,3.9292,3.9274,3.9292,3.9279,3.9091,3.8855,3.8538,3.8478,3.8564,3.8847,3.8737,0.0,0.0,0.0,0.0,0.0,0.0,0.0,0.0,0.0,0.0,0.0,0.0,0.0,0.0,0.0,0.0,0.0,0.0,0.0,3.8643,0.0,3.8747,3.896,3.896,3.9069,0.0,3.9344,3.9364,3.9351,3.9078,3.8989,3.9003,3.9003,3.9124,3.9337,3.932,3.9364,3.942,3.9559,3.9641,3.9709,3.9765,3.9786,3.9797,0.0,0.0,0.0,0.0,0.0,0.0,0.0,0.0,0.0,0.0,0.0,0.0,0.0,0.0,0.0,0.0,0.0,0.0,0.0,0.0,3.658,3.7469,3.795,3.8209,3.8209,3.8209,3.8225,3.8241,3.8322,3.8338,3.8307,3.8338,3.8354,3.8354,3.8755,3.914,3.9526,3.994,4.0306,4.0599,4.0599,4.0381,4.007,4.0103,3.9897,3.9648,3.9899,0.0,0.0,0.0,0.0,0.0,0.0,0.0,3.9859,3.9728,3.9693,3.967,3.952,3.9514,3.9514,3.9514,3.9514,3.9514,3.9514,3.9401,3.9227,3.9017,3.8766,3.8624,3.8692,3.8707,0.0,0.0,0.0,0.0,0.0,0.0,0.0,0.0,0.0,0.0,0.0,0.0,0.0,0.0,0.0,0.0,0.0,3.8935,3.9017,0.0,3.9021,3.9137,3.9298,3.9298,3.9363,3.9495,3.9635,3.9686,3.9679,3.9408,3.9292,3.93,3.9279,3.9395,3.9543,3.9512,3.9599,3.9786,3.987,3.9973,4.0091,4.012,4.0167,4.0185,0.0,0.0,0.0,0.0,0.0,0.0,0.0,0.0,0.0,0.0,0.0,0.0,0.0,0.0,0.0,0.0,0.0,0.0,0.0,0.0,0.0,3.7359,3.7915,3.8209,3.8209,3.8209,3.8225,3.8224,3.8336,3.8385,3.8338,3.8401,3.8385,3.8342,3.9225,3.9645,3.9761,4.0629,4.1047,4.1123,4.1141,4.105,4.0922,4.0958,4.0935,4.0939,4.1283,4.1522,4.1623,4.1395,0.0,0.0,0.0,0.0,4.0444,4.0065,3.9975,3.9914,3.9693,3.9647,3.9647,3.9647,3.9647,3.9647,3.9647,3.9611,3.9575,3.9575,3.9178,3.8837,3.8837,0.0,0.0,0.0,0.0,0.0,0.0,0.0,0.0,0.0,0.0,0.0,0.0,0.0,0.0,0.0,0.0,0.0,3.8851,3.9259,3.9401,3.9183,3.937,3.9508,3.9575,3.9575,3.9599,3.9647,3.9862,3.9979,3.9982,3.9766,3.9632,3.9595,3.9585,3.9637,3.9742,3.9698,3.987,4.0167,4.0167,4.0294,4.0496,4.0496,4.0539,4.0607,0.0,0.0,0.0,0.0,0.0,0.0,0.0,0.0,0.0,0.0,3.457,3.4899,0.0,0.0,0.0,0.0,0.0,0.0,3.5492,0.0,0.0,3.6978,3.7757,3.8209,3.8209,3.8209,3.8257,3.8366,3.8382,3.843,3.8478,3.8478,3.8446,3.8419,3.9239,3.9955,4.0596,4.1466,4.2195,4.2777,4.285,4.2449,4.1847,4.1953,4.173,4.1329,4.1449,4.1831,4.2267,4.223,4.2368,0.0,0.0,0.0,4.1208,4.0463,4.0244,4.0244,4.0196,4.0186,4.0186,4.0186,4.0186,4.0186,4.0186,4.0007,3.9859,3.9859,3.9592,3.9383,0.0,0.0,0.0,0.0,0.0,0.0,0.0,0.0,0.0,0.0,0.0,0.0,0.0,0.0,0.0,0.0,0.0,0.0,3.9401,3.9464,3.9471,3.9452,3.9489,3.9623,3.984,3.9859,3.9956,4.0186,4.0225,4.028,4.0325,4.0308,4.0148,3.9932,3.9932,4.0071,4.0298,4.0362,4.0396,4.0449,4.0452,4.0473,4.0496,4.0496,4.0539,4.0607,0.0,0.0,0.0,0.0,0.0,0.0,0.0,0.0,0.0,0.0,0.0,3.4899,0.0,0.0,0.0,3.4994,3.5158,3.5435,3.5822,3.6498,3.6997,3.7227,3.7863,3.8209,3.8209,3.8209,3.8241,3.8336,3.8385,3.8415,3.8446,3.8559,3.8834,3.923,3.9949,4.0735,4.1591,4.2339,4.2868,4.316,4.3196,4.3102,4.2961,4.3063,4.3082,4.3042,4.3262,4.3517,4.3706,4.3406,4.3361,4.3252,4.1915,0.0,0.0,0.0,4.0301,4.0291,4.03,4.0327,4.0364,4.0364,4.0364,4.0364,4.0364,4.0262,4.0187,4.0187,4.009,3.9897,0.0,0.0,0.0,0.0,0.0,0.0,0.0,0.0,0.0,0.0,0.0,0.0,0.0,0.0,0.0,0.0,0.0,3.9658,3.9514,3.9773,3.9892,3.9736,3.9876,3.9991,4.0129,4.0129,4.0168,4.029,4.0389,4.0432,4.0449,4.0463,4.0394,4.0279,4.0243,4.0314,4.0452,4.0482,4.0499,4.0503,4.0508,4.0496,4.0496,4.0539,4.0569,4.0605,0.0,0.0,0.0,0.0,0.0,0.0,0.0,0.0,0.0,0.0,0.0,0.0,0.0,0.0,0.0,0.0,3.5065,3.5441,3.6114,3.662,3.7094,3.7487,3.795,3.8209,3.8209,3.8225,3.8257,3.8322,3.8401,3.843,3.8481,3.8829,3.941,4.0154,4.062,4.135,4.2243,4.294,4.3251,4.3269,4.3357,4.3545,4.3772,4.3658,4.3841,4.4151,4.4399,4.4533,0.0,0.0,4.4331,4.4036,4.2354,4.182,0.0,0.0,0.0,4.0328,4.0335,4.0358,4.0427,4.0396,4.0402,4.0427,4.0396,4.0407,4.0407,0.0,4.0407,0.0,0.0,0.0,0.0,0.0,0.0,0.0,0.0,0.0,0.0,0.0,0.0,0.0,0.0,0.0,0.0,0.0,0.0,3.9914,3.9709,4.0078,4.0225,4.0022,4.0224,4.0325,4.0325,4.0325,4.0334,4.0342,4.0449,4.051,4.0507,4.05,4.05,4.0499,4.0447,4.0452,4.0496,4.0495,4.0503,4.0496,4.0496,4.0504,4.0531,4.058,4.0598,4.0628,0.0,0.0,0.0,0.0,0.0,0.0,0.0,0.0,0.0,0.0,0.0,0.0,3.4899,3.4899,3.4947,3.5065,3.5222,3.5554,3.6259,3.6678,3.7094,3.7487,3.795,0.0,3.8209,3.8257,3.8322,3.8382,3.8462,3.8559,3.871,3.9478,4.0267,4.104,4.0939,4.1365,4.226,4.3047,4.3394,4.3411,4.3798,4.3974,4.3909,4.3352,4.3339,4.3627,4.367,0.0,0.0,0.0,0.0,0.0,0.0,4.2737,4.2402,0.0,0.0,0.0,4.0388,4.0434,4.048,4.0411,4.0442,4.048,4.0411,4.0407,4.0407,4.0407,4.0407,0.0,0.0,0.0,0.0,0.0,0.0,0.0,0.0,0.0,0.0,0.0,0.0,0.0,0.0,0.0,0.0,0.0,0.0,4.0272,4.0252,4.027,4.0316,4.037,4.0398,4.0388,4.0388,4.0388,4.0432,4.0493,4.0502,4.0507,4.0489,4.0496,4.0496,4.0489,4.0508,4.0489,4.0496,4.0496,4.0496,4.0496,4.0496,4.0539,4.0607,4.0607,4.0631,4.0694,0.0,0.0,0.0,0.0,0.0,0.0,0.0,0.0,0.0,0.0,0.0,0.0,0.0,3.497,3.5041,3.5105,3.5554,3.6071,3.6658,3.7075,3.7487,3.7933,3.8106,3.8225,3.8257,3.829,3.8354,3.8462,3.8494,3.8831,3.9478,3.9772,4.0598,4.1866,4.1782,4.2221,4.3042,4.3301,4.3411,4.3497,4.3862,4.4091,4.4256,4.4212,4.4054,0.0,0.0,0.0,0.0,0.0,0.0,0.0,0.0,0.0,4.2479,4.0888,4.0485,4.0559,4.0623,4.1091,4.1518,4.1491,4.1474,4.1467,4.1431,4.0931,4.046,4.046,4.046,0.0,0.0,0.0,0.0,0.0,0.0,0.0,0.0,0.0,0.0,0.0,0.0,0.0,0.0,0.0,0.0,0.0,0.0,0.0,4.0362,4.0362,4.0388,4.0458,4.0458,4.0458,4.0458,4.0458,4.0485,4.0502,4.0495,4.05,4.0496,4.0496,4.0496,4.0504,4.0581,4.0586,4.0496,4.0496,4.0496,4.0504,4.0588,4.0642,4.0662,4.0762,4.0806,4.0839,0.0,0.0,0.0,0.0,0.0,0.0,0.0,0.0,0.0,3.4618,0.0,0.0,0.0,0.0,3.5152,3.5222,3.565,3.6224,3.686,3.7151,3.7559,3.8157,3.8209,3.8225,3.8257,3.829,3.8338,3.843,3.8478,3.898,3.9868,4.0159,4.102,4.2323,4.2496,4.2917,4.3463,4.3446,4.3446,4.3497,4.3952,4.425,4.4419,4.4504,0.0,0.0,0.0,0.0,0.0,0.0,0.0,0.0,0.0,0.0,0.0,4.1232,4.0809,4.0684,4.0786,4.147,4.2162,4.2111,4.2311,4.2449,4.2119,4.1519,4.0945,4.0668,4.061,0.0,0.0,0.0,0.0,0.0,0.0,0.0,0.0,0.0,0.0,0.0,0.0,0.0,0.0,0.0,0.0,0.0,0.0,0.0,4.0432,4.0432,4.0458,4.0507,4.0507,4.0507,4.0507,4.0507,4.0507,4.0507,4.0554,4.0571,4.0579,4.0589,4.061,4.0616,4.0686,4.0668,4.0579,4.0589,4.0597,4.0617,4.0703,4.0759,4.0781,4.0863,4.0901,4.0938,0.0,0.0,0.0,0.0,0.0,0.0,0.0,0.0,3.4594,3.4875,0.0,0.0,0.0,0.0,0.0,3.5469,3.5594,3.6006,3.6841,3.6919,3.732,3.8157,3.8209,3.8209,3.8209,3.8274,3.8307,3.8307,3.8467,3.8985,3.9863,4.0732,4.1554,4.2361,4.3081,4.3394,4.3412,4.3463,4.3445,4.3464,4.4129,4.4397,4.4377,0.0,0.0,0.0,4.31,4.2813,0.0,4.2775,0.0,0.0,0.0,0.0,0.0,0.0,0.0,4.083,0.0,0.0,0.0,4.2216,4.2914,4.3376,4.2401,4.2145,4.1869,4.1005,0.0,0.0,0.0,0.0,0.0,0.0,0.0,0.0,0.0,0.0,0.0,0.0,0.0,0.0,0.0,0.0,0.0,0.0,0.0,4.0449,4.0491,4.051,4.0495,4.0496,4.0504,4.0504,4.0504,4.0504,4.0512,4.0512,4.0642,4.07,4.0706,4.0761,4.081,4.081,4.0791,4.0775,4.0718,4.0771,4.0805,4.0792,4.0792,4.0859,4.0893,4.0915,4.0945,4.1016,0.0,0.0,0.0,0.0,0.0,0.0,3.4448,3.4667,3.4828,0.0,0.0,0.0,3.5041,3.5245,3.5429,3.5571,3.6161,3.6641,3.688,3.7486,3.7951,3.8192,3.8209,3.8207,3.8274,3.8338,3.8401,3.843,3.9161,3.9923,4.0751,4.159,4.2381,4.31,4.3302,4.334,4.3269,4.3376,4.3429,4.3464,4.4129,4.4397,0.0,0.0,0.0,0.0,0.0,4.3176,4.3472,0.0,4.3091,4.4441,0.0,0.0,0.0,0.0,0.0,0.0,4.1933,0.0,0.0,0.0,0.0,0.0,0.0,0.0,4.2029,4.1791,0.0,0.0,0.0,0.0,0.0,0.0,0.0,0.0,0.0,0.0,0.0,0.0,0.0,0.0,0.0,0.0,0.0,0.0,4.069,4.0674,4.0648,4.0641,4.06,4.0496,4.0642,4.0697,4.0642,4.0697,4.0718,4.0718,4.0751,4.0766,4.0766,4.0796,4.081,4.0815,4.0898,4.094,4.091,4.0833,4.0805,4.0816,4.0915,4.0953,4.0981,4.103,4.1081,4.1144,0.0,0.0,0.0,0.0,0.0,3.4497,3.4643,3.4804,3.4899,0.0,0.0,0.0,3.5175,3.536,3.5611,3.5871,3.6367,3.6781,3.7132,3.7632,3.8147,3.8681,3.8716,3.886,3.9202,3.9304,3.9387,3.942,3.9993,4.0685,4.149,4.1966,4.2625,4.3412,4.3497,4.3445,4.3286,4.3463,4.3548,4.3632,4.4188,0.0,0.0,4.5109,4.4972,0.0,0.0,0.0,4.3252,4.1599,4.2534,0.0,0.0,0.0,0.0,0.0,0.0,0.0,0.0,4.3684,4.4465,0.0,0.0,0.0,4.388,4.2977,4.211,0.0,0.0,0.0,0.0,0.0,0.0,0.0,0.0,0.0,0.0,0.0,0.0,0.0,0.0,0.0,0.0,0.0,0.0,4.081,4.081,4.0781,4.0738,4.0732,4.0703,4.0623,4.0745,4.0781,4.0738,4.0781,4.081,4.081,4.087,4.0871,4.0883,4.0915,4.0932,4.0922,4.1008,4.1044,4.1035,4.095,4.0922,4.0928,4.1014,4.1051,4.1082,4.113,4.1172,4.1191,0.0,0.0,0.0,3.4851,3.4851,3.4875,3.4899,3.4899,3.4899,0.0,3.4923,3.5041,3.5314,3.5492,3.5773,3.6259,3.6367,3.6756,3.7593,3.7667,3.8241,3.9478,3.9514,3.984,4.0474,4.0617,4.0705,4.0705,4.0865,4.1318,4.201,4.2155,4.2646,4.3464,4.3679,4.3662,4.3498,4.3662,4.3788,4.3915,4.4242,4.4546,0.0,0.0,4.5307,4.5078,4.3405,4.2851,4.2699,4.118,4.1705,0.0,0.0,0.0,0.0,0.0,4.3003,0.0,0.0,0.0,0.0,0.0,0.0,0.0,4.2747,4.2474,4.2181,0.0,0.0,0.0,0.0,0.0,0.0,0.0,0.0,0.0,0.0,0.0,0.0,0.0,0.0,0.0,0.0,4.0822,4.0822,4.0822,4.0833,4.0824,4.0824,4.0824,4.082,4.081,4.0809,4.0837,4.0824,4.0837,4.0822,4.0822,4.0958,4.1014,4.1008,4.1069,4.1102,4.1107,4.1102,4.1103,4.1108,4.1102,4.1106,4.1092,4.1092,4.1132,4.1191,4.1191,4.1191,4.1191,0.0,0.0,3.4325,3.4546,3.457,3.4643,3.4875,3.4899,3.4899,3.4899,3.5105,3.5297,3.5509,3.591,3.6191,3.6301,3.688,3.7606,3.8415,3.8834,3.9408,4.0239,4.0293,4.0347,4.0492,4.0617,4.0705,4.0705,4.143,4.1901,4.2171,4.3045,4.3545,4.3744,4.4038,4.4102,4.3971,4.3999,4.4192,4.4425,4.436,4.4506,4.4843,4.5173,4.5307,4.5078,4.3405,4.3214,4.3635,4.2715,4.2294,4.2242,0.0,0.0,0.0,4.33,0.0,0.0,0.0,0.0,0.0,0.0,0.0,0.0,4.3645,4.2903,4.2357,0.0,4.1596,0.0,0.0,0.0,0.0,0.0,0.0,0.0,0.0,0.0,0.0,0.0,0.0,0.0,0.0,4.1046,4.1046,4.1046,4.0983,4.0951,4.0951,4.0951,4.0902,4.0791,4.0961,4.1025,4.0951,4.1005,4.1046,4.1046,4.1062,4.1088,4.1072,4.1083,4.1106,4.1107,4.1106,4.1108,4.1091,4.1091,4.1091,4.1092,4.1092,4.1132,4.1191,4.1191,4.1191,4.1191,3.4497,3.4497,3.4546,3.4683,3.4691,3.4739,3.4875,3.4899,3.4899,3.4899,3.5111,3.5495,3.6032,3.6202,3.67,3.7676,3.7966,3.8526,3.9517,3.9824,4.0293,4.1053,4.1089,4.1288,4.1687,4.1869,4.194,4.194,4.2448,4.2772,4.291,4.3413,4.3761,4.3949,4.4206,4.425,4.4151,4.4196,4.4341,4.4549,4.449,0.0,4.5076,4.5235,4.5307,4.5125,4.3864,4.3207,4.2853,4.2098,4.195,0.0,0.0,4.2103,4.2213,0.0,4.2951,4.3153,0.0,0.0,0.0,4.4465,0.0,0.0,0.0,4.2708,4.2279,4.1849,4.1402,4.1093,4.1102,0.0,0.0,0.0,0.0,0.0,0.0,0.0,0.0,0.0,0.0,0.0,0.0,4.1109,4.1109,4.1109,4.107,4.1057,4.1057,4.1057,4.1025,4.0958,4.1048,4.108,4.1057,4.108,4.1091,4.1094,4.1097,4.1101,4.1106,4.1108,4.111,4.1151,4.111,4.1111,4.1152,4.1112,4.1112,4.1152,4.1152,4.1172,4.1191,4.1191,4.1191,4.1191,3.5313,3.5313,3.5313,3.5313,3.5197,3.5164,3.5297,3.5221,3.5219,3.5416,3.5716,3.6167,3.6914,3.6986,3.762,3.9197,3.9156,3.9534,4.0655,4.0727,4.1089,4.1886,4.1922,4.2248,4.2901,4.3068,4.316,4.3214,4.3322,4.348,4.3664,4.3647,4.3825,4.4199,4.4365,4.4393,4.4312,4.4379,4.4481,4.4587,0.0,4.4905,4.5256,4.5297,4.5307,4.5173,4.4143,4.2979,4.1826,4.1235,4.1443,4.1883,4.1529,4.1646,0.0,0.0,0.0,0.0,0.0,0.0,0.0,0.0,0.0,4.3471,0.0,0.0,0.0,4.1531,4.1355,4.1301,4.1132,4.1093,0.0,0.0,0.0,0.0,0.0,0.0,0.0,0.0,0.0,0.0,0.0,4.1109,4.1109,4.1109,4.1109,4.1109,4.1109,4.1109,4.1109,4.1109,4.1109,4.1109,4.1091,4.1091,4.1094,4.11,4.1101,4.1106,4.1092,4.1112,4.1152,4.1191,4.1132,4.1152,4.1191,4.1132,4.1152,4.1191,4.1191,4.1191,4.1191,4.1191,4.1191,4.1191,3.6854,3.6854,3.6854,3.6854,3.6307,3.6108,3.6754,3.6414,3.6384,3.7263,3.7778,3.8122,3.8338,3.9048,3.9585,3.9802,4.011,4.0655,4.1506,0.0,4.1922,4.2719,4.2755,4.281,4.2901,4.292,4.305,4.3285,4.3303,4.3495,4.3865,4.4106,4.4312,4.4477,4.4839,4.4864,4.4653,4.4783,4.4846,0.0,4.487,4.4967,0.0,4.5246,4.5307,4.5107,4.357,4.258,4.1989,0.0,4.1502,4.1296,0.0,4.2209,4.1344,4.2909,0.0,0.0,0.0,0.0,0.0,0.0,4.3127,0.0,0.0,0.0,4.332,4.2439,0.0,4.2028,4.1246,0.0,0.0,0.0,0.0,0.0,0.0,0.0,0.0,0.0,0.0,0.0,0.0,0.0,4.1109,4.1109,4.1109,4.1109,4.1109,4.1109,4.1109,4.1109,4.1109,4.1093,4.1098,4.1098,4.1101,4.1106,4.1109,4.1091,4.1092,4.1152,4.1191,4.1191,4.1191,4.1191,4.1191,4.1191,4.1191,4.1191,4.1191,4.1191,4.1191,4.1191,4.1191,4.1191,3.7268,3.7102,3.7102,3.7102,3.6854,3.6738,3.7052,3.6887,3.6937,3.75,3.7759,3.8109,3.8758,3.9225,3.984,4.0742,0.0,4.1542,0.0,0.0,4.2538,4.2901,4.2901,4.2901,4.2901,4.2975,4.316,4.3427,4.3461,4.3697,4.4131,4.4248,4.4421,4.4613,4.4706,4.4719,4.4699,4.4685,4.4672,0.0,0.0,0.0,0.0,4.5192,4.5339,4.5208,4.3588,4.2905,4.2607,0.0,4.1485,0.0,0.0,0.0,0.0,0.0,0.0,0.0,0.0,0.0,0.0,0.0,0.0,0.0,4.3176,0.0,4.3592,0.0,0.0,0.0,0.0,0.0,0.0,0.0,4.1091,0.0,0.0,0.0,0.0,0.0,0.0,0.0,0.0,0.0,0.0,0.0,0.0,4.1109,4.1109,4.1093,4.1093,4.1109,4.1098,4.11,4.1098,4.1102,4.1106,4.109,4.1091,4.1112,4.1152,4.1191,4.1191,4.1191,4.1191,4.1191,4.1191,4.1191,4.1171,4.1144,4.1144,4.1169,4.1191,4.1191,4.117,4.1144,3.7914,3.7698,3.7698,3.7698,3.7549,3.7442,3.7502,3.7668,3.7928,3.8186,3.8317,3.8674,3.9404,3.9812,4.0461,4.159,4.1898,4.2285,0.0,0.0,4.292,0.0,0.0,0.0,0.0,4.3031,4.3214,4.3548,4.3614,4.3876,4.4358,4.4358,4.4473,4.4646,4.4578,4.4578,4.4646,4.4578,4.4551,4.4551,4.4659,4.4706,4.4783,4.5125,4.537,4.5336,4.3697,4.3206,4.3147,4.1723,4.151,0.0,4.1374,0.0,0.0,0.0,0.0,0.0,4.0975,0.0,0.0,0.0,0.0,0.0,0.0,0.0,0.0,0.0,0.0,0.0,0.0,0.0,4.1352,0.0,0.0,4.1107,0.0,0.0,0.0,0.0,0.0,0.0,0.0,0.0,0.0,0.0,0.0,0.0,4.1095,4.1099,4.1099,4.1095,4.1103,4.1106,4.1103,4.1107,4.111,4.1132,4.1132,4.1152,4.1191,4.1191,4.1191,4.1191,4.1171,4.117,4.117,4.1147,4.1115,4.1074,4.1074,4.1109,4.1144,4.1144,4.1115,4.1074,3.9232,3.9232,3.9232,3.9232,3.8642,3.824,0.0,0.0,0.0,0.0,0.0,0.0,0.0,0.0,0.0,0.0,0.0,4.2883,4.2901,0.0,4.3013,0.0,0.0,4.3032,0.0,0.0,0.0,4.3695,4.3695,4.3971,4.4501,4.4501,4.4501,4.4515,4.4632,4.4619,4.4496,4.4646,4.4699,4.468,4.4699,4.4789,4.4907,0.0,4.5351,4.5468,4.3709,0.0,0.0,4.2461,4.1626,0.0,0.0,0.0,0.0,0.0,0.0,0.0,0.0,0.0,0.0,4.1035,0.0,0.0,0.0,0.0,4.4868,0.0,0.0,0.0,0.0,4.2279,4.2007,0.0,0.0,0.0,0.0,0.0,0.0,0.0,0.0,0.0,0.0,0.0,0.0,0.0,0.0,0.0,4.1107,4.1107,4.1107,4.1107,4.1107,4.1108,4.1092,4.1092,4.1132,4.1191,4.1191,4.1191,4.1191,4.1191,4.1191,4.1191,4.1122,4.1091,4.1108,4.1022,4.1016,4.0994,4.0994,4.0997,4.1016,4.1016,4.1016,4.0994,3.9405,3.9432,3.9405,3.9325,3.9169,3.9135,0.0,3.9553,0.0,0.0,4.057,0.0,0.0,4.2285,4.2983,0.0,0.0,4.4476,4.4476,4.3987,0.0,0.0,0.0,4.3032,0.0,0.0,0.0,0.0,4.3873,4.414,4.4501,4.4501,4.4501,4.4501,4.4556,4.4537,4.4501,4.4556,0.0,0.0,0.0,4.4646,4.4796,0.0,0.0,4.5442,4.4399,4.3789,0.0,4.2481,4.2,4.1704,4.1432,4.1529,4.1646,4.1063,4.0907,0.0,0.0,0.0,4.0948,4.0983,0.0,0.0,0.0,0.0,0.0,0.0,0.0,0.0,0.0,0.0,4.2218,0.0,0.0,0.0,0.0,0.0,0.0,0.0,0.0,0.0,0.0,0.0,0.0,0.0,0.0,0.0,0.0,4.1109,4.1109,4.1107,4.1131,4.1132,4.1092,4.1132,4.1172,4.1191,4.1191,4.1191,4.1191,4.1147,4.1122,4.1121,4.1066,4.1025,4.1022,4.1,4.0963,4.0937,4.0937,4.0917,4.0873,4.0976,4.096,4.0904,3.9563,3.9563,3.9537,3.9458,3.9511,0.0,0.0,0.0,0.0,0.0,4.1235,0.0,4.2289,0.0,4.3843,0.0,4.4723,4.5182,4.4892,4.4657,0.0,4.409,4.3688,0.0,0.0,0.0,0.0,0.0,0.0,4.4248,4.4501,4.4501,4.4501,4.4501,4.4501,4.4501,4.4501,4.4501,4.4501,0.0,0.0,4.4551,0.0,0.0,4.5304,4.5374,0.0,4.4053,4.334,4.25,4.2,4.1646,4.1082,4.1296,4.1626,4.1063,4.0907,4.0907,4.0907,4.0907,0.0,4.0941,4.0972,0.0,4.3202,0.0,0.0,0.0,0.0,0.0,0.0,0.0,0.0,0.0,0.0,0.0,0.0,4.1107,0.0,0.0,0.0,0.0,0.0,0.0,0.0,0.0,4.105,0.0,0.0,0.0,4.1132,4.113,4.1171,4.1172,4.1132,4.1152,4.1169,4.1169,4.1143,4.1139,4.1139,4.108,4.1068,4.1066,4.0987,4.0953,4.0953,4.0941,4.0893,4.0853,4.0853,4.0848,4.0815,4.0903,4.0907,4.0837,3.9703,3.9729,3.9738,0.0,3.9738,0.0,0.0,0.0,4.0999,0.0,4.2486,4.3082,4.3867,4.4392,4.4707,4.4707,4.514,4.5091,4.4331,4.4965,0.0,0.0,4.4126,4.427,4.3769,0.0,0.0,0.0,0.0,4.4262,4.4501,4.4501,4.4501,4.4501,4.4501,4.4501,4.4501,4.4501,4.4501,4.4501,4.4501,4.4501,4.4551,4.5025,0.0,4.533,4.4761,4.4066,4.3275,4.251,4.1646,4.0907,4.0907,4.0907,4.0907,4.0907,4.0907,4.0907,4.0907,4.0907,4.0907,4.0893,0.0,0.0,0.0,0.0,4.3886,0.0,0.0,0.0,0.0,0.0,0.0,4.1477,0.0,0.0,0.0,0.0,0.0,0.0,0.0,0.0,0.0,0.0,4.0925,4.0989,4.0998,4.1064,0.0,0.0,0.0,4.1191,4.1191,4.1191,4.1191,4.1139,4.1106,4.1087,4.102,4.099,4.099,4.1007,4.1007,4.0984,4.0924,4.0898,4.0893,4.0825,4.0797,4.0797,4.0797,4.0797,4.0797,4.0797,4.0797,4.0784,3.9824,4.0204,4.0531,0.0,4.0441,4.04,0.0,0.0,0.0,0.0,4.3677,4.4317,4.489,4.5572,4.6013,4.6013,4.6677,0.0,0.0,0.0,0.0,4.5973,4.5022,4.4544,4.46,4.4204,0.0,4.4091,0.0,4.4426,4.4501,4.4501,4.4501,4.4501,4.4501,4.4501,4.4501,4.4501,4.4501,4.4501,4.4501,4.4501,0.0,0.0,4.5223,4.5285,4.5474,4.4612,4.3372,4.3164,4.2115,4.0898,4.0903,4.0907,4.0907,4.0907,4.0907,4.0907,4.0907,4.0907,4.0906,4.0968,4.0994,4.1293,0.0,0.0,0.0,0.0,0.0,0.0,0.0,0.0,0.0,0.0,0.0,0.0,0.0,0.0,0.0,4.0935,0.0,0.0,0.0,4.0878,4.0902,4.0921,4.0977,4.1014,0.0,0.0,0.0,4.1057,4.1057,4.1057,4.1057,4.1025,4.1037,4.1037,4.1019,4.099,4.101,4.0953,4.0924,4.092,4.0856,4.0825,4.082,4.0809,4.0797,4.0797,4.0797,4.0797,4.0797,4.0797,4.0778,4.0713,4.0538,4.1325,0.0,4.1685,0.0,0.0,4.1696,4.2003,0.0,4.3772,4.4495,0.0,4.5759,4.654,4.7029,4.7029,4.7446,0.0,4.721,0.0,0.0,4.6219,4.5883,4.5477,4.4914,4.4823,0.0,4.4258,0.0,4.4501,4.4501,4.4501,4.4501,4.4501,4.4501,4.4501,4.4501,4.4501,4.4501,4.4501,4.4501,0.0,0.0,4.5011,4.5214,4.5304,4.5735,4.5064,4.3918,4.3521,4.2542,4.1388,4.1024,4.0898,4.0907,4.0907,4.0907,4.0907,4.0907,4.0907,4.0902,4.0953,4.0986,4.1245,4.2142,4.2353,4.2498,0.0,0.0,0.0,0.0,0.0,0.0,0.0,0.0,0.0,0.0,0.0,0.0,0.0,4.0921,0.0,0.0,4.0854,4.0869,4.0907,4.0937,0.0,0.0,0.0,0.0,4.099,4.099,4.099,4.099,4.096,4.0964,4.0961,4.0924,4.0906,4.0902,4.0868,4.0856,4.0856,4.0827,4.0797,4.0797,4.0797,4.0797,4.0797,4.0797,4.0784,4.0752,4.0752,4.0739,4.07,4.1713,4.2757,0.0,0.0,0.0,0.0,0.0,4.3092,0.0,4.4686,0.0,4.5888,4.6576,4.7283,4.7717,4.7717,0.0,4.7409,4.6703,4.7319,4.7104,4.5731,4.6727,4.6593,4.513,4.5499,4.5303,0.0,0.0,4.4501,4.4501,4.4501,4.4501,4.4501,4.4501,4.4501,4.4501,4.4501,4.4501,4.4501,4.4501,4.4501,4.4551,4.5025,4.5246,4.5342,4.5749,4.5388,4.4579,4.3696,4.2863,4.2044,4.117,4.0903,4.0903,4.0907,4.0907,4.0907,4.0907,4.0907,4.0907,4.0907,4.0949,4.1198,4.1955,4.2132,4.2139,4.2126,4.2747,0.0,0.0,0.0,0.0,0.0,0.0,0.0,0.0,0.0,0.0,0.0,0.0,0.0,0.0,0.0,4.0825,4.0869,4.0893,0.0,0.0,0.0,0.0,0.0,4.0963,0.0,4.0963,0.0,4.0888,4.0888,4.0825,4.0797,4.0797,4.0797,4.0797,4.0797,4.0797,4.0797,4.0797,4.0797,4.079,4.079,4.079,4.0746,4.0694,4.0694,4.0687,4.0687,4.3458,4.3966,0.0,0.0,0.0,4.5569,4.5801,4.5513,4.5462,4.6086,4.6825,4.7337,4.7461,4.7627,4.7717,4.7717,4.7717,0.0,0.0,0.0,0.0,4.7614,4.7426,4.6975,4.6246,4.5889,4.5303,0.0,0.0,0.0,4.4501,4.4501,4.4501,4.4501,4.4501,4.4501,4.4501,4.4501,0.0,4.4501,4.4501,4.4501,4.4551,4.5019,4.5203,4.5284,4.5747,4.538,4.4569,4.3696,4.2837,4.1959,4.116,4.0908,4.0898,4.0903,4.0907,4.0907,4.0907,4.0907,4.0907,4.0907,4.0902,4.0971,4.1175,4.1237,4.1223,4.1228,4.138,4.1659,4.2011,0.0,0.0,0.0,0.0,0.0,0.0,0.0,0.0,0.0,0.0,4.1179,0.0,0.0,0.0,0.0,0.0,0.0,0.0,0.0,0.0,0.0,0.0,0.0,0.0,0.0,0.0,4.0827,4.0809,4.0797,4.0797,4.0797,4.0797,4.0797,4.0797,4.0797,4.0797,4.0797,4.0778,4.0726,4.0726,4.0687,4.0621,4.0621,4.0619,4.061,4.4636,0.0,4.5579,0.0,0.0,0.0,0.0,4.6934,0.0,4.6538,4.6848,4.7083,4.7083,4.7464,4.7717,4.7717,4.7717,4.7717,4.7717,4.7717,4.7827,4.8094,4.8016,0.0,4.6515,4.6498,4.5825,4.4501,0.0,0.0,4.4501,4.4501,4.4501,4.4501,4.4565,4.4605,0.0,0.0,0.0,4.4712,4.4712,4.4712,4.4745,4.5071,4.5254,4.5399,4.5725,4.564,4.5237,4.4367,4.3527,4.2678,4.1835,4.1257,4.0908,4.0903,4.0907,4.0907,4.0907,4.0907,4.0907,4.0907,4.0907,4.0921,4.0945,4.0953,4.0949,4.0955,4.0996,4.1325,4.2186,4.2748,0.0,0.0,0.0,0.0,0.0,0.0,0.0,0.0,0.0,0.0,0.0,0.0,0.0,0.0,0.0,0.0,0.0,0.0,0.0,0.0,0.0,0.0,0.0,0.0,0.0,4.0797,4.0797,4.0797,4.0797,4.0797,4.0797,4.0797,4.0797,4.0797,4.0797,4.0752,4.0707,4.0654,4.0654,4.0633,4.0598,4.0598,4.0576,4.0546,4.5816,4.6323,0.0,0.0,4.7283,0.0,4.7717,4.7717,4.7461,4.6848,4.6757,4.6757,4.6757,4.7319,4.7717,4.7717,4.7717,4.7717,4.7717,4.7717,4.7847,4.8192,4.8476,4.7988,4.6679,4.7014,4.6336,0.0,0.0,0.0,0.0,4.4766,0.0,0.0,0.0,0.0,0.0,0.0,4.4895,4.4895,4.4895,4.4895,4.4919,4.5115,4.5314,4.5507,4.573,4.5893,4.5889,4.5212,4.4441,4.3573,4.2533,4.1723,4.1136,4.0946,4.0907,4.0907,4.0907,4.0907,4.0907,4.0907,4.0907,4.0907,4.0907,4.0907,4.0907,4.0907,4.0961,4.1301,4.2222,4.2812,0.0,0.0,0.0,0.0,0.0,0.0,0.0,0.0,0.0,0.0,0.0,0.0,0.0,0.0,0.0,0.0,0.0,0.0,0.0,0.0,0.0,4.0874,4.1048,0.0,4.0797,0.0,4.0797,4.0797,4.0797,4.0797,4.079,4.0784,4.0784,4.0778,4.0752,4.07,4.0647,4.06,4.06,4.0591,4.0573,4.0573,4.0558,4.0516,0.0,0.0,0.0,0.0,0.0,0.0,0.0,4.7717,4.7681,4.7609,4.7591,4.7591,4.7591,4.7663,4.7717,4.7717,4.7717,4.7717,4.7717,4.7717,4.797,4.8532,4.8587,4.8125,4.717,4.7174,4.6431,0.0,0.0,0.0,0.0,0.0,0.0,0.0,0.0,0.0,0.0,4.4883,4.4895,4.4895,4.4895,4.4895,4.4919,4.5115,4.5294,4.5444,4.5715,4.5893,4.5983,4.5908,4.5301,4.4309,4.2704,4.2136,4.1927,4.1136,4.0907,4.0907,4.0907,4.0907,4.0907,4.0907,4.0907,4.0907,4.0907,4.0907,4.0907,4.0907,4.0961,4.1301,4.2222,4.1815,4.1601,0.0,0.0,0.0,0.0,0.0,0.0,4.218,0.0,0.0,0.0,0.0,0.0,0.0,0.0,0.0,0.0,0.0,0.0,4.1854,0.0,4.1145,4.1874,4.1164,0.0,4.0797,4.0797,4.0797,4.0797,4.0797,4.0778,4.07,4.07,4.0668,4.0621,4.0621,4.0612,4.0595,4.0595,4.0554,4.0504,4.0504,4.0516,4.0496,0.0,0.0,0.0,0.0,0.0,0.0,0.0,4.7717,4.7717,4.7717,4.7717,4.7717,4.7717,4.7717,4.7717,4.7717,4.7717,4.7717,4.7717,4.7717,4.8012,4.8694,4.8712,4.8289,4.7329,4.7397,4.6607,0.0,0.0,0.0,0.0,0.0,0.0,0.0,0.0,4.5014,4.5033,4.5114,4.5148,4.5148,4.5148,4.5148,4.5159,4.5227,4.5341,4.5484,4.568,4.5833,4.595,4.6,4.5447,4.4641,4.3976,4.3039,4.2141,4.1781,4.1315,4.0907,4.0907,4.0907,4.0907,4.0907,4.0907,4.0907,4.0907,4.0907,4.0907,4.0907,4.0961,4.1134,4.1546,4.1765,4.1828,0.0,0.0,0.0,0.0,0.0,0.0,0.0,0.0,4.1854,0.0,0.0,0.0,0.0,0.0,0.0,0.0,0.0,0.0,4.197,0.0,4.0951,4.1274,4.0971,4.0797,4.0797,4.0797,4.0784,4.0739,4.0739,4.07,4.0628,4.0628,4.0626,4.0591,4.0591,4.0569,4.0539,4.0539,4.0531,4.0496,4.0496,4.0414,4.0321,4.7717,0.0,4.7717,0.0,4.7717,4.7717,4.7717,4.7717,4.7717,4.7717,4.7717,4.7717,4.7717,4.7717,4.7717,4.7717,4.7717,4.7717,4.7717,4.7827,4.8173,4.8781,4.8917,0.0,4.7486,4.7547,4.6754,4.5033,4.597,0.0,0.0,0.0,0.0,0.0,4.5125,4.5159,4.517,4.5265,4.5307,4.5307,4.5307,4.5307,4.5307,4.5307,4.539,4.5513,4.5618,4.5754,4.5912,4.5941,4.5612,4.5103,4.487,4.3957,4.2913,4.2656,4.1976,4.1276,4.1276,4.1102,4.0907,4.0907,4.0907,4.0907,4.0907,4.0907,4.0917,4.0924,4.0976,4.1011,4.1083,4.1596,4.1816,0.0,0.0,0.0,0.0,0.0,0.0,0.0,4.1944,4.2253,4.2135,0.0,0.0,0.0,0.0,0.0,0.0,0.0,0.0,0.0,0.0,0.0,0.0,4.1274,4.1023,4.0778,4.0778,4.0739,4.0668,4.0673,4.0633,4.0593,4.0586,4.0564,4.0573,4.0573,4.0539,4.0496,4.0496,4.0465,4.0406,4.0406,4.0267,4.0072,4.7717,4.7717,4.7717,4.7717,4.7717,4.7717,4.7717,4.7717,4.7717,4.7717,4.7717,4.7717,4.7717,4.7717,4.7717,4.7717,4.7717,4.7717,4.7717,4.8134,4.8513,0.0,0.0,4.8824,4.7622,4.7596,4.6835,4.5297,0.0,0.0,4.5297,0.0,4.5316,4.5297,4.5297,4.5297,4.5297,4.5297,4.5307,4.5307,4.5307,4.5307,4.5307,4.5307,4.539,4.5504,4.5504,4.5665,4.59,4.59,4.5949,4.5846,4.5045,4.4792,4.4598,4.3743,4.2869,4.2175,4.2175,4.1548,4.0907,4.0907,4.0907,4.0907,4.0907,4.0907,4.0915,4.0997,4.099,4.1011,4.1083,4.1109,4.1109,4.1109,0.0,0.0,0.0,0.0,0.0,0.0,4.2339,4.2278,4.2212,0.0,0.0,0.0,0.0,0.0,0.0,0.0,0.0,4.3227,4.2434,0.0,4.3266,4.2415,4.1545,4.07,4.07,4.0661,4.0595,4.061,4.0607,4.0607,4.0531,4.0496,4.0496,4.0496,4.0496,4.0496,4.0496,4.0372,4.0205,4.0205,4.0042,3.9808,4.7909,4.7909,4.7909,4.7909,4.7909,4.7909,4.7909,4.7909,4.7909,4.7909,4.7909,4.7909,4.7909,4.7845,4.7819,0.0,4.7845,4.7886,0.0,4.8231,4.8657,4.9069,4.9409,4.9013,4.777,4.7732,4.6934,4.5307,0.0,0.0,0.0,4.5564,4.5307,4.5307,4.5307,4.5307,4.5307,4.5307,4.5307,4.5307,4.5307,4.5307,4.5307,4.5307,4.5338,4.538,4.5467,4.5538,4.5651,4.5739,4.5791,4.5775,4.5596,4.519,4.4753,4.4462,4.3763,4.3083,4.3083,4.2889,4.2675,4.2675,4.2228,4.1786,4.1786,4.1362,4.0972,4.1,4.1048,4.1074,4.1104,4.1109,4.1109,4.1109,0.0,0.0,0.0,0.0,0.0,0.0,4.1483,4.1457,0.0,4.1367,0.0,0.0,0.0,0.0,0.0,0.0,0.0,0.0,4.3034,0.0,4.3225,4.2414,4.1833,4.1502,4.091,4.0626,4.061,4.0546,4.0531,4.0531,4.0504,4.0496,4.0496,4.0496,4.0425,4.0295,4.0295,4.0139,3.9932,3.9932,3.9783,3.9597,4.7992,4.7992,4.7992,4.7992,4.7992,4.7992,4.7992,4.7992,4.7992,4.7992,4.7992,4.7992,4.7992,4.8008,0.0,4.7806,4.7929,4.8032,4.8111,4.8532,4.8949,4.9367,4.9735,4.941,4.8304,0.0,0.0,4.5755,4.5946,4.6042,4.6042,4.5545,4.5307,4.5307,4.5307,4.5307,4.5307,4.5307,4.5307,4.5307,4.5307,4.5307,4.5307,4.5307,4.5307,4.5317,4.54,4.5457,4.5522,4.564,4.5739,4.5798,4.5906,4.5623,4.5239,4.5239,4.4656,4.3996,4.3996,4.3743,4.3505,4.3505,4.3097,4.2693,4.2711,4.2074,4.1496,4.1512,4.1298,4.1103,4.1106,4.1109,4.1109,4.1109,0.0,4.1109,4.1109,0.0,0.0,0.0,0.0,0.0,0.0,4.146,0.0,0.0,0.0,0.0,0.0,0.0,0.0,4.3769,4.3788,0.0,4.3687,4.3185,4.2584,4.1889,4.0995,4.0557,4.0565,4.0523,4.0496,4.0496,4.0496,4.0457,4.04,4.04,4.025,4.0052,4.0052,3.9901,3.9683,3.9683,3.9549,3.935,4.8032,4.8032,0.0,0.0,4.8032,0.0,4.8032,4.8032,4.8032,4.8032,4.8052,4.8072,4.8072,4.8189,4.8228,4.8093,0.0,0.0,0.0,4.8965,4.9382,4.9688,5.0095,0.0,4.9129,4.8258,4.736,4.6424,4.566,4.5307,4.5307,4.5307,4.5307,4.5307,4.5307,4.5307,4.5307,4.5307,4.5307,4.5307,4.5307,4.5307,4.5307,4.5307,4.5307,4.5307,4.5307,4.539,4.5522,4.5632,4.5776,4.5906,4.5964,4.5991,4.5991,4.5997,4.5472,4.487,4.487,4.4287,4.369,4.369,4.3631,4.36,4.3601,4.2987,4.2412,4.2478,4.1798,4.1183,4.1184,4.1148,4.1109,4.1109,4.1109,4.1109,4.1109,0.0,0.0,0.0,0.0,0.0,0.0,4.2151,4.1824,0.0,0.0,0.0,0.0,0.0,4.3827,4.4574,4.4652,4.465,4.4576,4.451,4.3624,4.1879,4.1012,4.0554,4.0496,4.0496,4.0496,4.0496,4.0481,4.0364,4.0205,4.0167,4.0022,3.9775,3.9775,3.9648,3.9458,3.9458,3.9311,3.9101,0.0,0.0,4.8229,4.8229,4.8229,4.8229,4.8229,4.8229,4.8229,4.8229,4.844,4.8604,4.8604,4.8883,4.9031,4.8996,4.8763,4.8622,4.8658,4.9287,4.9688,4.9757,5.012,4.992,4.9129,4.8258,4.7073,4.5583,4.5392,4.5307,4.5307,4.5307,4.5307,4.5307,4.5307,4.5307,4.5307,4.5307,4.5307,4.5307,4.5307,4.5307,4.5307,4.5307,4.5307,4.5307,4.5307,4.539,4.5504,4.554,4.5643,4.5769,4.588,4.5912,4.5931,4.598,4.5866,4.573,4.573,4.5604,4.5477,4.5477,4.5025,4.4396,4.3741,4.3473,4.3375,4.338,4.2692,4.2098,4.2082,4.1557,4.1109,4.1109,4.1109,4.1109,4.1109,4.1094,0.0,0.0,4.1402,4.1406,4.139,4.1325,4.1719,0.0,0.0,0.0,0.0,0.0,4.5026,4.4613,4.5191,4.5491,4.5426,4.4758,4.3562,4.1824,4.1604,4.1143,4.0496,4.0496,4.0496,4.0489,4.0339,4.0251,4.0177,3.9973,3.9772,3.9561,3.9561,3.9421,3.9192,3.9192,3.9137,3.9194,4.8306,4.8306,4.8306,4.8306,4.8306,4.8345,4.8514,4.8532,4.8586,4.8746,4.8917,4.9015,4.9015,4.9193,4.9299,4.9299,4.9129,4.9064,4.9211,4.9589,4.987,5.0025,5.0212,5.0092,4.9652,4.8812,4.7551,4.5851,4.5468,4.5307,4.5307,4.5307,4.5307,4.5307,4.5307,4.5307,4.5307,4.5307,4.5307,4.5307,4.5307,4.5307,4.5307,4.5307,4.5307,4.5317,4.537,4.5429,4.5522,4.5651,4.5731,4.5812,4.5918,4.5949,4.596,4.6037,4.6056,4.6056,4.6056,4.6093,4.615,4.615,4.582,4.5387,4.4936,4.4558,4.4294,4.4294,4.3599,4.2982,4.2982,4.2279,4.1693,4.1693,4.2025,4.2144,4.1758,4.2385,0.0,4.2339,4.2283,4.2285,4.2243,4.2178,4.2498,4.335,0.0,0.0,4.52,4.5594,4.5594,4.5162,4.5571,4.5765,4.5708,4.4815,4.388,4.2951,4.2566,4.195,4.1085,4.0965,4.072,4.0347,4.012,3.9972,3.9867,3.9717,3.9525,3.9324,3.9324,3.9461,3.9677,3.9677,3.9918,4.0308,4.8306,4.8344,4.8383,4.8383,4.842,4.855,4.8815,4.8866,4.8984,4.9252,4.9329,4.9378,4.9378,4.9424,4.9453,4.9453,4.9453,4.9541,4.9771,4.9844,4.9993,5.029,5.0302,5.0302,5.0302,4.9385,4.8048,4.6328,4.5621,4.5307,4.5307,4.5307,4.5307,4.5307,4.5307,4.5307,4.5307,4.5307,4.5307,4.5317,4.5317,4.5317,4.5317,4.5328,4.5319,4.5341,4.5466,4.5547,4.5605,4.5847,4.5938,4.5968,4.6002,4.6027,4.6032,4.6093,4.6111,4.6115,4.613,4.6158,4.6196,4.6206,4.6214,4.6238,4.6296,4.5734,4.5207,4.5207,4.4504,4.3899,4.3899,4.3177,4.265,4.2767,4.3295,4.3494,4.2876,0.0,4.4522,4.3786,4.3691,4.3651,4.3608,4.3535,4.3518,4.3583,4.4227,0.0,0.0,4.5432,4.58,4.58,4.5795,4.5758,4.5684,4.4897,4.4432,4.4297,4.3605,4.2835,4.2,4.1713,4.1227,4.0568,4.026,4.0026,3.9858,3.984,3.9685,3.9472,3.9472,3.9918,4.0583,4.0583,4.101,4.1609,4.8306,4.8532,4.8711,4.8711,4.8967,4.9158,4.9206,4.9206,4.9237,4.9283,4.9541,4.9716,4.9716,4.9968,5.0144,5.0144,5.0144,5.0051,4.9817,5.0063,5.0248,5.0302,5.0302,5.0302,5.0302,4.8793,4.7188,4.5488,4.5364,4.5307,4.5307,4.5307,4.5307,4.5307,4.5307,4.5307,4.5307,4.5307,4.5328,4.5369,4.5369,4.5369,4.5379,4.538,4.5419,4.5477,4.5555,4.5729,4.5922,4.5968,4.606,4.6166,4.6177,4.6162,4.6162,4.6189,4.617,4.6189,4.618,4.6196,4.6209,4.6271,4.6277,4.6296,4.63,4.6202,4.6105,4.6105,4.5402,4.4797,4.4797,4.4094,4.3743,4.4484,4.4081,4.3911,4.4516,0.0,4.3845,4.3728,4.3648,4.3611,4.3604,4.3486,4.3709,4.4432,4.4556,4.491,4.5568,4.5733,4.5795,4.5795,4.5758,4.5676,4.5612,4.5468,4.5037,4.4297,4.4162,4.3682,4.2885,4.2623,4.243,4.2277,4.1779,4.1574,4.1509,4.1334,4.1244,4.12,4.12,4.1293,4.1404,4.1404,4.1479,4.1702,4.8797,4.8965,4.9064,4.9064,4.9209,4.936,4.9541,4.957,4.9627,4.9798,4.9968,5.0063,5.0063,5.0212,5.0302,5.0302,5.0302,5.0236,5.0076,5.0212,5.0302,5.0302,5.0302,5.0092,4.9652,4.799,4.6729,4.5946,4.5507,4.5317,4.5348,4.5348,4.5339,4.5351,4.5351,4.5351,4.5351,4.5351,4.537,4.5409,4.5409,4.5409,4.54,4.5473,4.5522,4.5584,4.5751,4.5886,4.6008,4.6087,4.6154,4.6199,4.6199,4.6199,4.6203,4.62,4.6198,4.6209,4.6248,4.6258,4.6269,4.6298,4.63,4.63,4.63,4.63,4.63,4.63,4.5987,4.5696,4.5701,4.4998,4.4531,4.4926,4.5066,0.0,0.0,4.5465,4.5605,4.5113,4.5022,4.4972,4.4906,4.4845,4.4935,4.5279,4.5254,4.5406,4.5778,4.5795,4.5785,4.5738,4.5722,4.5662,4.5594,4.5594,4.5402,4.4998,4.4998,4.4547,4.3731,4.3356,4.293,4.246,4.1961,4.1736,4.1722,4.163,4.159,4.159,4.159,4.185,4.224,4.224,4.2519,4.2931,4.9237,4.936,4.9424,4.9424,4.9483,4.9613,4.987,4.9929,5.0012,5.0278,5.0302,5.0302,5.0302,5.0302,5.0302,5.0302,5.0302,5.0302,5.0302,5.0302,5.0302,5.0302,5.013,4.9538,4.8506,4.7199,4.6426,4.6235,4.5634,4.5339,4.5409,4.5409,4.5409,4.54,4.54,4.54,4.54,4.54,4.541,4.5419,4.5419,4.5428,4.5473,4.5599,4.5679,4.5718,4.5934,4.6039,4.6084,4.619,4.6222,4.6222,4.6222,4.6222,4.6228,4.6211,4.6216,4.6221,4.6296,4.63,4.63,4.63,4.63,4.63,4.63,4.63,4.6302,4.6303,4.6303,4.6306,4.6294,4.5748,4.5379,4.5578,0.0,0.0,0.0,4.6581,4.7011,4.6285,4.6195,4.6131,4.6017,4.5975,4.5898,4.5814,4.58,4.5798,4.5807,4.5792,4.5746,4.5684,4.5684,4.5648,4.5594,4.5594,4.5594,4.5594,4.5594,4.5222,4.4487,4.4078,4.3488,4.2755,4.2343,4.2166,4.2166,4.2166,4.2166,4.2166,4.2166,4.2537,4.3076,4.3061,4.3454,4.3958,4.9302,4.9541,4.9757,4.9757,5.0025,5.0236,5.0248,5.0248,5.0278,5.0302,5.0302,5.0302,5.0302,5.0302,5.0302,5.0302,5.0302,5.0302,5.0302,5.0302,5.0302,5.0302,4.9595,4.8391,4.6729,4.663,4.623,4.5475,4.5429,4.54,4.54,4.54,4.54,4.54,4.54,4.54,4.54,4.54,4.5429,4.5495,4.5495,4.5563,4.5688,4.5759,4.5858,4.5974,4.6064,4.6173,4.6273,4.6296,4.6296,4.6296,4.6296,4.6296,4.6296,4.6298,4.6298,4.6298,4.63,4.63,4.63,4.63,4.63,4.63,4.63,4.63,4.6303,4.6291,4.6293,4.6294,4.6301,4.6243,4.6476,4.7277,0.0,0.0,4.7303,4.6816,4.6346,4.6227,4.6145,4.6076,4.6012,4.5899,4.5814,4.5807,4.5791,4.5807,4.5807,4.573,4.5684,4.5622,4.5614,4.5594,4.5594,4.5594,4.5594,4.5594,4.5594,4.5438,4.5126,4.4843,4.4531,4.4228,4.3953,4.3819,4.3819,4.3819,4.3819,4.3819,4.3819,4.3856,4.3896,4.3836,4.386,4.3881,4.987,5.0006,5.012,5.012,5.0212,5.0302,5.0302,5.0302,5.0302,5.0302,5.0302,5.0302,5.0302,5.0337,5.0348,5.0348,5.0393,5.0186,4.9639,4.962,4.9609,4.9556,4.8307,4.7294,4.6643,4.6127,4.5716,4.54,4.54,4.5419,4.5457,4.5457,4.5485,4.5522,4.5522,4.5522,4.5522,4.5522,4.5593,4.5688,4.5688,4.5747,4.5846,4.5929,4.602,4.6075,4.6184,4.6267,4.63,4.63,4.63,4.63,4.63,4.63,4.63,4.63,4.63,4.63,4.63,4.63,4.63,4.63,4.63,4.6302,4.6306,4.6308,4.6291,4.6297,4.6299,4.6301,4.6305,4.6305,4.6403,4.6737,0.0,4.6425,4.6757,4.6504,4.6265,4.615,4.6115,4.6048,4.5886,4.5834,4.5793,4.5791,4.5795,4.5785,4.573,4.5673,4.5631,4.5594,4.5594,4.5594,4.5594,4.5594,4.5594,4.5594,4.5429,4.5302,4.5191,4.4751,4.4493,4.4388,4.4121,4.4005,4.4005,4.4005,4.4005,4.4005,4.4005,4.3974,4.3945,4.3913,4.3883,4.3818,5.0248,5.0302,5.0302,5.0302,5.0302,5.0302,5.0302,5.0314,5.0325,5.0325,5.0348,5.0359,5.0359,5.0393,5.032,5.0052,5.0076,4.9733,4.8879,4.8593,4.8429,4.8348,4.7297,4.657,4.6301,4.5726,4.5429,4.5429,4.5448,4.5495,4.5522,4.5522,4.5559,4.5594,4.5635,4.566,4.566,4.5696,4.574,4.5835,4.5835,4.5869,4.5978,4.6061,4.6135,4.6176,4.6271,4.63,4.63,4.63,4.63,4.63,4.63,4.63,4.63,4.63,4.63,4.63,4.63,4.6303,4.6305,4.6305,4.6305,4.6306,4.6295,4.6296,4.6297,4.6303,4.6304,4.6305,4.6307,4.6308,4.6308,4.6308,4.6308,4.6308,4.6308,4.6288,4.6235,4.6115,4.608,4.5998,4.5827,4.5807,4.5812,4.5807,4.5773,4.5735,4.5665,4.5631,4.5594,4.5594,4.5594,4.5559,4.5485,4.5559,4.5559,4.5457,4.5292,4.5107,4.4931,4.4572,4.436,4.426,4.4079,4.3989,4.3958,4.3958,4.3961,4.3945,4.3945,4.3913,4.3867,4.3816,4.3786,4.3719,5.0302,5.0302,5.0302,5.0302,5.0302,5.0302,5.0302,5.0367,5.0401,5.0401,5.0457,5.05,5.05,5.0481,5.0136,4.9282,4.9186,4.8841,4.8036,4.7242,4.6753,4.6685,4.6685,4.6282,4.5429,4.5476,4.5504,4.5504,4.5568,4.5594,4.5594,4.5594,4.5594,4.5603,4.5734,4.5807,4.5814,4.5869,4.5905,4.5905,4.5905,4.5987,4.6102,4.6102,4.6181,4.63,4.63,4.63,4.63,4.63,4.63,4.63,4.63,4.63,4.63,4.63,4.63,4.63,4.63,4.6306,4.6293,4.6293,4.6293,4.6295,4.6301,4.6301,4.6303,4.6306,4.6307,4.6307,4.6308,4.6308,4.6308,4.6308,4.6308,4.6308,4.6308,4.624,4.6167,4.6109,4.6046,4.5953,4.5821,4.5807,4.5812,4.5807,4.575,4.5668,4.5594,4.5594,4.5594,4.5594,4.5594,4.5476,4.5201,4.5457,4.5457,4.5201,4.5201,4.4919,4.4397,4.4402,4.4265,4.4005,4.4005,4.3958,4.3897,4.3897,4.3867,4.3804,4.3804,4.3804,4.3788,4.3651,4.3599,4.3582,5.0302,5.0302,5.0314,5.0348,5.0379,5.039,5.0427,5.0468,5.0478,5.0478,5.0489,5.05,5.05,4.9995,4.9555,4.9286,4.874,4.8097,4.728,4.6424,4.5944,4.5935,4.5935,4.5819,4.555,4.5568,4.5568,4.5568,4.5586,4.5594,4.5594,4.57,4.5734,4.5742,4.5828,4.5869,4.5869,4.5889,4.5945,4.6045,4.6045,4.6112,4.6243,4.6243,4.6271,4.63,4.63,4.63,4.63,4.63,4.63,4.63,4.63,4.63,4.63,4.63,4.6305,4.6309,4.6309,4.6295,4.6299,4.6294,4.6296,4.6301,4.6305,4.6306,4.6306,4.6308,4.6308,4.6308,4.6308,4.6308,4.6308,4.6308,4.6265,4.6237,4.6237,4.6165,4.6105,4.6041,4.6003,4.5953,4.5821,4.5807,4.5812,4.5807,4.5738,4.5673,4.5594,4.5594,4.5594,4.5594,4.5594,4.5476,4.5201,4.5292,4.5191,4.4927,4.4726,4.4559,4.4383,4.4206,4.4079,4.4005,4.3961,4.3913,4.3915,4.3851,4.382,4.3804,4.3804,4.3736,4.3651,4.3599,4.3565,4.3532,5.0325,5.0337,5.0348,5.0435,5.0446,5.0457,5.05,5.0521,5.0532,5.0532,5.0553,5.0458,5.0102,4.9634,4.9067,4.8414,4.7587,4.6894,4.6413,4.5893,4.5594,4.5594,4.5594,4.5594,4.5594,4.5594,4.5629,4.5676,4.5676,4.5696,4.5718,4.579,4.5848,4.5835,4.5939,4.5983,4.5987,4.6041,4.6102,4.6178,4.6178,4.6238,4.63,4.63,4.63,4.63,4.63,4.63,4.63,4.63,4.63,4.63,4.63,4.6303,4.6305,4.6305,4.6291,4.6296,4.6296,4.6301,4.6304,4.6301,4.6302,4.6305,4.6307,4.6308,4.6308,4.6308,4.6308,4.6308,4.6308,4.6308,4.6289,4.6266,4.6235,4.6197,4.616,4.6102,4.605,4.6007,4.5958,4.5899,4.5814,4.5793,4.5803,4.5762,4.5698,4.564,4.5594,4.5594,4.5559,4.5457,4.5438,4.5253,4.4884,4.4884,4.48,4.4637,4.4479,4.4346,4.4236,4.4079,4.4005,4.4005,4.3929,4.3881,4.3851,4.3753,4.3703,4.3723,4.4019,4.4114,4.4081,4.4393,4.4486,4.4452,5.0401,5.0412,5.0435,5.05,5.0511,5.0511,5.0521,5.0582,5.0603,5.0603,5.0653,5.0366,4.949,4.9336,4.8644,4.7038,4.6105,4.5594,4.5594,4.5594,4.5594,4.5594,4.5612,4.562,4.562,4.562,4.5676,4.5807,4.5821,4.5828,4.5905,4.591,4.5915,4.592,4.6057,4.6128,4.6135,4.6245,4.63,4.63,4.63,4.63,4.63,4.63,4.63,4.63,4.63,4.63,4.63,4.63,4.6302,4.6302,4.6302,4.6308,4.6294,4.6294,4.6299,4.6302,4.6302,4.6305,4.6307,4.6307,4.6307,4.6307,4.6308,4.6308,4.6308,4.6308,4.6308,4.6308,4.6289,4.6289,4.6267,4.6204,4.6195,4.6158,4.6098,4.6032,4.5986,4.5986,4.5861,4.58,4.58,4.5783,4.577,4.5709,4.564,4.5614,4.5594,4.5594,4.5485,4.5211,4.5201,4.4943,4.4416,4.4397,4.4402,4.4355,4.4355,4.4236,4.4005,4.4005,4.4042,4.4101,4.4024,4.3999,4.4009,4.3872,4.3768,4.379,4.4525,4.4801,4.4911,4.5626,4.5902,4.5902,5.0478,5.0478,5.05,5.0572,5.0582,5.0603,5.0643,5.0663,5.0673,5.0673,5.0683,5.0366,4.949,4.8798,4.799,4.6981,4.6105,4.5594,4.5594,4.5594,4.5594,4.5594,4.5708,4.5757,4.5757,4.5757,4.5771,4.5807,4.5853,4.5897,4.5905,4.6005,4.6057,4.6057,4.6206,4.6267,4.6269,4.6296,4.63,4.63,4.63,4.63,4.63,4.63,4.63,4.63,4.63,4.63,4.63,4.63,4.6305,4.6291,4.6291,4.6295,4.63,4.63,4.6303,4.6306,4.6306,4.6307,4.6308,4.6308,4.6308,4.6308,4.6308,4.6308,4.6308,4.6308,4.6308,4.6288,4.6237,4.6213,4.6202,4.6134,4.6072,4.6041,4.6018,4.5916,4.5835,4.5835,4.5819,4.5803,4.5803,4.5746,4.5719,4.5701,4.5693,4.5648,4.5594,4.5594,4.5485,4.5211,4.5201,4.4943,4.4416,4.4397,4.4289,4.4094,4.4094,4.4064,4.4005,4.4005,4.4326,4.4858,4.4794,4.508,4.5602,4.5459,4.5387,4.5388,4.5571,4.5645,4.5663,4.5847,4.5902,4.5993,5.0532,5.0562,5.0582,5.0633,5.0643,5.0653,5.0683,5.0712,5.0712,5.0712,5.0712,5.0366,4.949,4.8625,4.7605,4.6394,4.5855,4.5629,4.5692,4.57,4.5719,4.5735,4.5809,4.5847,4.5847,4.5906,4.5933,4.5933,4.5988,4.6037,4.6095,4.615,4.6206,4.6206,4.6271,4.63,4.63,4.63,4.63,4.63,4.63,4.63,4.63,4.63,4.63,4.63,4.63,4.63,4.6302,4.6305,4.6309,4.6294,4.6296,4.6301,4.6305,4.6305,4.6289,4.6247,4.6247,4.6239,4.6209,4.6241,4.6235,4.6213,4.6288,4.6287,4.6244,4.6244,4.6235,4.6199,4.6155,4.615,4.6131,4.6056,4.6018,4.598,4.5904,4.5835,4.58,4.5798,4.5803,4.5792,4.5754,4.573,4.5698,4.5648,4.5648,4.564,4.5594,4.5485,4.5292,4.5019,4.4884,4.4624,4.4206,4.4617,4.4751,4.4618,4.4618,4.4618,4.4636,4.5026,4.5368,4.5658,4.5592,4.5765,4.6083,4.5956,4.5902,4.5938,4.6324,4.6471,4.6526,4.6911,4.704,4.7113,5.0603,5.0613,5.0633,5.0683,5.0712,5.0712,5.0712,5.0712,5.0712,5.0712,5.0712,5.0366,4.949,4.8518,4.736,4.5995,4.5745,4.5704,4.5815,4.5822,4.5835,4.5899,4.592,4.593,4.593,4.6061,4.6112,4.6098,4.6112,4.6184,4.63,4.63,4.63,4.63,4.63,4.63,4.63,4.63,4.63,4.63,4.63,4.63,4.63,4.63,4.63,4.63,4.6302,4.6303,4.6306,4.6293,4.6295,4.6297,4.6285,4.6288,4.6289,4.6269,4.6239,4.6173,4.6173,4.6142,4.6154,4.6338,4.6354,4.6362,4.6629,4.6526,4.6425,4.6581,4.6566,4.6523,4.6508,4.6505,4.6496,4.6413,4.6299,4.6149,4.6046,4.5889,4.5798,4.5781,4.5773,4.5754,4.5693,4.5693,4.5657,4.5594,4.5594,4.5577,4.5522,4.5322,4.5063,4.4739,4.4638,4.4485,4.4209,4.5082,4.5509,4.5509,4.5623,4.5623,4.5493,4.6162,4.6466,4.6476,4.6408,4.643,4.647,4.636,4.6305,4.6379,4.7039,4.7314,4.7388,4.8048,4.8306,4.8306,5.0673,5.0692,5.0683,5.0712,5.0712,5.0712,5.0712,5.0712,5.0712,5.0712,5.0712,5.0366,4.949,4.8045,4.7091,4.6995,4.6282,4.5861,4.5897,4.5897,4.5883,4.5899,4.6005,4.6064,4.6064,4.6209,4.6214,4.6098,4.6214,4.6277,4.63,4.63,4.63,4.63,4.63,4.63,4.63,4.63,4.63,4.63,4.63,4.63,4.63,4.63,4.63,4.6302,4.6309,4.6295,4.63,4.6301,4.6303,4.6288,4.6226,4.6217,4.6206,4.6147,4.6125,4.6115,4.6115,4.6109,4.6277,4.6982,4.7134,4.7345,4.8119,4.771,4.7372,4.8128,4.8277,4.8245,4.8185,4.8188,4.8149,4.81,4.7434,4.6936,4.6924,4.6278,4.5781,4.5715,4.5703,4.5701,4.5622,4.5603,4.5622,4.5594,4.5594,4.5504,4.5282,4.5222,4.4966,4.4465,4.5092,4.5346,4.5119,4.5918,4.6345,4.6345,4.6984,4.6877,4.6173,4.6285,4.6626,4.715,4.7169,4.7463,4.8013,4.7976,4.7994,4.7994,4.8104,4.8141,4.8159,4.8269,4.8306,4.8306,5.0712,5.0758,5.0819,5.0819,5.0835,5.0879,5.0879,5.0879,5.0879,5.0879,5.0879,5.0724,5.0337,4.9258,4.8198,4.7279,4.6857,4.6455,4.6044,4.6005,4.6049,4.6112,4.6178,4.6211,4.6211,4.6273,4.6273,4.6211,4.6273,4.63,4.63,4.63,4.63,4.63,4.63,4.63,4.63,4.63,4.63,4.63,4.63,4.63,4.6302,4.6306,4.6308,4.6308,4.6296,4.6286,4.623,4.6249,4.6223,4.6186,4.6143,4.6147,4.6139,4.6109,4.6068,4.605,4.605,4.6338,4.6749,4.7155,4.7572,4.8141,4.905,4.8941,4.8627,4.8569,4.8513,4.8475,4.8458,4.8444,4.8424,4.8399,4.8048,4.7774,4.7778,4.7445,4.7174,4.7094,4.7071,4.6843,4.6374,4.6336,4.6124,4.5633,4.588,4.6001,4.5878,4.6055,4.6054,4.5791,4.599,4.6044,4.5974,4.6773,4.7164,4.7132,4.7914,4.7824,4.7046,4.7401,4.772,4.796,4.796,4.8107,4.8306,4.8306,4.8306,4.8306,4.8306,4.8306,4.8306,4.8306,4.8306,4.8306]}]]